GFSSGP_500_rhum_000.txt.gz
RH
1 1 1 2 4 4 5 32 28 20 37 42 62 61 56 56 56 51 58 99 83 100 100 97 96 97 94 96 93 96 92 87 87 82 77 61 63 59 54 83 88 93 89 78 77 86 93 97 97
1 2 4 10 17 16 27 25 43 50 66 61 58 56 56 55 52 44 70 82 73 91 86 91 86 93 95 96 95 76 64 74 61 51 49 44 37 36 60 67 77 86 71 55 61 60 54 60 83
3 5 6 17 28 39 46 37 44 56 51 58 54 46 50 52 32 29 59 85 82 78 73 80 90 87 83 69 74 73 81 68 52 47 38 30 27 27 43 54 76 75 54 41 38 41 42 41 53
10 10 14 21 47 35 35 69 72 72 65 63 57 53 31 6 4 32 59 66 66 50 45 32 54 66 68 66 66 64 57 52 44 33 25 28 27 31 33 43 47 39 44 35 29 33 41 34 27
10 24 39 26 26 36 64 55 40 23 19 18 28 23 4 6 14 23 69 34 46 29 38 54 54 49 46 43 42 44 35 32 23 21 23 16 24 37 44 39 35 31 23 22 18 33 42 38 23
31 27 20 18 24 45 52 22 3 4 2 2 2 3 6 10 19 29 47 46 31 21 19 26 60 49 39 38 33 29 14 11 18 19 14 8 11 12 10 7 7 7 5 2 2 4 7 11 15
20 20 28 24 19 40 19 4 4 5 5 6 7 6 16 18 36 28 9 8 11 12 11 19 22 16 12 10 13 10 6 5 4 2 5 8 6 6 10 12 13 12 9 9 12 7 8 9 6
24 16 13 9 15 14 14 14 13 14 15 16 16 16 13 10 25 38 30 30 25 20 14 24 13 8 9 13 16 5 5 9 23 17 5 4 9 18 24 25 27 25 19 13 12 11 13 12 13
9 8 9 18 18 17 16 15 17 18 20 16 13 18 21 26 30 39 25 26 39 42 22 22 24 26 31 29 26 25 27 26 30 32 28 18 10 7 6 6 7 7 6 5 6 6 7 6 6
16 15 18 21 9 3 1 1 2 1 1 1 1 1 1 2 2 3 4 8 8 13 17 6 9 10 8 4 5 6 6 5 4 4 5 6 6 6 6 6 5 5 4 4 4 6 5 3 4
4 2 2 2 2 2 2 2 2 4 5 7 6 7 8 8 9 9 9 10 9 10 10 10 9 8 6 6 7 8 8 8 8 8 10 11 11 10 10 10 10 10 8 7 4 3 4 4 4
3 2 3 4 4 4 5 5 5 7 8 8 8 10 10 12 13 14 14 16 17 19 19 17 16 15 14 13 12 12 13 13 13 14 14 13 14 15 16 16 18 18 19 18 18 14 12 12 11
4 4 4 5 6 8 9 11 11 11 10 10 9 9 9 9 11 13 14 16 19 21 23 25 25 23 20 21 22 24 23 24 26 25 24 26 26 24 26 28 29 28 26 27 27 26 23 22 22
4 4 5 5 7 11 10 15 18 21 18 20 17 18 13 12 15 13 13 15 15 16 20 22 21 22 21 24 23 21 20 19 20 21 21 22 23 22 24 25 26 26 27 30 31 31 30 28 26
10 10 8 9 11 13 13 14 15 18 22 23 22 21 20 24 22 18 16 17 18 18 20 23 24 20 19 20 20 20 20 18 18 20 21 21 20 22 24 27 30 32 35 38 42 43 44 49 53
14 12 11 11 12 15 16 15 15 12 13 11 12 13 14 20 22 22 26 28 22 16 16 15 16 17 18 22 25 30 37 42 44 40 36 31 31 29 31 32 30 32 35 37 40 46 48 50 52
15 8 8 11 16 12 14 16 14 8 11 10 8 10 11 11 11 10 11 13 15 16 16 17 22 30 36 37 40 42 44 47 49 51 51 47 42 42 42 45 44 41 43 47 45 46 50 49 48
16 16 16 13 14 13 10 12 11 13 16 14 12 9 8 10 10 11 12 12 17 19 21 27 32 36 37 39 44 49 49 48 46 44 48 52 53 52 50 50 52 54 57 60 60 59 59 59 57
16 17 16 15 12 17 18 17 14 20 18 17 18 16 15 15 15 19 25 28 29 34 38 38 42 47 51 49 50 53 55 56 56 53 51 54 60 65 65 62 63 64 66 67 67 68 70 68 67
18 20 20 20 18 15 19 19 19 20 22 26 26 27 29 33 34 32 38 46 48 56 64 65 66 70 70 64 59 60 61 63 64 64 63 62 63 67 72 75 71 70 72 72 78 78 78 74 72
20 22 24 21 24 18 18 19 23 24 24 30 34 36 38 41 39 36 45 53 60 57 58 65 75 79 72 60 52 50 54 59 62 63 65 65 61 64 67 69 69 63 57 60 61 71 72 68 65
19 19 20 23 24 25 24 29 32 29 32 37 39 44 44 44 43 42 45 47 45 54 57 54 55 55 50 47 48 51 52 55 64 66 68 69 67 68 68 65 62 58 54 54 55 56 45 38 46
16 19 19 22 24 31 35 33 42 34 39 45 41 43 44 39 47 53 50 48 55 58 59 56 56 49 45 41 41 44 45 48 51 58 61 66 66 70 72 70 64 60 55 47 37 31 26 22 41
12 18 21 24 28 35 33 36 44 42 53 63 68 52 44 50 74 82 70 68 69 67 67 66 52 48 47 50 50 56 59 59 58 61 64 60 57 58 59 60 55 46 38 32 25 22 24 28 50
14 18 23 24 26 30 37 46 38 47 55 66 70 73 72 87 92 75 73 74 75 70 73 65 63 58 61 64 68 79 81 77 72 71 70 68 60 54 59 52 40 35 34 33 52 60 71 83 68
21 21 22 26 24 32 38 45 40 45 58 53 61 73 78 74 69 79 74 79 86 86 69 62 62 68 69 66 66 69 74 78 82 77 70 66 66 59 52 43 40 42 64 89 99 97 97 100 93
24 26 28 29 31 33 41 49 44 82 69 66 71 72 68 74 77 85 93 93 85 70 66 64 67 71 63 57 56 59 64 69 74 71 70 68 62 48 48 48 53 75 96 100 99 100 100 100 100
37 31 30 33 38 37 33 44 52 79 84 96 83 72 68 76 89 88 86 77 66 62 61 68 66 60 56 55 54 52 51 52 60 64 64 67 63 59 44 38 65 100 100 100 100 100 100 100 100
36 36 33 37 52 48 51 42 66 71 80 89 89 86 94 97 90 78 67 67 64 63 63 61 60 56 53 50 46 42 40 38 43 58 72 66 59 43 26 35 84 100 100 100 100 100 100 100 98
49 49 47 47 46 50 61 42 76 66 77 73 81 82 77 80 76 71 79 90 80 72 72 70 66 61 54 44 37 32 30 37 68 71 64 50 30 24 35 72 100 100 100 100 100 100 100 96 97

GFSSGP_500_rhum_003.txt.gz
RH
2 1 1 1 3 3 2 5 5 12 31 53 62 71 69 67 64 64 63 60 54 48 60 88 90 99 95 89 89 95 98 93 88 73 68 61 55 51 47 37 34 66 66 62 75 68 46 52 58
1 1 1 2 3 4 5 5 8 16 44 49 65 71 68 65 66 63 60 50 48 39 63 78 73 89 91 93 92 91 83 84 79 78 75 67 60 50 30 26 31 20 32 40 60 50 39 38 44
1 1 2 3 4 6 11 13 17 19 27 43 57 65 64 62 58 49 48 43 26 54 70 80 95 96 98 97 90 88 76 71 69 65 61 55 53 35 23 28 33 37 35 32 41 32 36 33 42
3 5 6 9 6 20 48 56 45 39 41 45 57 61 59 58 46 7 8 26 56 64 58 49 47 52 47 43 43 49 46 50 48 51 45 38 30 34 15 19 32 35 37 48 41 35 24 25 49
6 9 7 10 28 40 43 34 17 7 8 3 3 1 9 4 5 6 22 61 67 54 51 45 40 30 22 32 42 36 38 37 28 19 15 18 26 18 7 10 11 11 13 17 21 17 8 6 14
6 6 16 27 34 24 13 8 5 3 3 2 2 3 5 7 10 22 42 56 66 59 46 31 19 12 17 21 22 16 14 13 9 6 6 5 1 3 7 4 5 7 9 10 8 6 4 2 6
6 7 24 32 25 28 13 10 6 7 7 8 10 13 20 21 22 24 28 16 8 8 12 11 9 10 17 9 9 9 17 9 8 8 18 25 12 3 6 14 22 23 22 23 18 17 18 17 16
7 16 21 15 7 9 13 15 13 13 16 18 21 20 24 23 24 26 39 44 49 37 25 20 12 16 15 21 28 27 27 26 27 26 30 26 19 11 9 16 20 18 12 6 5 4 4 5 6
13 15 9 10 12 14 14 14 11 8 7 6 6 6 1 2 6 5 10 15 20 24 22 10 16 24 26 29 14 6 6 6 5 3 4 4 5 7 9 10 9 9 8 6 5 4 3 3 2
9 3 1 2 1 0 1 0 0 2 2 2 4 4 6 8 10 9 10 11 11 19 29 11 9 7 6 6 7 7 7 7 8 8 8 8 9 9 9 10 11 11 10 10 10 9 8 5 3
1 1 1 2 3 4 4 4 5 7 8 8 9 10 10 11 12 14 15 16 17 19 17 15 15 13 13 13 14 14 14 14 16 16 17 18 19 20 19 20 20 22 23 23 23 22 22 19 16
3 4 4 5 6 7 7 8 8 9 7 6 7 7 8 9 10 12 13 14 16 17 19 15 13 17 18 20 21 22 25 25 26 27 26 26 25 22 21 23 27 28 27 26 26 25 24 25 24
4 5 6 8 9 10 10 11 11 14 14 13 12 12 10 12 12 12 14 14 16 15 15 16 18 19 19 18 17 18 19 20 20 20 20 22 21 21 20 20 21 22 23 25 28 29 30 30 28
4 6 7 7 9 10 11 12 10 10 11 11 11 10 10 12 10 11 14 16 19 18 21 20 19 16 15 16 17 18 22 26 31 37 41 43 42 40 34 27 23 24 25 26 28 30 32 34 35
6 6 8 10 11 12 13 14 10 12 13 14 13 12 9 8 8 11 15 17 18 15 18 17 17 17 18 19 25 36 40 40 41 41 40 45 47 46 46 47 46 43 40 41 42 40 37 37 38
12 11 12 12 12 14 13 9 7 11 13 13 11 11 13 12 13 14 16 17 20 23 25 27 34 40 44 46 48 46 46 48 53 54 55 54 47 45 46 48 52 52 53 52 52 53 55 56 53
15 14 13 15 18 16 16 11 11 15 13 13 14 15 12 14 15 15 18 21 23 28 35 42 47 47 44 43 42 46 50 49 46 46 46 45 48 48 46 46 47 48 54 60 64 66 65 64 62
16 16 14 12 16 14 11 11 12 14 15 16 17 19 21 24 25 23 24 29 35 42 44 49 55 55 55 54 52 51 50 49 49 48 45 44 45 46 48 50 51 51 53 59 66 68 67 72 73
21 19 19 16 12 16 16 16 17 17 17 19 20 22 27 29 30 27 29 37 55 62 63 63 58 58 55 51 49 47 49 48 45 40 39 42 47 52 54 57 57 57 57 59 62 65 70 74 73
19 21 21 18 15 14 16 18 21 21 20 21 21 24 31 37 38 34 40 50 68 58 57 58 62 61 63 62 59 56 55 51 51 55 49 42 42 46 55 62 64 64 65 68 77 86 89 85 77
14 17 18 22 24 18 22 25 27 26 27 28 29 32 36 40 42 47 58 70 60 56 60 64 66 60 54 51 49 49 52 47 48 48 48 47 46 50 55 60 62 63 62 62 61 60 60 60 59
14 16 17 20 22 23 29 32 32 30 30 32 35 38 42 39 45 45 53 54 56 57 58 61 57 55 50 48 51 51 49 44 42 41 42 45 47 46 49 56 62 65 61 54 54 51 48 47 45
14 14 19 22 24 27 28 31 31 29 30 30 38 40 40 37 34 39 43 53 67 73 77 71 63 55 53 51 52 51 49 47 46 46 43 45 48 51 53 54 55 56 55 52 48 45 46 43 42
12 16 24 24 23 25 27 27 24 28 32 36 38 45 44 48 54 56 67 78 76 69 66 56 53 55 54 56 55 50 49 48 47 48 48 50 51 55 58 59 59 61 62 59 54 51 48 48 43
12 13 20 22 24 24 22 22 26 34 46 57 62 56 57 68 69 69 66 61 67 65 55 62 66 61 55 50 50 52 54 55 54 53 52 52 52 51 52 60 62 58 61 57 49 45 40 36 37
16 22 24 27 23 22 25 31 34 38 46 53 52 54 58 53 58 61 64 76 81 67 72 69 58 54 54 57 59 56 58 60 61 58 52 46 39 34 39 43 52 53 49 39 31 32 34 43 58
19 22 25 24 22 26 38 48 42 44 58 45 52 48 46 53 59 59 65 74 71 69 58 49 52 52 50 51 54 63 66 63 60 54 46 41 38 36 40 50 54 44 33 26 29 90 82 100 100
25 28 28 27 31 31 32 47 49 48 39 49 42 43 52 61 66 67 68 74 74 61 44 44 50 50 57 63 65 62 62 54 46 42 41 41 42 40 37 39 37 33 16 24 76 100 100 100 100
38 36 32 32 36 36 34 32 55 45 45 48 57 65 69 72 74 65 60 70 60 50 46 41 45 62 58 60 64 62 46 32 27 40 46 54 40 17 12 23 25 6 13 50 99 100 100 100 100
40 38 37 35 36 39 43 38 60 52 50 57 60 60 64 63 62 62 49 48 55 46 46 46 54 54 57 60 58 46 29 31 35 37 29 21 15 21 17 10 8 23 70 100 100 100 100 100 100

GFSSGP_500_rhum_006.txt.gz
RH
6 4 3 3 4 4 3 3 3 4 9 19 36 45 56 68 68 68 68 67 64 58 57 64 77 66 83 94 94 91 89 83 80 84 68 76 78 77 69 51 34 24 28 33 51 43 32 46 44
2 2 2 2 3 2 3 4 5 8 16 39 56 69 74 74 72 70 70 68 69 71 69 60 53 43 65 62 86 77 59 77 70 70 71 68 62 57 50 38 27 19 22 25 22 25 31 52 49
1 1 1 2 2 2 3 6 15 32 51 63 66 68 71 73 71 68 68 48 23 34 53 68 65 88 83 88 80 63 46 55 50 50 54 46 39 34 29 20 23 11 12 32 29 30 43 54 47
0 1 1 3 4 5 5 10 13 26 41 40 42 38 52 57 56 55 47 12 6 24 50 63 65 63 68 54 50 37 27 29 32 38 34 25 15 9 13 22 18 8 5 6 10 23 33 34 27
1 2 3 6 8 12 18 28 40 37 7 2 1 0 0 1 2 3 6 8 9 24 67 63 65 55 55 50 42 22 19 16 14 18 10 7 6 7 4 2 7 6 4 5 6 9 10 7 4
4 7 8 8 11 34 36 23 6 5 3 3 4 5 8 16 21 22 23 33 22 25 29 27 24 29 17 11 14 10 10 11 16 13 16 14 23 30 22 8 8 10 15 17 19 22 21 19 12
7 8 10 17 34 35 24 9 7 7 7 8 12 15 16 21 22 23 26 32 38 36 33 28 25 23 13 15 12 15 21 13 9 11 13 15 18 15 8 8 16 24 26 26 16 5 6 6 8
13 17 21 33 37 24 12 8 11 13 15 16 18 22 11 5 6 8 11 12 12 16 20 10 8 16 23 24 21 8 4 5 4 3 4 6 7 7 9 9 9 9 8 8 7 6 5 4 3
16 16 20 12 11 9 11 11 6 2 2 1 1 4 7 8 8 9 9 11 10 21 27 12 9 7 5 5 6 6 7 8 9 11 12 14 14 14 14 14 13 13 13 13 13 13 13 12 9
11 9 10 6 2 1 1 1 4 5 6 8 8 10 10 11 13 15 15 16 17 17 16 18 16 16 14 14 14 14 15 16 17 19 19 19 20 19 18 19 19 20 19 17 17 20 21 19 17
1 1 1 3 3 4 5 6 7 8 8 8 9 9 10 10 10 12 14 14 14 15 15 16 17 20 17 17 16 15 14 15 16 17 20 20 20 20 21 22 21 20 20 19 20 22 22 23 22
2 3 4 5 6 6 7 7 8 9 11 12 10 9 10 10 10 10 11 13 13 14 16 18 18 16 16 17 17 18 17 18 20 22 26 31 37 42 45 48 45 37 28 24 23 22 21 23 26
4 5 6 8 10 10 10 10 10 11 13 12 13 11 12 13 8 10 10 10 9 10 12 16 16 15 16 16 17 17 19 26 37 44 46 48 50 49 51 58 61 61 58 54 49 38 31 28 25
6 7 8 9 10 10 10 12 14 12 9 7 8 9 10 8 8 8 9 9 8 9 9 9 10 11 12 14 16 19 24 34 43 42 41 42 45 48 52 52 49 47 47 49 52 56 55 49 46
6 7 10 11 11 12 14 13 16 14 12 10 10 10 10 11 12 9 9 10 13 14 14 14 22 28 28 28 30 34 36 36 33 33 35 43 46 45 43 42 38 37 38 39 42 46 50 54 58
12 12 13 13 14 13 16 13 10 12 12 12 14 13 15 13 13 13 13 15 21 23 25 30 42 47 48 48 50 51 50 48 46 44 43 42 41 40 38 36 35 35 36 38 40 42 45 48 52
17 16 16 15 16 16 16 15 14 12 13 14 15 17 20 21 23 24 25 26 32 38 40 50 58 56 50 45 44 40 36 33 32 34 34 35 37 38 37 36 37 37 37 38 40 41 44 48 48
16 14 15 14 15 15 16 16 16 15 14 15 15 18 21 23 26 28 30 33 36 39 40 42 53 52 49 47 44 46 49 50 51 50 50 48 48 46 44 43 42 41 40 40 42 45 50 54 55
18 18 17 15 15 15 16 14 15 17 17 19 21 23 24 26 32 35 35 39 42 51 64 65 60 54 56 53 52 56 61 60 61 60 59 56 55 54 51 48 46 45 42 42 43 47 52 56 58
18 19 19 18 17 18 20 16 14 16 20 23 28 31 30 32 34 34 35 44 55 70 76 68 60 62 61 61 62 62 56 53 52 49 48 47 42 38 36 36 37 37 35 35 40 52 64 67 68
12 14 16 16 16 18 23 23 25 26 28 29 29 29 30 30 25 30 38 52 50 59 70 72 77 70 59 56 57 48 48 48 42 38 36 35 36 36 36 36 36 37 40 43 49 55 60 63 62
12 10 12 14 18 20 22 22 26 24 24 26 27 29 28 26 29 41 50 56 60 63 59 62 59 56 67 68 56 53 45 38 40 40 39 43 45 45 46 46 46 46 47 47 48 50 52 56 57
16 13 11 11 18 20 22 23 20 20 20 20 23 26 27 29 41 47 51 54 55 51 56 60 63 69 65 57 51 44 40 38 34 37 36 42 44 50 57 59 55 51 47 43 38 34 33 34 34
15 15 14 14 23 23 22 23 17 18 21 23 27 32 37 44 48 50 54 63 62 70 69 62 59 59 57 52 41 36 35 35 38 45 45 51 56 55 53 50 49 48 47 46 43 41 43 47 50
23 18 13 15 18 22 20 19 20 22 29 34 38 44 43 48 52 59 60 62 60 58 58 56 54 57 53 42 36 36 55 61 52 51 49 50 51 49 44 35 25 28 36 42 45 47 45 43 41
26 21 19 22 21 22 22 26 29 28 34 36 32 36 42 48 51 51 51 50 53 52 49 48 43 39 36 36 39 41 42 46 54 54 56 53 50 40 13 9 7 7 8 11 20 19 14 23 34
27 21 23 23 22 22 23 26 30 31 31 32 36 43 47 47 49 50 50 48 42 35 34 31 29 36 47 54 47 51 61 72 82 60 66 62 45 34 17 12 9 7 4 3 5 11 26 25 98
32 28 24 22 22 19 26 36 40 38 34 41 47 44 42 44 42 37 35 32 31 31 35 35 37 39 42 48 65 64 93 98 71 60 48 36 35 30 28 31 13 11 17 4 12 14 10 23 86
32 32 31 31 32 31 31 35 51 47 48 49 47 45 42 37 35 36 35 38 40 44 45 45 46 45 42 39 41 51 77 71 42 37 35 33 18 10 11 6 4 4 2 9 16 26 67 100 100
41 39 39 38 38 41 47 40 56 53 51 47 42 39 37 37 42 48 51 51 47 44 45 47 49 49 49 52 58 64 83 78 89 43 35 22 7 9 20 5 4 13 32 70 99 100 100 100 100

GFSSGP_500_rhum_012.txt.gz
RH
23 19 18 14 9 6 5 5 4 4 3 4 6 8 13 20 27 41 50 48 55 59 62 60 50 35 31 20 25 23 31 34 35 38 33 27 19 16 14 14 9 13 11 10 12 19 11 10 22
18 15 12 7 4 3 3 3 3 2 3 3 6 12 21 33 38 43 48 48 52 58 53 43 25 12 9 11 28 36 30 29 21 20 18 11 9 9 5 8 6 8 9 14 17 15 8 5 13
13 9 6 3 1 3 2 2 2 2 3 4 9 20 25 28 27 19 21 32 33 26 15 11 12 19 27 27 26 29 22 12 8 8 9 9 11 12 10 14 20 19 8 5 11 9 4 4 4
4 2 2 1 2 2 3 3 5 6 8 13 22 28 17 6 2 6 7 8 9 15 19 14 10 11 14 14 14 10 10 14 11 15 13 13 17 18 21 22 20 14 11 6 5 5 8 10 9
1 1 2 2 3 3 6 7 10 16 19 34 22 3 4 6 11 13 16 16 17 18 24 22 23 20 21 22 19 16 18 19 14 5 4 5 5 5 5 5 6 6 8 11 13 16 18 19 18
2 3 5 4 5 8 10 13 16 16 7 5 5 6 11 10 5 4 5 10 16 15 14 9 4 4 6 10 14 13 8 4 4 6 7 9 10 12 11 10 9 9 9 9 8 8 7 6 4
5 7 8 12 17 12 11 17 10 6 7 7 10 13 4 3 4 7 7 7 16 11 6 5 6 7 7 6 6 8 10 11 12 13 12 13 14 14 14 12 11 11 11 10 11 12 12 10 9
10 12 18 15 12 12 16 16 9 10 10 10 11 2 3 3 4 4 6 6 6 7 8 8 12 13 13 13 14 14 14 15 16 16 15 14 15 18 20 21 21 19 18 16 14 12 12 12 12
27 17 11 11 12 10 11 10 5 2 2 3 5 5 4 4 6 6 6 7 7 8 11 13 14 11 10 13 13 12 13 12 12 14 15 18 24 32 39 43 46 46 46 47 48 49 39 25 17
12 9 9 9 7 7 3 2 5 6 7 9 9 9 9 8 7 7 7 8 9 10 15 16 15 10 9 10 11 12 13 14 14 15 16 22 31 38 39 38 38 43 49 53 56 58 55 54 52
9 9 4 1 2 2 2 5 6 8 9 9 10 8 8 7 6 8 8 8 9 11 10 10 10 10 11 12 13 14 16 17 19 22 26 30 31 31 32 34 39 46 50 50 53 52 52 51 48
6 2 1 1 3 6 7 7 8 8 8 9 9 9 6 8 10 10 10 12 11 9 9 12 10 12 16 19 17 16 21 26 33 38 40 41 42 43 43 44 44 45 45 48 50 50 49 46 42
3 4 5 6 6 7 7 8 10 12 13 13 10 11 9 11 9 9 9 9 10 10 10 12 14 17 19 21 21 24 29 34 37 40 42 41 40 42 45 46 45 43 41 42 41 41 40 39 38
6 7 8 8 9 10 12 12 10 11 11 10 8 9 9 9 9 11 14 18 20 22 24 22 22 24 27 30 31 34 37 38 36 37 36 36 38 40 41 44 44 42 43 42 42 41 40 39 38
8 8 9 10 11 12 11 12 11 10 9 9 10 12 13 14 16 19 21 25 28 30 30 32 32 33 37 42 41 38 42 41 39 35 35 42 43 43 44 42 40 39 39 39 38 36 36 38 39
8 8 9 10 11 11 13 10 13 10 10 11 15 17 19 20 20 22 26 31 35 37 40 45 41 37 35 36 39 41 38 34 38 42 43 48 48 45 44 45 43 38 35 33 31 30 30 31 32
10 14 11 10 13 11 12 11 13 14 13 17 17 20 24 26 28 30 31 35 37 36 35 32 33 34 37 36 37 38 39 46 48 47 48 48 48 43 42 39 34 27 24 24 25 29 30 34 36
17 20 18 16 16 16 13 11 13 15 17 16 19 25 27 29 31 34 35 35 34 33 29 34 38 40 43 48 45 47 50 51 54 58 54 48 44 40 34 28 24 20 18 19 20 20 21 25 36
18 19 19 19 21 19 16 14 17 19 18 22 27 30 32 34 37 37 33 34 35 34 35 43 46 49 54 52 51 52 60 60 58 57 53 44 39 31 27 20 19 19 20 24 26 23 22 24 25
16 16 17 17 18 20 19 21 21 23 25 27 31 34 37 39 36 34 38 43 42 43 46 53 56 62 67 68 65 65 59 54 53 52 47 36 29 25 22 21 22 23 24 26 30 32 29 26 29
12 12 11 12 12 16 17 19 20 22 24 28 29 32 32 32 37 44 46 48 48 49 52 58 64 67 67 62 55 52 53 50 41 35 30 30 30 32 33 34 33 33 35 32 33 33 32 28 25
9 10 12 12 13 12 14 23 19 22 23 26 29 28 27 27 32 41 45 44 47 47 52 61 61 57 55 55 54 52 48 41 33 30 32 34 35 37 39 39 38 37 40 41 43 43 51 58 43
18 18 15 14 14 13 13 22 15 25 27 27 23 22 22 26 34 38 44 48 46 45 49 54 53 51 47 46 52 49 39 33 37 39 41 45 49 53 54 54 52 51 49 48 50 53 55 51 50
19 18 18 19 19 18 16 23 14 25 27 26 23 22 23 30 35 42 45 45 47 53 54 52 49 43 42 39 34 35 40 47 50 52 54 60 66 64 60 57 61 61 56 54 50 30 21 22 33
18 20 20 22 24 23 22 21 20 24 26 26 24 26 33 36 43 48 50 53 54 52 46 40 40 40 37 39 42 48 55 60 62 63 61 54 48 44 38 33 28 29 26 22 29 28 14 12 13
27 28 30 28 27 28 27 25 22 26 28 31 32 35 42 49 50 52 56 54 48 43 42 48 46 44 46 51 59 67 71 72 61 44 33 28 26 26 25 26 29 45 39 32 30 54 53 64 53
37 33 35 34 30 29 29 29 33 42 42 44 48 51 53 53 53 51 48 49 53 52 46 42 45 52 60 69 73 69 50 36 37 36 34 32 31 30 33 33 52 44 51 76 83 40 27 35 13
37 36 35 36 35 34 35 37 49 47 45 43 47 52 53 52 54 59 59 56 48 41 42 49 54 58 60 49 44 39 39 38 39 39 38 30 24 19 20 37 91 98 98 71 41 44 25 17 27
36 36 36 37 40 39 32 33 40 39 47 47 50 56 66 66 65 60 51 48 47 51 57 61 58 51 46 43 42 40 42 43 43 36 18 23 28 24 51 66 90 77 67 31 19 22 68 94 100
49 48 49 49 47 51 56 49 54 57 52 52 60 64 63 59 55 52 52 51 53 56 53 52 47 48 46 44 48 52 44 44 25 11 35 52 24 23 17 15 16 20 23 25 52 91 100 100 100

GFSSGP_500_rhum_015.txt.gz
RH
29 24 20 14 8 8 75 42 17 7 5 3 2 2 4 10 12 51 83 38 42 41 30 25 26 28 10 14 14 23 23 13 8 9 14 11 9 8 11 6 9 11 5 5 6 7 11 13 9
23 20 14 7 5 70 93 13 53 16 2 2 2 4 8 18 28 33 31 29 16 12 26 15 10 10 11 15 15 11 8 9 8 8 9 10 10 11 12 10 14 20 21 14 6 9 14 11 7
18 11 39 6 40 64 89 26 6 2 2 3 4 6 15 17 17 15 9 3 4 7 8 13 10 8 10 12 12 10 9 13 14 15 8 6 10 17 18 22 22 18 16 13 6 4 5 5 8
14 6 6 8 84 59 36 10 2 4 5 6 7 10 15 6 3 2 4 9 13 15 14 17 17 13 12 13 16 15 16 16 7 3 5 5 4 4 5 5 5 5 5 6 9 13 16 18 19
1 1 20 72 46 16 26 6 6 22 8 10 16 11 4 5 6 8 9 7 11 16 16 9 4 4 5 7 10 9 5 3 3 5 6 8 8 8 8 7 7 8 8 7 7 6 6 6 6
1 6 76 92 43 5 5 6 9 14 10 7 5 6 6 4 3 4 5 9 11 8 4 3 4 4 3 4 4 4 5 5 6 8 9 10 9 10 10 10 10 10 9 9 9 10 10 9 8
3 78 81 100 15 7 7 12 14 10 6 5 7 8 2 2 5 5 6 10 9 7 6 7 6 6 6 6 6 7 7 8 8 10 10 11 13 15 19 22 27 30 32 29 23 16 11 11 11
11 80 84 63 28 9 13 20 13 7 7 10 10 3 2 3 3 4 5 5 6 8 8 6 6 7 7 7 8 9 9 10 11 12 12 13 15 21 30 36 38 40 40 41 39 38 40 41 24
13 44 56 40 46 13 11 9 9 8 9 10 5 3 3 4 4 6 7 8 10 8 8 7 7 6 8 9 9 9 10 10 11 12 14 17 21 25 31 38 38 38 40 42 44 48 47 46 46
20 52 55 20 16 10 10 6 4 3 4 5 5 4 4 5 6 7 8 7 8 8 8 8 9 9 9 8 8 9 12 14 18 22 29 37 41 43 43 44 44 46 46 47 50 52 53 51 49
27 62 9 8 8 7 3 5 6 7 8 8 8 7 7 7 7 7 7 8 9 9 10 8 9 10 8 8 12 17 22 26 29 33 36 38 40 40 38 34 35 39 42 44 42 43 46 47 49
12 9 3 2 2 1 2 5 8 8 8 8 8 8 8 8 8 7 7 8 8 8 10 11 12 14 16 18 22 28 32 34 36 36 39 39 40 40 41 40 40 39 43 44 44 42 41 41 40
4 1 1 2 4 7 7 7 8 8 9 11 12 10 9 8 8 9 10 14 16 20 23 24 28 30 31 30 29 33 36 40 44 43 43 45 44 40 45 46 46 46 44 43 42 41 41 41 41
4 5 6 6 6 7 7 8 10 12 12 10 9 9 10 12 14 15 15 20 23 29 30 35 35 28 26 27 29 33 39 40 38 39 44 43 46 45 40 46 47 45 42 41 40 39 38 38 38
8 9 9 9 9 10 10 12 15 14 12 10 11 14 14 17 16 17 19 26 30 34 35 35 30 30 31 34 41 39 36 38 38 39 41 45 45 44 45 44 39 37 36 33 31 29 25 23 22
8 10 24 11 12 12 14 86 18 12 9 12 13 17 18 20 20 22 23 30 32 33 33 32 31 31 38 42 43 42 44 46 42 43 46 45 46 47 47 45 38 30 27 24 20 18 16 17 19
15 82 38 14 13 14 16 83 18 14 13 17 17 19 19 22 24 27 29 30 30 33 37 36 36 35 43 44 48 51 55 52 48 47 45 48 49 51 48 43 39 31 25 26 24 24 23 24 27
72 47 24 37 16 16 16 17 15 15 15 16 18 21 25 27 26 28 26 30 30 36 44 47 47 47 54 48 55 55 54 50 51 51 55 61 54 49 42 37 34 32 27 26 30 28 27 24 24
23 22 25 23 22 21 20 20 16 16 14 17 19 25 27 29 27 22 30 35 39 40 47 50 50 66 53 56 66 62 62 59 58 61 54 52 49 42 34 31 32 31 30 29 31 32 30 31 34
19 19 18 18 19 20 19 19 17 20 23 24 25 27 28 27 24 28 31 32 34 47 55 53 54 59 64 68 74 75 67 64 63 56 50 43 35 31 33 34 36 37 38 41 42 41 40 38 40
14 13 12 12 12 13 15 18 15 18 20 22 24 24 26 26 26 28 28 31 45 55 59 59 64 64 65 75 72 74 68 62 50 40 36 34 38 43 48 48 47 47 46 40 41 42 41 34 34
12 13 13 12 13 52 12 88 59 23 21 26 27 27 27 27 30 35 42 46 48 56 63 66 61 57 61 71 64 59 47 39 36 36 39 44 50 53 54 52 48 44 42 38 32 29 28 27 26
21 20 20 20 21 20 18 16 94 57 29 25 28 31 32 32 36 35 32 37 50 58 52 53 57 61 60 50 43 43 42 43 45 48 54 59 59 62 56 40 34 33 32 32 34 32 31 27 26
13 14 17 19 20 25 28 24 97 92 35 32 28 30 30 29 28 29 38 43 48 52 58 62 61 50 43 45 47 47 51 55 61 65 68 66 58 43 38 39 41 42 40 36 30 25 18 16 14
15 17 26 30 27 86 35 28 62 28 38 34 31 28 28 30 38 46 53 57 56 58 58 55 51 56 47 40 50 55 58 58 57 56 46 41 40 44 45 45 45 35 24 24 23 23 17 13 11
30 32 32 34 37 56 32 46 55 32 34 35 37 38 39 48 57 61 63 62 58 58 60 61 59 52 51 53 53 54 54 54 52 47 44 48 51 48 48 42 36 32 28 20 24 15 12 13 20
35 35 36 35 32 31 37 46 44 44 45 46 49 48 44 50 59 62 66 61 64 58 52 51 54 56 52 48 47 49 49 52 59 66 66 61 55 68 72 39 26 15 10 13 31 64 94 46 18
38 36 36 36 37 38 85 59 99 85 57 41 43 48 57 62 67 65 63 63 60 58 59 57 55 54 51 48 49 52 58 66 62 53 55 64 79 87 44 18 10 9 13 15 12 12 14 18 21
42 43 47 47 50 52 47 54 69 66 61 60 58 59 63 65 66 67 67 68 68 64 58 54 51 49 48 50 54 57 60 64 77 75 82 93 78 30 14 9 8 8 10 13 18 19 36 52 72
41 44 46 52 56 52 54 47 48 59 66 58 60 64 64 66 72 66 62 64 62 55 54 50 45 44 47 49 49 50 52 62 95 100 93 46 21 11 9 8 9 14 19 45 80 90 91 97 100

GFSSGP_500_rhum_018.txt.gz
RH
28 22 16 11 12 13 42 98 99 66 68 23 5 3 3 5 14 34 45 94 67 20 27 21 13 8 8 10 14 12 8 6 6 9 11 10 10 9 9 10 9 12 16 18 15 7 9 13 12
27 20 19 15 9 35 96 99 79 42 29 8 3 4 3 5 6 12 17 17 15 12 5 5 9 8 8 9 8 5 6 11 11 8 3 2 4 7 9 11 12 13 14 11 12 8 4 6 8
54 19 42 58 45 71 93 98 69 55 12 3 4 2 3 4 4 10 9 7 3 6 9 10 13 14 12 11 10 10 10 8 4 4 5 5 4 4 5 5 5 5 4 4 5 6 8 10 11
13 65 16 39 84 91 96 86 58 42 4 6 6 6 7 6 5 3 4 5 6 8 10 13 9 4 4 5 7 7 6 5 4 5 6 6 7 8 7 6 6 7 7 7 7 6 6 5 7
64 12 40 64 98 94 94 80 77 16 70 21 22 7 5 4 5 5 4 4 8 11 11 5 3 2 3 3 3 3 4 4 5 6 7 8 8 9 9 10 10 9 9 9 8 8 8 8 7
21 16 38 95 93 88 82 64 32 83 99 17 11 5 5 3 3 2 3 7 8 6 3 3 4 4 5 5 5 6 6 7 8 8 9 10 11 14 18 24 28 30 29 28 26 25 20 12 9
13 30 72 97 90 69 18 11 19 49 18 6 5 4 3 4 4 5 6 5 4 4 4 4 5 6 6 7 7 8 8 9 9 10 10 11 12 14 19 26 33 36 36 35 34 32 33 34 33
20 85 94 95 91 76 13 17 12 17 7 6 6 5 2 3 4 4 5 6 5 5 5 5 6 7 8 9 9 9 9 9 10 11 12 13 16 19 28 30 33 37 38 39 40 43 45 46 45
52 86 92 89 72 65 19 13 16 9 7 8 7 2 3 3 4 6 6 6 6 6 7 7 7 7 8 9 8 9 9 10 12 15 17 22 29 34 40 43 40 43 42 40 41 42 45 46 48
54 56 56 58 54 53 13 12 8 9 8 9 7 4 5 6 6 6 6 7 8 8 7 7 7 7 8 8 8 11 14 19 23 28 34 36 36 36 31 31 34 34 33 32 38 42 43 41 39
66 69 56 52 31 19 11 6 4 4 4 5 6 6 7 6 6 7 7 8 6 6 6 9 11 13 16 20 23 24 25 27 31 37 36 35 31 32 32 32 34 39 43 43 41 38 40 42 38
67 69 60 26 10 10 5 5 6 8 5 8 8 7 7 9 8 7 6 6 8 14 17 18 19 24 23 22 25 28 32 34 32 31 35 34 34 35 39 43 43 43 41 42 44 43 42 40 40
23 25 7 3 3 2 3 5 7 8 8 8 8 10 10 9 9 10 11 13 16 16 16 19 21 19 16 19 26 29 33 36 36 37 40 40 41 43 47 49 48 46 44 42 40 39 38 37 36
2 1 2 4 5 7 7 7 8 8 10 13 12 10 11 12 14 14 16 18 19 23 20 18 35 40 26 22 28 27 38 37 38 41 48 49 46 48 50 47 44 44 42 34 28 26 26 25 21
5 6 7 8 8 8 8 8 10 11 12 10 11 14 16 16 15 15 22 26 23 24 20 24 32 26 27 30 34 35 38 39 38 39 41 40 43 44 45 44 42 37 33 27 23 22 21 20 20
8 10 23 13 10 10 10 28 21 18 11 12 13 16 19 17 18 18 25 25 25 29 41 43 16 18 25 29 33 39 36 41 40 42 39 40 50 44 46 42 40 34 30 27 25 24 23 22 22
23 83 90 41 18 13 15 77 84 22 13 17 20 20 20 25 23 21 20 27 33 26 33 30 16 28 32 49 64 57 49 49 49 51 47 48 47 41 44 35 33 33 29 29 30 30 30 27 27
90 71 81 59 17 15 16 26 98 14 18 22 22 24 19 22 32 22 27 32 26 33 32 33 39 59 63 60 61 58 50 52 60 65 54 50 51 42 31 28 27 25 26 30 34 36 34 32 30
64 60 53 84 19 18 18 21 26 18 20 19 21 25 31 27 26 24 28 33 31 34 46 42 60 54 60 64 66 66 59 55 55 56 50 46 34 33 30 30 31 31 31 33 34 29 26 25 25
46 30 36 22 20 20 21 23 16 19 23 22 24 26 27 28 29 30 30 32 37 43 49 53 66 75 78 66 58 62 58 58 59 58 41 36 37 34 38 40 39 39 39 36 30 26 25 25 28
24 22 17 20 14 16 16 24 20 19 27 26 23 24 27 30 28 30 34 40 47 52 61 72 68 68 78 61 55 62 64 59 49 45 49 50 49 51 50 48 43 34 31 30 32 32 32 32 35
14 12 14 14 15 29 35 70 96 65 55 49 28 24 28 28 29 28 33 40 45 52 59 64 54 55 61 64 63 57 50 51 52 49 46 49 52 50 48 47 43 41 40 38 38 40 42 41 38
22 22 21 21 21 22 26 41 97 79 53 52 51 40 32 32 32 35 38 37 40 48 54 56 63 59 54 56 54 54 56 50 48 48 44 42 44 44 48 49 48 50 51 50 54 52 49 50 40
14 13 12 12 15 19 52 80 96 99 84 90 73 30 30 30 32 34 36 38 45 58 62 64 63 60 54 50 52 53 52 48 44 43 44 45 46 51 55 56 62 56 48 49 55 58 60 50 32
24 24 24 75 79 72 87 84 65 65 95 86 56 34 36 36 42 48 50 51 44 45 58 63 65 64 59 55 52 48 42 44 40 37 40 45 49 58 70 68 71 69 78 74 75 52 41 18 6
30 34 35 39 68 53 54 50 69 78 86 91 51 53 52 48 45 42 41 50 57 65 67 63 67 67 62 56 49 45 37 34 39 44 45 46 48 51 58 61 72 87 95 83 60 11 6 6 6
33 36 35 34 35 34 39 99 100 90 100 78 68 60 51 49 51 52 53 56 66 72 68 63 60 55 53 51 47 46 41 33 34 38 43 47 48 57 71 93 96 88 43 11 6 5 5 6 8
34 37 38 40 39 40 75 98 96 90 93 62 64 59 52 49 57 59 61 69 69 62 58 52 47 42 36 32 30 24 22 29 39 45 44 45 58 78 48 26 16 9 6 5 6 9 14 20 29
34 34 37 41 47 47 47 56 65 68 74 74 81 77 70 71 79 81 74 70 64 61 51 39 33 34 33 27 24 32 42 46 46 47 46 40 30 18 13 10 10 9 9 12 16 23 36 67 82
31 31 33 34 42 43 41 37 46 48 56 70 72 52 68 65 73 67 67 55 40 36 39 40 38 29 28 33 41 50 53 52 47 41 30 18 14 13 13 11 10 13 19 27 54 75 81 88 82

GFSSGP_500_rhum_021.txt.gz
RH
69 63 41 42 44 53 95 88 98 98 83 94 54 53 71 28 23 22 30 43 31 34 30 23 7 6 8 7 7 6 4 8 10 7 3 2 2 3 4 5 6 5 5 7 9 10 7 4 7
65 44 38 39 28 52 86 84 83 96 98 79 81 49 23 7 17 7 7 36 21 20 10 5 7 8 8 9 8 5 8 9 5 4 4 5 5 5 5 5 6 6 5 5 5 5 6 7 6
80 36 37 14 55 90 84 96 100 85 78 90 49 4 4 7 9 9 6 18 16 5 7 8 9 10 9 8 6 7 6 4 4 5 6 6 6 6 6 6 7 8 8 8 8 8 8 6 6
96 41 57 91 95 88 76 83 99 94 94 76 18 3 6 13 11 9 9 4 5 7 8 10 7 3 3 4 4 4 4 4 5 6 6 7 8 8 8 9 9 10 10 10 11 10 9 9 8
51 68 76 97 87 95 98 97 84 95 89 44 17 19 11 5 4 5 5 5 4 8 9 4 2 2 3 3 4 4 5 6 6 8 9 10 10 13 17 21 23 25 25 24 23 22 22 20 15
72 42 92 87 78 98 84 82 76 65 78 65 29 5 5 5 3 2 4 4 7 5 2 3 4 5 5 6 6 7 8 8 9 10 10 11 11 12 14 17 23 28 30 28 30 28 28 29 29
48 87 96 83 94 94 88 97 91 74 62 31 5 5 4 4 4 3 5 4 3 3 4 4 5 6 6 7 8 9 9 9 9 9 10 12 12 15 18 24 27 28 29 31 30 29 28 30 32
98 93 85 94 96 92 95 88 42 25 12 8 5 7 3 4 5 5 3 4 4 4 5 6 6 7 7 8 8 7 7 8 9 10 14 17 21 27 27 30 34 36 34 34 33 29 29 32 31
97 100 95 86 96 96 95 75 19 9 11 8 6 10 3 3 4 4 4 4 5 5 6 8 8 8 7 8 8 9 13 16 19 21 24 27 32 33 35 36 40 37 36 38 40 40 38 36 37
78 82 96 97 90 85 71 37 16 18 12 8 10 8 4 4 4 5 5 5 6 7 8 9 6 8 11 15 20 22 23 24 24 22 22 28 25 27 30 29 32 36 39 40 38 37 38 41 40
66 67 67 78 73 62 33 11 10 9 6 6 11 5 5 5 5 6 6 7 7 7 10 11 14 20 21 17 15 19 20 28 34 30 26 28 31 32 30 33 36 39 41 44 45 42 41 41 42
64 61 61 58 58 52 12 8 4 4 6 6 7 8 7 6 6 6 6 8 10 15 14 16 15 18 15 13 9 10 11 16 28 32 32 34 38 43 46 46 44 42 41 40 38 39 38 32 29
41 28 42 60 44 11 5 5 7 8 8 7 7 8 10 9 8 10 12 12 15 14 14 19 19 19 44 38 22 22 22 20 24 38 40 39 43 44 43 41 42 41 40 40 39 37 34 25 17
12 6 3 3 2 2 6 7 8 10 11 9 8 8 9 10 12 15 13 12 14 15 22 25 70 66 73 92 44 43 33 39 34 42 40 39 40 38 41 43 42 39 35 30 30 27 25 20 18
2 5 6 7 9 10 11 12 8 11 12 13 11 8 12 14 13 12 14 12 26 19 19 43 24 92 91 88 66 58 68 59 43 30 33 33 36 39 47 44 35 29 24 22 21 19 17 18 20
9 13 10 21 18 14 12 10 19 14 10 10 11 13 12 13 11 11 14 21 22 29 11 16 17 78 73 79 85 76 78 65 40 36 28 30 36 48 48 40 28 25 23 23 24 24 22 20 20
80 98 85 82 31 14 14 11 16 13 14 13 12 14 17 15 11 8 13 30 27 24 20 18 22 36 45 79 54 66 52 54 54 41 37 37 38 41 39 32 29 31 31 28 28 29 28 29 30
84 99 86 75 32 22 23 23 62 15 21 24 30 30 22 16 14 17 21 25 30 37 31 18 24 37 52 46 51 54 56 60 52 48 50 48 42 39 38 37 34 35 32 32 35 33 32 31 29
84 78 75 49 20 22 23 36 34 22 22 32 29 25 23 20 20 24 27 28 38 53 46 36 38 50 44 36 47 56 64 59 55 50 47 42 43 45 46 44 41 38 37 36 34 32 30 30 30
84 62 47 12 18 22 20 22 24 25 31 36 24 27 27 28 28 31 36 41 42 50 42 48 64 65 46 48 57 63 67 62 60 60 56 51 46 43 42 39 37 36 35 33 30 29 26 27 32
21 23 28 23 16 20 20 25 20 25 46 54 51 66 48 34 33 41 46 46 49 42 44 62 63 58 53 56 61 63 63 61 61 58 51 48 48 43 40 36 29 22 18 17 19 21 23 30 38
16 15 17 14 15 19 18 27 21 22 21 45 55 81 46 57 51 46 50 49 48 48 55 53 46 58 67 67 66 62 63 63 56 53 53 49 45 38 32 29 24 24 23 24 27 30 32 32 34
21 23 21 21 21 21 22 27 90 79 48 44 58 55 81 57 42 31 38 40 40 44 49 54 57 53 54 64 67 65 64 63 61 52 50 45 37 31 28 24 25 28 31 34 34 38 41 45 58
14 12 12 12 12 12 23 49 78 90 86 78 75 99 88 93 45 42 43 47 47 49 54 68 75 73 63 56 54 56 52 44 40 35 28 25 26 30 32 34 38 38 41 42 44 50 55 51 51
17 19 21 24 59 40 46 84 92 89 65 55 57 59 57 48 51 58 49 45 43 48 57 62 71 75 69 68 62 46 36 30 25 24 26 27 33 38 42 45 43 43 44 42 36 28 18 13 10
20 21 21 27 36 48 54 52 80 83 81 88 92 94 86 86 70 65 69 66 66 66 67 68 68 70 63 53 47 39 33 29 29 29 34 42 44 44 47 48 44 37 26 14 8 6 6 6 6
30 32 32 33 35 39 45 64 92 95 95 98 99 95 88 89 54 54 67 63 65 66 68 66 52 40 33 30 27 27 27 27 27 32 44 49 50 46 42 31 17 9 8 8 8 8 8 8 11
32 32 33 32 33 39 51 68 64 62 76 78 75 98 90 58 58 80 89 83 76 62 47 41 36 31 29 29 28 29 33 38 36 41 50 48 40 25 11 9 9 10 11 12 12 13 16 19 27
23 23 26 28 28 32 36 45 54 57 54 59 58 62 62 65 86 88 70 53 49 47 43 40 34 34 32 34 37 39 44 42 40 42 42 28 12 9 10 12 13 14 15 17 19 21 24 56 80
24 24 23 25 30 31 32 40 50 51 56 70 99 98 79 90 83 61 61 52 49 48 45 40 37 32 31 31 31 34 44 43 38 35 14 10 10 11 12 14 16 18 21 21 22 28 85 82 62

GFSSGP_500_rhum_024.txt.gz
RH
90 86 69 58 69 88 96 86 78 67 70 81 81 74 78 72 68 62 46 35 50 48 33 22 12 5 7 7 7 5 3 5 6 3 4 5 5 6 5 6 6 6 5 6 6 6 5 5 5
91 81 92 63 61 73 77 96 65 98 75 82 96 94 96 94 72 41 18 38 22 47 22 8 5 7 8 9 8 5 6 6 4 5 6 6 7 7 7 8 8 8 9 9 10 10 9 8 6
30 66 40 30 79 60 87 97 88 81 90 96 97 95 93 83 63 27 18 20 30 25 6 5 7 8 7 5 5 5 5 4 5 6 6 7 8 9 11 10 9 9 8 9 10 11 10 10 9
79 85 40 38 54 60 75 82 78 98 74 92 77 80 77 52 5 6 6 11 15 5 5 6 7 3 2 3 3 4 4 5 6 6 7 8 10 12 15 16 17 18 18 19 19 20 21 21 17
94 54 70 76 92 79 95 97 93 79 91 89 74 92 68 21 14 9 5 4 4 5 6 5 2 2 3 4 4 5 6 6 6 7 9 10 11 12 13 14 19 22 24 26 28 29 29 28 28
94 93 85 88 79 89 91 92 92 80 56 51 76 79 35 6 5 4 6 6 5 7 4 3 4 4 5 6 6 7 8 9 10 10 10 10 10 11 12 14 17 20 23 25 26 27 27 27 28
88 95 94 90 92 94 94 98 73 57 40 33 73 76 28 4 3 3 3 3 5 3 3 4 5 6 6 7 8 9 9 9 9 10 10 11 14 16 19 24 25 26 28 28 29 28 27 27 29
62 76 91 95 95 86 97 97 79 60 54 47 16 11 4 5 6 4 5 4 3 4 4 5 6 6 7 8 9 9 9 11 14 17 21 22 23 24 23 22 19 20 24 24 25 30 34 33 32
86 97 90 88 97 78 87 90 84 83 68 14 6 10 4 4 4 6 5 4 4 5 6 6 8 9 9 11 12 17 21 21 22 25 25 23 26 27 24 24 26 28 29 30 32 32 33 34 35
98 90 78 97 97 96 94 90 77 54 27 12 8 8 3 4 4 4 4 5 5 6 8 7 9 9 12 20 26 27 22 18 16 20 28 29 30 33 36 37 37 35 34 34 35 34 36 37 38
97 92 82 87 96 98 79 62 30 22 11 9 10 9 5 4 4 5 6 6 7 9 10 9 13 17 24 28 26 22 18 15 19 19 25 29 32 32 33 34 33 32 32 34 35 36 35 35 37
79 72 66 78 89 84 62 26 5 6 5 6 7 6 6 5 5 6 7 8 8 11 15 14 18 26 23 27 37 44 34 28 25 16 18 21 29 28 31 31 33 35 38 38 36 36 37 37 35
66 70 71 64 57 55 41 8 6 8 8 10 10 8 7 7 7 8 10 12 14 17 13 20 33 58 60 78 76 67 72 51 48 46 45 34 27 36 34 33 29 32 38 35 32 27 22 22 24
57 56 38 47 55 16 5 4 8 9 9 10 12 10 9 9 10 12 11 10 11 17 21 31 92 41 62 66 85 73 67 72 54 45 44 30 37 38 37 38 37 38 38 32 25 23 21 20 20
42 4 4 8 8 8 11 10 12 9 11 9 7 8 10 14 15 13 11 12 14 12 10 18 20 76 55 60 60 73 81 58 52 37 37 38 42 47 50 50 44 38 35 33 31 30 30 29 27
5 7 16 16 13 14 14 13 46 19 10 8 10 9 10 11 10 8 11 27 16 17 16 23 30 53 52 49 69 71 66 53 52 48 37 47 51 52 50 46 42 41 40 36 34 34 33 32 32
34 14 30 21 47 21 18 21 26 29 10 11 12 10 9 11 11 11 13 15 22 23 22 37 76 72 68 48 60 51 43 54 51 47 53 54 53 47 46 46 45 41 40 40 39 38 36 35 34
75 46 21 31 41 34 31 20 18 12 20 18 17 17 15 17 18 16 17 15 27 40 58 85 65 75 68 46 42 60 60 50 52 57 60 63 57 53 50 47 48 47 44 40 37 30 22 15 13
90 78 54 48 37 33 50 37 19 17 17 22 26 32 27 28 24 22 31 45 73 71 65 82 61 46 44 36 40 55 51 58 64 66 64 60 56 55 56 55 47 37 30 22 18 15 15 14 13
94 82 66 32 34 44 28 24 22 24 21 20 28 36 31 69 63 48 53 67 66 92 85 51 45 39 39 38 46 59 67 72 68 68 68 68 67 64 52 36 29 21 18 17 17 17 17 19 20
90 79 59 56 30 29 21 19 18 16 18 26 51 64 91 100 98 92 88 72 76 72 60 58 51 48 50 55 60 64 73 78 79 78 77 72 57 42 32 27 22 20 20 22 23 22 23 23 22
23 31 45 33 20 20 18 22 20 18 20 21 22 36 44 100 96 93 79 78 70 56 51 52 56 58 57 57 61 72 80 88 90 86 73 55 44 38 34 29 28 30 30 30 27 26 24 23 26
16 16 18 20 23 24 24 27 27 31 27 30 55 100 100 99 99 100 100 95 66 61 63 62 56 54 56 64 72 80 81 72 54 44 35 32 34 31 27 28 28 29 34 35 31 28 31 38 38
23 19 16 14 13 13 16 18 33 40 51 78 96 97 90 82 95 95 79 66 89 86 85 67 59 60 64 71 74 56 37 30 26 22 26 34 34 33 34 35 37 34 28 26 29 30 24 17 12
13 18 21 21 25 42 34 44 50 86 78 82 66 47 52 59 57 72 84 98 79 62 65 71 72 74 74 54 36 33 29 28 29 34 36 32 30 33 34 33 28 29 30 21 13 9 9 9 9
19 20 22 25 28 38 34 45 49 34 61 38 50 67 84 95 99 74 58 83 61 60 66 64 50 41 38 34 32 33 32 29 27 24 24 25 31 35 32 30 29 18 10 10 10 9 9 8 8
27 31 31 31 34 36 36 36 35 35 45 66 99 98 94 67 82 72 80 72 70 68 46 43 41 37 33 31 29 28 28 29 27 28 31 36 38 34 32 20 10 10 10 8 9 9 14 13 15
25 21 22 24 25 29 26 30 33 41 50 45 46 51 57 56 54 67 73 73 59 45 47 48 46 38 37 37 37 37 35 31 30 31 36 37 36 26 12 10 9 8 10 11 22 17 14 16 19
22 22 22 22 23 23 26 29 31 31 31 35 38 39 43 57 70 87 96 65 53 52 55 54 45 41 38 37 38 35 34 34 36 38 36 31 17 11 10 8 8 18 34 54 37 33 17 22 34
23 21 20 18 20 22 23 25 24 25 29 36 48 52 65 84 88 81 56 61 64 63 58 49 45 41 40 40 39 35 35 41 40 37 28 17 13 10 8 18 51 67 100 97 77 85 68 100 95

GFSSGP_500_rhum_027.txt.gz
RH
86 96 75 87 90 95 89 59 57 59 54 55 71 86 97 92 94 98 95 79 37 58 64 39 23 9 5 6 7 7 4 4 4 4 5 6 7 8 8 9 9 9 9 10 9 9 10 10 11
87 93 90 64 89 61 85 84 89 92 82 66 69 81 93 90 73 90 97 90 75 37 51 22 8 5 7 8 8 7 5 5 4 5 6 6 7 7 8 8 9 10 9 10 10 9 9 10 11
47 73 90 89 82 95 94 89 97 96 94 83 91 82 78 80 93 68 65 61 25 28 28 9 5 6 6 4 4 5 5 4 5 6 6 6 8 10 12 14 14 15 15 14 14 16 19 19 20
40 46 73 59 41 53 78 92 99 98 95 96 97 98 97 88 67 81 92 60 11 16 9 5 5 4 3 3 3 4 4 4 5 6 7 8 10 11 12 14 16 18 19 21 22 23 24 24 24
44 43 46 66 40 82 70 95 91 96 95 95 96 96 93 86 75 80 69 15 11 6 4 5 4 2 3 3 4 5 5 5 6 7 8 9 10 11 11 11 12 14 16 20 24 27 27 28 29
93 78 89 73 88 97 97 63 77 97 94 96 94 85 85 70 47 17 13 10 5 4 5 4 2 3 4 4 5 6 6 7 8 9 10 10 10 11 12 14 16 20 24 26 28 29 29 29 27
100 91 58 78 100 82 75 85 91 95 95 97 94 80 70 58 56 28 5 5 4 5 5 3 4 5 5 6 7 8 9 9 9 9 11 14 18 22 23 25 28 26 25 22 23 24 24 25 28
94 97 85 92 74 73 93 93 96 96 96 95 85 37 36 41 21 4 3 3 4 5 3 4 5 6 6 7 8 9 9 10 14 18 20 21 21 19 19 23 24 24 25 23 25 28 31 31 34
100 95 93 89 91 94 91 96 96 95 93 94 65 12 12 8 5 7 7 6 4 4 4 5 6 7 8 9 9 11 17 21 20 20 20 20 25 27 31 31 36 37 36 34 34 32 31 32 32
77 75 96 96 95 89 94 94 82 49 26 33 14 10 8 4 4 5 6 5 5 5 6 6 8 9 10 10 18 23 20 16 20 20 20 23 26 29 33 32 32 34 32 32 33 32 33 34 34
77 83 92 90 80 86 86 70 50 20 8 9 10 10 4 4 5 5 5 6 6 6 7 7 10 15 19 21 22 23 27 40 50 49 36 35 28 26 32 25 24 28 30 30 33 37 38 38 37
97 94 100 100 92 88 79 69 59 6 5 7 9 9 7 7 6 6 6 8 8 7 9 16 20 22 29 43 32 29 77 87 87 69 58 48 49 47 26 22 24 28 31 32 30 36 36 31 29
88 81 80 72 68 76 69 57 9 10 9 9 9 9 8 8 8 8 8 10 12 14 16 20 26 38 41 41 70 78 94 70 72 78 66 43 18 20 26 31 35 38 37 36 35 35 33 28 26
89 73 66 53 54 57 22 5 8 11 10 9 10 12 10 9 9 11 12 14 17 19 25 30 39 34 33 42 67 61 48 39 54 53 53 45 29 38 44 45 40 37 36 34 33 32 33 33 30
63 62 32 35 27 6 5 7 12 10 12 13 12 10 10 9 9 13 15 20 18 18 23 27 26 34 66 66 60 54 38 31 35 39 39 40 45 53 54 49 46 44 42 41 39 40 40 41 39
63 34 25 9 7 10 11 13 19 18 13 10 8 8 9 11 13 16 18 20 26 20 25 53 68 85 88 72 64 55 56 48 45 32 37 48 52 54 54 52 53 52 51 51 51 48 44 34 28
19 29 15 14 15 14 17 20 33 42 28 10 7 10 12 12 12 17 19 18 24 20 25 62 99 92 98 89 74 65 46 44 55 64 53 50 55 58 58 57 58 58 54 42 30 21 15 13 12
13 24 19 30 46 23 21 21 19 20 20 12 15 15 14 16 16 15 19 26 29 42 64 89 99 98 99 85 70 68 48 66 77 71 55 58 65 68 67 61 46 29 22 18 16 15 15 13 11
49 27 44 31 34 52 37 20 16 16 17 21 22 24 20 21 33 59 47 37 39 45 67 96 98 82 78 56 68 44 47 52 55 54 60 72 72 67 50 32 23 18 18 18 16 13 13 13 12
72 37 33 33 35 34 19 19 18 16 15 15 14 17 48 71 89 86 90 85 94 94 99 82 65 56 46 42 39 45 50 53 58 68 78 76 66 46 33 26 22 22 22 21 20 19 18 18 17
73 69 73 68 56 43 35 18 17 18 18 22 36 40 86 89 75 52 94 96 100 98 90 80 64 50 48 51 66 65 64 71 81 88 79 51 38 30 30 32 35 35 33 32 26 23 22 22 21
54 62 71 65 56 56 36 23 16 18 27 52 40 38 62 90 83 89 97 95 97 96 86 76 76 79 80 93 90 77 82 89 86 73 54 55 58 55 51 43 39 36 27 24 24 25 26 25 22
23 25 22 18 17 20 23 22 22 22 23 26 41 49 58 93 100 88 77 85 94 94 85 74 88 79 69 72 80 85 96 98 74 56 48 45 44 42 40 34 28 29 30 31 31 29 26 21 17
25 26 26 25 23 23 20 18 14 16 21 30 53 77 96 98 95 78 78 92 92 99 98 93 94 82 86 92 94 85 63 52 49 46 40 36 35 32 29 28 29 31 31 28 25 21 15 11 10
21 16 16 17 20 20 20 30 36 35 40 54 43 99 84 62 92 100 91 99 98 99 98 100 89 78 73 58 52 47 40 36 33 29 31 32 28 27 26 30 34 32 28 22 17 12 10 8 8
20 21 19 21 23 22 26 26 25 29 29 30 33 38 42 60 88 99 95 93 98 89 84 64 69 47 44 43 40 37 32 29 31 32 28 24 24 26 33 32 30 29 22 17 14 11 9 14 17
26 29 30 27 22 21 19 19 22 23 24 24 29 32 44 48 50 56 57 52 54 61 63 49 44 44 46 43 39 35 35 36 31 25 21 20 27 34 35 34 30 25 17 14 10 10 16 42 25
25 20 21 21 21 22 20 19 20 19 18 23 29 34 39 44 45 43 50 56 59 42 45 52 54 53 49 46 40 38 34 30 24 20 18 22 31 30 31 34 26 18 12 9 18 51 98 99 66
21 21 22 20 19 18 16 17 18 20 19 19 22 26 31 35 39 42 41 41 46 54 58 57 56 54 50 45 42 35 31 25 20 17 20 26 27 28 32 27 15 9 10 69 41 93 100 100 100
23 23 21 17 16 15 16 17 16 18 20 20 19 19 22 24 29 35 43 50 59 68 65 61 57 54 49 43 39 36 27 20 20 22 28 31 31 34 25 15 10 8 15 27 66 100 100 100 100

GFSSGP_500_rhum_030.txt.gz
RH
64 91 80 84 71 88 95 93 87 66 55 43 37 49 69 68 88 93 95 96 100 99 91 85 45 42 10 4 6 7 6 4 5 5 6 6 7 8 10 11 11 11 11 12 11 11 12 12 14
95 91 77 83 68 82 95 92 82 79 71 86 81 96 92 96 97 94 96 96 95 89 61 30 20 15 5 6 8 8 7 5 5 5 6 6 7 9 12 12 12 12 12 12 12 12 14 17 19
89 80 81 89 74 79 90 96 92 95 96 96 94 91 92 96 96 95 90 75 73 79 68 15 11 8 6 7 5 5 5 4 5 6 6 6 7 8 11 14 15 15 16 16 16 17 18 19 20
83 77 62 82 85 76 85 95 86 93 93 95 96 96 85 92 94 89 76 79 78 71 52 11 9 5 6 4 4 4 4 4 5 6 6 6 7 10 11 12 12 12 12 13 16 19 20 21 22
83 93 43 83 86 82 85 94 95 96 98 96 96 97 96 96 95 83 55 31 31 30 20 7 4 7 3 3 4 4 4 5 6 6 6 8 9 10 10 11 12 13 14 16 20 23 23 22 19
95 95 36 52 66 51 70 90 96 93 98 95 95 95 94 92 77 70 60 35 21 12 5 4 7 3 3 4 4 5 6 6 6 7 9 10 10 11 14 19 20 20 22 21 22 20 20 20 19
97 89 47 47 41 49 93 93 89 97 93 95 94 71 68 52 42 49 40 21 8 5 5 8 5 3 4 5 5 6 7 8 9 9 9 12 16 20 19 18 18 23 25 25 25 26 25 26 27
95 99 73 67 73 93 79 95 97 97 96 96 91 81 65 33 15 17 11 4 4 4 6 6 3 5 5 6 7 8 9 8 9 15 21 21 16 14 16 20 24 25 29 29 32 30 29 28 26
86 100 96 82 92 97 100 93 94 93 95 89 74 38 24 13 9 6 5 4 4 5 4 4 5 6 6 8 8 9 10 15 22 21 20 22 23 21 18 20 26 29 27 25 29 31 28 29 30
70 99 91 89 96 98 92 96 97 94 40 32 22 26 14 9 5 5 7 6 5 5 5 7 7 9 9 9 9 13 18 26 26 43 62 73 62 43 43 39 30 31 24 23 25 28 29 28 33
78 100 94 97 96 95 96 97 64 53 12 8 13 16 10 5 5 5 6 6 6 7 8 9 9 10 14 16 17 23 25 30 38 60 79 84 77 62 44 38 37 28 28 29 29 34 38 41 42
92 92 98 97 99 97 83 53 51 50 9 7 9 12 8 8 7 6 6 6 7 9 9 11 16 18 20 21 31 43 59 50 70 89 57 73 62 61 47 24 25 30 35 38 37 37 38 40 39
93 92 96 92 91 71 71 62 59 20 9 8 9 10 8 9 8 8 7 9 11 13 15 18 18 22 28 43 51 52 80 85 70 49 50 43 32 33 36 32 28 31 32 38 41 40 40 40 40
96 86 86 77 75 54 62 60 37 10 11 10 10 11 11 11 12 14 17 18 17 17 16 20 23 29 30 26 26 51 70 64 57 55 50 40 26 25 27 32 30 32 38 43 44 44 44 44 46
91 83 83 64 61 57 33 19 8 11 15 15 14 14 15 15 19 21 18 16 19 19 21 31 43 52 66 75 70 86 87 74 59 45 37 31 26 33 35 37 43 49 49 50 52 55 55 52 43
73 74 61 34 30 6 5 6 11 18 19 17 15 13 12 16 19 21 23 27 29 32 26 50 69 67 83 98 98 96 97 94 90 64 36 32 48 48 46 52 56 57 57 54 50 34 21 19 18
62 54 32 14 4 6 11 19 28 42 30 23 15 12 11 16 18 19 21 24 24 26 27 51 66 72 88 98 95 97 92 74 65 43 43 53 49 50 53 59 60 54 40 24 19 17 16 14 14
34 37 13 6 10 13 13 13 22 41 41 31 21 21 20 18 20 18 23 29 50 38 38 55 68 96 97 95 98 69 56 49 41 45 48 51 52 55 59 55 38 24 22 20 21 21 21 18 17
14 18 13 14 11 12 14 19 20 26 26 26 26 23 24 19 23 33 39 34 34 53 57 73 88 97 97 92 70 66 50 49 56 64 68 64 62 61 47 29 26 27 28 24 21 21 20 20 18
10 27 34 40 22 25 28 27 24 21 18 17 16 15 19 20 53 63 53 50 70 84 92 98 82 54 64 60 54 61 74 70 64 67 66 68 67 51 38 33 30 28 27 27 28 27 26 24 20
65 32 44 58 61 44 39 24 23 19 16 13 13 16 19 25 53 67 70 95 100 95 72 65 82 73 68 81 71 82 68 62 70 70 62 47 40 38 42 47 47 46 42 32 27 23 18 15 15
70 65 32 47 56 51 45 33 20 14 15 18 21 22 24 30 40 42 80 91 80 70 56 53 67 91 90 72 73 76 67 76 83 76 59 60 66 67 58 39 33 27 22 19 16 14 13 14 16
27 27 26 30 34 27 20 18 14 19 21 21 20 25 34 41 79 74 97 84 68 56 59 88 89 95 95 94 81 88 85 76 59 62 66 58 46 34 30 25 20 16 14 15 16 17 17 19 24
20 19 18 18 20 20 19 18 13 13 16 17 24 34 47 38 83 84 66 58 76 74 96 99 98 75 75 88 97 96 82 62 58 49 40 35 32 27 23 18 16 17 18 19 21 22 26 32 27
22 24 20 18 14 16 17 18 23 41 33 33 33 34 34 37 49 53 62 64 100 96 82 57 49 62 83 97 70 52 48 47 44 39 37 31 28 25 19 18 20 24 27 34 39 38 32 28 23
15 13 18 19 18 21 23 19 19 21 22 22 25 28 32 35 35 34 40 42 41 40 40 43 53 77 84 57 49 48 47 44 42 39 31 28 24 21 23 27 29 36 42 42 37 33 27 15 8
22 22 25 29 23 19 19 20 22 20 20 20 20 22 25 29 30 35 36 35 35 38 43 56 69 58 51 53 53 51 51 51 42 34 31 27 25 30 33 33 38 37 41 39 36 22 10 6 13
27 30 25 21 20 20 17 17 16 18 18 18 18 18 19 20 21 23 26 32 40 46 50 52 54 62 59 59 59 62 55 40 35 34 32 32 36 39 37 35 37 43 41 37 24 8 7 12 19
28 21 22 22 18 16 15 15 16 15 15 16 18 19 20 21 20 20 22 24 28 34 43 52 62 64 64 65 64 53 42 40 40 37 37 38 42 42 43 45 49 45 40 19 7 9 11 17 66
22 23 23 21 18 16 16 16 15 15 14 15 16 17 18 21 23 24 23 24 26 32 43 54 64 70 69 69 57 46 48 48 44 45 44 46 44 48 54 56 51 37 16 8 10 14 20 58 73

GFSSGP_500_rhum_033.txt.gz
RH
20 18 16 28 48 69 89 90 81 93 90 41 26 32 38 37 40 44 60 93 94 96 97 97 69 23 14 20 5 6 6 4 4 5 6 7 8 10 12 12 12 12 12 13 13 13 13 14 16
24 19 21 38 64 69 78 85 97 95 85 80 37 40 52 52 58 70 83 97 96 96 83 65 61 22 16 8 6 8 7 5 4 6 6 7 8 8 10 12 14 14 14 14 12 13 14 14 15
44 24 41 45 50 79 67 62 84 95 96 96 96 95 95 94 97 97 95 96 91 74 62 56 39 16 12 6 8 6 5 5 5 6 6 6 6 7 9 11 12 12 12 11 12 12 14 16 17
72 64 56 68 65 61 59 70 98 98 92 96 97 93 95 96 96 97 94 91 44 35 33 28 22 17 6 7 4 4 4 5 5 6 6 6 6 6 9 10 10 10 12 14 14 15 16 15 15
82 74 73 73 53 68 84 82 97 93 96 99 94 94 97 95 96 96 94 64 34 37 30 24 15 6 8 4 4 4 4 5 5 5 5 5 8 9 9 11 14 16 16 14 14 14 13 12 13
95 85 78 75 59 76 82 84 92 100 96 97 93 96 95 94 96 91 85 45 24 26 14 8 6 9 4 4 4 5 5 5 5 6 8 9 9 10 14 17 14 14 15 18 19 19 20 20 20
82 89 94 90 47 73 70 75 98 95 94 94 96 96 93 93 89 92 92 74 52 14 9 7 7 7 3 4 5 6 6 6 8 9 9 9 16 19 17 14 16 17 17 20 18 18 16 17 18
76 81 99 81 52 47 45 76 99 97 96 95 97 90 70 56 40 22 10 7 8 9 9 7 9 4 5 7 7 8 7 9 9 10 14 19 16 19 32 36 33 32 23 18 20 18 16 13 12
70 92 96 96 100 98 82 96 94 96 97 95 94 66 33 17 10 7 7 6 7 9 8 7 4 7 8 8 8 8 9 10 15 22 21 28 56 79 77 62 48 38 42 34 30 26 24 22 20
89 95 99 97 97 80 96 97 96 96 95 94 58 32 18 11 7 5 10 10 9 8 8 8 8 9 8 9 9 9 15 20 27 27 31 49 71 60 60 68 67 41 28 26 28 34 36 37 37
84 93 95 96 96 91 97 88 80 65 70 25 10 14 13 8 6 9 9 9 10 9 9 9 10 10 9 13 17 19 24 42 48 45 50 80 76 49 48 45 39 50 49 31 27 33 38 39 39
100 99 90 98 96 98 95 86 64 30 8 6 8 15 9 9 9 8 8 10 10 12 11 10 10 13 16 18 19 25 27 41 45 60 75 60 52 41 34 28 21 22 20 22 27 31 37 41 43
95 90 96 93 95 83 93 71 63 18 9 9 12 12 10 9 10 12 13 13 11 11 14 15 15 17 21 23 28 32 43 51 55 78 63 58 50 45 35 30 23 24 30 30 31 37 43 46 46
98 96 94 89 73 74 62 61 61 16 11 10 10 10 12 16 18 20 19 18 16 15 15 25 22 19 20 35 37 41 57 69 84 86 99 96 74 46 32 31 28 31 35 39 43 50 51 52 53
96 91 84 83 90 71 66 54 34 34 15 14 15 16 16 18 23 24 21 17 14 13 51 19 37 41 44 57 80 92 100 99 94 97 81 79 53 38 33 37 38 42 44 48 53 55 55 46 30
97 90 76 50 41 56 31 14 24 15 13 19 23 19 16 19 24 28 21 16 18 46 27 51 77 88 96 92 93 99 98 95 96 87 55 51 45 44 48 49 51 51 59 59 48 32 24 22 20
69 56 58 38 37 18 10 14 22 18 16 20 31 23 22 24 26 26 27 25 27 34 27 36 68 79 85 95 97 99 96 96 82 65 54 45 41 43 50 50 52 54 46 29 25 23 22 21 21
61 61 52 23 14 12 14 28 36 66 50 35 38 29 23 25 25 24 25 30 40 50 59 66 67 79 85 96 95 89 65 70 72 58 57 49 44 51 56 55 53 38 30 28 27 26 25 24 22
37 39 28 18 11 14 17 20 32 52 38 31 36 30 25 22 19 17 17 19 30 38 61 42 71 87 96 100 58 45 58 62 64 70 67 50 62 65 56 42 35 32 31 31 31 29 25 20 16
40 40 58 17 23 22 24 24 26 26 24 22 20 20 19 19 17 24 16 12 27 61 63 97 86 71 51 38 39 43 53 62 74 62 46 57 55 45 41 39 42 47 49 42 31 21 17 16 16
39 77 81 57 65 44 33 26 26 24 18 16 16 18 18 20 26 28 23 30 63 84 68 64 60 48 39 54 66 72 72 75 69 66 70 80 58 58 59 62 59 45 35 27 21 17 17 19 17
46 25 20 28 42 32 26 20 22 18 13 16 20 21 21 23 23 33 41 84 78 97 74 60 56 52 56 67 84 82 84 60 65 79 80 72 62 64 59 45 38 29 25 22 21 21 19 18 18
66 82 76 58 27 24 16 14 14 18 17 17 16 17 18 25 38 42 74 91 89 75 51 62 91 75 74 100 98 57 52 61 75 65 62 62 58 49 45 37 30 29 28 26 25 24 26 26 27
44 31 29 28 20 14 18 16 13 18 18 23 29 29 34 40 44 37 51 64 52 46 46 70 96 93 54 49 42 52 62 70 66 62 58 53 50 47 37 32 32 32 32 28 30 31 32 29 30
35 21 18 20 21 14 16 17 23 29 30 24 24 24 27 29 30 30 30 34 33 33 36 35 34 34 38 44 54 63 60 61 61 58 54 53 47 40 38 36 38 40 37 38 37 36 36 33 35
19 22 23 13 16 19 23 18 18 17 17 16 16 16 17 18 20 21 21 20 21 24 25 25 28 34 42 47 50 52 56 58 57 60 58 48 43 42 41 44 43 41 42 37 36 37 38 40 30
21 12 16 22 26 19 18 18 19 19 18 17 17 17 18 18 18 19 19 20 20 20 22 24 27 31 34 41 50 56 60 64 65 64 56 50 49 46 49 45 42 40 38 40 40 45 42 24 8
13 21 27 25 19 20 17 16 16 17 17 16 16 17 16 16 18 20 22 23 23 23 23 24 25 27 31 38 49 57 64 71 73 65 58 57 53 51 49 47 43 44 48 48 51 38 17 9 11
24 30 25 21 20 16 16 17 17 16 16 15 14 15 15 17 19 21 23 24 26 26 26 26 26 28 33 46 58 74 80 82 72 66 63 53 50 51 52 48 48 53 52 52 32 14 10 16 28
31 25 22 22 22 19 17 17 17 17 16 16 15 16 19 22 24 26 24 25 26 26 27 28 32 35 35 51 70 84 84 77 75 65 58 55 57 62 56 51 53 53 52 28 13 10 17 34 37

GFSSGP_500_rhum_036.txt.gz
RH
13 11 10 10 23 24 59 66 48 64 91 89 90 92 78 52 43 56 65 73 71 80 94 96 92 80 47 17 12 6 5 5 3 4 6 7 8 9 11 12 12 12 12 11 11 11 11 12 13
29 18 19 20 26 62 94 62 58 54 68 77 69 87 83 43 48 41 46 62 72 93 96 94 74 59 26 18 9 6 6 5 4 5 6 7 8 9 10 10 11 11 10 10 10 11 11 12 13
36 32 24 33 37 77 95 73 64 60 75 82 92 95 87 76 52 50 54 75 89 88 96 90 55 37 23 14 7 6 5 5 4 5 6 6 7 8 9 9 10 10 10 11 11 10 9 10 11
54 52 42 50 62 54 59 74 64 67 100 100 94 97 96 97 96 98 97 97 96 96 95 67 41 36 17 7 7 4 5 5 4 5 6 6 6 7 8 9 9 11 11 8 8 10 11 11 12
84 84 70 83 84 72 67 58 66 74 89 98 97 98 96 96 95 97 96 96 95 96 78 66 66 20 10 8 4 5 6 5 5 5 5 6 6 8 9 10 14 11 8 8 10 11 13 14 16
86 93 91 89 85 80 61 59 74 79 96 96 97 97 94 94 94 92 93 96 96 89 83 55 31 8 11 6 6 6 5 5 5 5 6 8 9 9 12 15 11 13 15 20 19 15 15 16 15
85 89 91 85 86 87 63 76 81 80 89 97 95 95 94 95 94 92 91 82 60 73 52 42 15 15 11 5 6 6 6 7 7 8 9 9 10 14 16 23 48 64 50 34 26 21 16 14 14
76 70 80 100 89 86 57 84 79 89 99 86 93 95 87 82 80 75 50 74 60 52 25 13 15 15 5 6 7 7 8 8 8 9 10 13 19 21 34 40 59 54 58 58 31 18 16 17 16
63 75 79 100 91 93 76 58 68 92 97 96 95 96 67 57 17 17 11 12 22 19 16 14 14 7 8 8 8 8 7 8 9 12 22 26 31 43 53 54 41 42 43 39 55 46 44 25 18
61 82 92 98 99 96 97 93 96 97 95 96 96 64 18 24 6 9 10 8 12 14 14 10 7 9 8 8 7 8 9 12 19 29 42 48 48 57 73 63 40 34 26 21 19 17 18 23 24
50 61 92 81 100 94 96 96 75 51 77 60 58 19 12 11 8 10 10 10 12 13 12 11 10 10 9 8 10 15 19 23 35 54 60 71 81 66 54 51 47 35 28 25 20 18 19 27 28
54 96 84 85 96 96 96 93 58 17 10 14 18 15 9 11 12 11 12 12 12 13 13 11 11 10 12 16 19 21 29 43 51 60 71 87 72 61 58 52 44 32 23 19 18 18 20 23 29
96 90 76 96 96 98 86 74 53 21 9 11 19 15 10 11 13 14 16 16 16 13 12 13 16 17 19 18 22 30 37 42 45 58 75 88 90 97 91 80 40 34 26 23 26 27 27 30 38
100 96 94 93 91 82 60 64 57 26 12 11 10 10 10 15 18 18 17 15 16 16 16 18 29 24 21 30 40 47 52 67 80 78 98 98 97 90 68 48 41 39 39 40 43 45 43 47 54
99 96 90 95 92 86 79 68 56 17 19 22 18 18 18 17 16 18 19 19 17 17 51 64 31 51 69 74 83 95 96 99 97 98 99 97 98 84 68 44 38 42 52 55 52 54 56 50 35
92 96 96 96 78 66 60 48 30 13 27 37 30 24 19 18 18 20 19 18 17 20 59 32 96 100 99 98 97 96 96 98 99 98 94 94 85 67 55 45 45 56 60 60 59 48 34 28 25
94 92 73 54 48 52 24 20 15 13 24 41 46 36 28 20 20 22 22 28 29 45 42 42 92 100 100 99 100 97 97 99 94 92 94 90 79 66 54 54 59 64 56 45 36 33 31 31 30
75 63 55 49 38 28 16 22 28 42 59 52 58 44 32 26 21 21 24 23 23 26 35 42 52 68 72 80 100 97 96 86 70 67 79 81 66 51 49 56 49 43 40 39 40 39 37 35 30
70 57 77 54 26 14 17 35 31 37 57 39 32 36 35 28 25 25 23 21 21 22 36 39 66 69 98 98 80 57 42 71 88 69 72 61 49 47 54 52 48 50 51 55 54 47 39 30 27
37 61 85 50 32 24 22 30 41 50 44 30 26 26 24 19 16 16 16 16 15 19 39 70 93 94 94 73 52 48 56 56 55 74 69 58 73 85 88 79 73 69 66 59 50 39 34 33 31
70 54 63 52 51 46 44 35 33 28 24 21 20 20 20 19 18 20 19 23 28 49 40 40 66 67 48 47 60 65 64 61 70 80 64 67 74 68 67 67 67 62 56 49 40 36 36 33 29
64 52 47 83 84 92 49 80 38 26 34 27 21 25 24 20 20 21 32 45 61 82 83 63 67 62 39 28 26 43 76 49 37 41 53 57 61 67 67 65 60 57 47 42 41 35 32 34 33
69 41 54 64 55 37 36 36 84 20 20 23 24 21 17 17 23 39 54 49 45 71 80 71 35 27 22 21 25 35 29 27 32 42 53 59 66 66 63 63 59 50 48 44 37 41 42 41 32
63 75 64 63 65 28 22 21 43 20 19 16 14 15 24 30 38 41 38 31 27 26 23 22 22 21 21 21 21 22 26 32 41 50 56 58 60 63 65 65 58 53 48 43 40 36 36 38 39
47 65 35 24 21 18 19 16 17 21 21 26 26 22 21 21 24 24 20 19 18 19 19 20 20 20 21 21 23 25 29 33 39 48 57 66 72 74 70 63 57 50 44 38 37 43 47 41 36
56 39 28 20 24 17 15 20 22 19 16 16 16 16 16 16 17 17 18 20 21 20 21 22 22 22 22 22 24 26 27 28 33 38 50 62 68 68 66 58 47 46 41 48 56 51 42 36 35
26 23 26 21 14 22 23 20 18 18 18 17 17 16 17 18 17 17 19 21 22 23 24 24 25 25 25 26 27 27 28 31 37 45 60 67 71 68 52 50 52 52 58 58 50 41 39 40 38
25 24 16 19 25 22 21 17 15 15 16 15 15 15 15 15 15 18 22 24 24 25 26 26 26 27 28 30 32 34 37 34 41 60 70 74 64 59 62 61 64 67 61 44 38 38 40 33 10
15 13 22 30 23 20 16 16 16 16 16 16 16 15 14 15 18 21 25 28 31 35 36 34 32 30 30 31 34 39 39 45 52 65 70 68 67 67 69 71 72 56 42 37 40 40 23 7 10
12 20 30 24 23 20 19 17 17 18 18 18 17 17 16 16 16 18 20 23 27 38 41 41 39 38 34 35 36 40 48 51 54 74 80 79 80 81 79 74 55 44 39 41 36 14 8 12 14

GFSSGP_500_rhum_039.txt.gz
RH
12 10 8 7 12 9 26 85 94 56 36 21 47 82 93 89 85 81 83 89 88 56 43 62 74 85 93 76 42 18 6 4 5 3 4 6 8 9 10 10 10 11 10 10 9 10 10 10 10
25 19 19 19 22 84 77 94 86 18 35 25 54 66 66 84 90 90 95 93 87 82 77 85 91 89 86 40 20 13 4 5 5 4 5 7 7 8 9 10 10 9 9 9 10 8 8 9 9
48 43 42 37 52 85 90 96 33 30 36 39 47 69 94 95 94 90 92 96 87 91 96 97 95 97 90 27 13 4 6 6 5 4 6 6 7 8 9 9 9 9 10 9 7 6 8 9 10
64 65 53 56 91 79 82 57 77 69 68 66 90 93 94 98 98 95 94 93 96 96 97 96 95 93 72 45 8 5 4 6 5 5 6 6 6 8 8 8 9 10 9 7 9 16 15 10 10
71 76 78 87 89 89 79 76 34 59 72 76 93 86 94 97 85 95 95 92 89 99 97 95 95 92 61 11 7 6 4 6 5 5 5 6 8 8 8 8 10 12 12 43 44 33 23 19 14
74 81 94 81 84 82 88 98 52 85 69 67 91 96 94 95 97 97 94 97 96 96 96 95 97 97 36 24 10 5 6 5 5 5 6 7 8 9 8 10 13 19 45 51 50 46 38 19 12
74 91 93 78 99 96 74 98 46 90 60 69 80 95 94 91 88 95 94 96 97 96 95 92 90 51 12 15 6 6 5 5 5 5 7 8 9 9 12 16 17 24 44 25 28 26 39 37 29
78 78 89 92 91 94 49 68 54 60 69 82 85 94 96 91 88 96 97 96 95 93 90 72 31 17 15 11 5 5 6 6 6 7 8 9 10 17 23 23 31 26 40 34 26 20 18 15 12
76 76 83 83 96 80 70 70 57 60 84 97 90 96 93 94 75 79 73 89 92 95 88 33 14 13 14 5 7 7 8 7 7 8 9 15 21 33 42 44 54 64 56 44 35 29 28 24 18
72 59 94 91 90 95 89 96 85 69 66 79 92 95 95 50 18 29 29 26 46 43 27 21 19 14 7 8 7 9 8 8 12 17 21 29 40 51 51 63 57 51 49 42 35 31 20 17 17
64 58 99 79 97 76 96 94 83 72 80 83 95 84 40 13 6 11 18 11 15 11 10 8 8 7 8 9 10 11 15 20 21 25 32 42 48 56 68 66 57 53 52 43 33 28 24 20 19
47 42 80 85 88 82 98 90 82 78 96 39 47 38 24 16 10 12 13 9 9 9 9 10 11 13 14 13 18 21 24 27 31 46 59 64 60 80 75 76 79 69 47 44 40 33 27 30 32
45 64 57 84 82 85 94 96 48 84 14 40 24 10 9 14 12 12 12 11 11 13 14 13 13 15 19 22 24 25 32 40 63 77 78 74 91 96 99 97 82 71 67 58 37 31 32 34 38
79 70 88 90 95 96 84 83 72 35 25 15 22 16 10 10 13 12 12 12 12 13 15 17 20 23 27 26 37 60 75 78 76 83 91 97 98 98 96 78 77 73 64 46 35 36 46 50 52
83 96 89 96 97 80 81 81 96 21 15 12 15 16 12 13 15 15 16 19 20 20 21 24 54 46 78 90 93 90 90 86 87 91 95 98 97 97 94 91 91 57 41 49 58 56 54 54 49
100 93 97 95 93 73 82 89 49 31 19 16 23 23 20 19 18 20 22 24 24 24 33 73 54 38 91 92 96 94 94 82 98 99 100 98 95 80 81 76 57 52 57 59 54 48 43 40 36
94 91 99 97 93 70 69 96 28 30 34 36 37 36 27 22 22 20 22 22 22 22 29 32 32 47 67 87 100 97 98 99 97 96 84 81 86 90 78 66 60 50 46 47 43 41 42 42 44
96 97 87 83 54 49 30 59 14 23 46 63 67 54 42 31 24 22 23 23 21 20 22 25 53 59 66 76 86 92 95 97 91 52 66 82 79 69 64 60 56 50 47 44 43 51 56 54 52
96 82 71 76 52 32 60 47 26 47 61 66 58 54 42 39 34 28 25 26 22 20 25 27 26 32 67 71 73 84 65 52 40 49 76 62 45 38 48 48 52 62 67 73 74 67 62 56 48
86 98 97 74 39 36 61 87 46 32 54 42 33 37 43 35 30 26 23 21 18 18 19 20 20 32 50 64 57 54 33 22 22 42 42 33 33 39 49 65 66 69 78 72 66 64 60 54 52
89 99 98 97 42 37 91 96 26 30 34 30 34 30 26 22 20 22 20 21 21 27 34 34 49 60 56 58 51 34 19 20 22 23 24 28 30 33 40 53 64 69 68 68 68 64 58 56 51
100 54 55 64 35 82 54 82 98 76 34 30 40 35 23 20 23 24 22 23 32 43 34 29 46 53 44 27 19 18 19 20 23 22 21 20 25 30 37 43 52 60 68 67 67 68 62 48 45
96 53 60 80 80 99 95 67 93 97 60 49 33 25 23 24 22 18 21 26 35 34 23 22 18 18 18 18 20 20 22 22 21 20 21 21 23 25 30 38 48 61 70 78 75 60 53 48 41
56 60 85 100 90 96 80 96 90 99 100 54 20 20 19 16 15 21 28 30 21 19 19 18 18 19 20 22 22 22 22 22 22 23 24 25 25 27 29 38 50 60 68 68 58 55 56 56 49
69 100 100 99 99 75 79 48 73 72 42 28 19 15 14 20 26 22 19 18 17 18 19 20 21 23 25 26 27 28 27 26 28 30 30 30 33 34 36 50 65 72 69 65 67 63 59 60 55
54 98 100 94 83 62 72 23 81 22 20 18 19 20 19 17 17 17 16 17 19 20 21 23 25 28 30 32 31 30 29 29 30 31 34 37 40 42 45 60 74 74 74 73 64 63 61 53 38
75 48 44 48 22 21 17 83 26 20 18 18 17 16 16 17 17 15 15 18 21 23 25 27 25 29 36 37 36 32 31 31 33 38 38 41 46 47 52 74 80 80 71 71 69 61 46 31 24
38 35 26 27 21 18 70 62 83 20 15 16 15 14 14 14 14 14 15 18 20 22 22 21 21 23 36 42 40 39 41 42 47 46 44 46 48 55 75 81 79 77 77 67 59 45 28 23 21
31 26 25 19 27 30 26 61 36 15 15 16 16 16 16 16 16 16 16 16 16 17 17 18 19 21 34 41 40 40 45 49 51 48 48 48 59 76 83 83 83 75 62 58 48 33 25 21 12
24 18 12 14 28 26 23 26 18 16 16 17 17 17 18 18 18 18 18 18 18 18 19 20 21 22 24 30 34 34 45 53 51 52 54 62 80 87 89 87 79 69 66 53 36 26 22 13 8

GFSSGP_500_rhum_045.txt.gz
RH
23 22 17 16 17 13 19 52 36 44 46 43 61 88 85 80 79 51 41 78 92 94 96 95 96 94 92 87 80 73 69 70 67 69 20 3 4 7 8 10 10 10 9 8 8 6 4 6 7
41 44 29 11 10 12 41 22 20 21 42 68 63 66 94 100 94 54 28 64 76 82 93 98 92 91 95 97 96 94 85 84 68 24 5 3 4 8 8 9 10 8 7 8 8 6 13 23 22
46 56 50 13 10 17 77 41 82 70 62 85 70 70 57 70 51 79 57 44 66 82 91 92 94 98 98 97 96 95 97 89 65 14 5 4 6 8 8 9 9 8 8 9 10 17 27 34 37
46 69 51 36 32 64 38 54 70 53 44 67 83 45 42 42 28 48 37 57 69 66 78 84 98 97 95 95 97 96 87 85 67 8 8 4 6 7 7 9 7 8 8 9 12 12 22 27 30
64 74 64 39 64 100 92 76 68 57 52 51 55 76 52 39 47 41 49 39 65 94 86 76 92 95 98 97 97 96 88 76 42 10 5 5 6 6 8 8 7 8 11 17 24 25 20 25 19
74 65 59 61 87 99 71 59 55 33 53 42 30 46 56 52 33 50 68 80 98 96 99 84 93 97 97 97 96 79 48 18 6 7 6 6 6 6 8 8 7 8 13 21 29 34 28 29 38
79 86 70 79 77 99 70 84 96 87 71 61 69 53 73 47 38 57 72 64 83 96 99 96 99 97 96 96 90 70 80 77 27 7 6 5 6 15 7 7 8 15 22 26 32 38 46 47 45
82 81 76 76 97 100 100 98 90 98 83 75 82 65 47 34 33 37 51 77 95 96 96 96 96 95 96 94 93 90 65 40 29 28 18 19 9 8 8 13 14 15 22 25 37 47 46 44 46
86 75 69 77 97 100 96 95 95 94 96 70 62 38 31 47 57 62 47 61 85 93 94 97 96 95 94 94 91 82 67 51 37 19 7 8 8 11 20 21 25 39 49 45 45 53 48 48 45
96 83 74 79 94 96 89 74 56 78 84 81 65 78 74 66 76 70 78 94 91 99 96 92 88 85 86 67 25 17 9 9 9 12 16 16 17 34 52 66 70 75 78 70 59 62 56 46 43
99 76 89 76 69 82 95 70 62 75 64 59 90 97 95 84 75 71 97 94 96 96 94 72 32 24 35 31 26 25 20 22 18 14 16 29 57 73 89 92 88 71 70 74 43 64 64 49 44
89 79 86 100 77 82 71 56 80 86 94 66 89 97 95 95 90 87 97 97 96 91 50 10 7 6 9 13 20 18 13 16 25 57 79 95 94 89 82 75 79 70 60 48 34 25 39 23 17
58 96 93 100 77 75 40 56 99 100 99 83 96 98 92 84 93 99 97 67 28 13 7 9 11 12 13 14 16 22 37 62 82 82 82 81 96 73 68 59 64 58 44 29 22 16 17 15 17
90 99 87 100 100 88 57 54 69 93 75 94 92 93 55 73 87 92 47 33 8 8 7 10 12 14 17 38 51 75 88 84 86 90 82 86 82 87 85 40 44 43 22 19 19 21 23 26 26
86 78 83 85 80 77 54 72 82 80 64 49 65 56 34 60 20 12 7 6 9 11 13 18 18 26 55 47 31 54 66 76 79 87 75 77 61 76 80 42 17 20 22 21 21 21 22 24 25
82 77 78 72 71 92 97 85 64 62 30 18 26 23 48 62 16 9 11 14 16 17 18 18 26 42 32 41 64 64 55 60 80 75 73 62 46 39 26 19 20 19 20 21 21 21 21 21 22
75 91 86 93 97 98 95 65 51 53 29 17 16 14 13 12 12 12 10 13 13 15 17 23 26 25 54 65 44 48 58 66 69 66 64 44 21 19 20 20 19 19 19 21 23 25 24 24 22
64 90 99 82 87 57 83 72 25 11 10 12 13 13 12 12 12 12 10 11 14 17 17 38 44 29 33 25 28 44 57 52 48 46 28 20 20 21 21 22 22 23 25 28 31 31 32 32 29
99 97 99 74 100 68 46 20 7 12 13 20 19 12 10 9 8 7 8 9 16 15 33 45 57 59 31 36 57 65 50 45 29 21 22 22 24 26 27 29 30 32 34 38 40 37 37 34 31
85 88 97 84 98 71 30 14 14 35 14 17 18 15 16 19 16 12 10 8 12 24 25 26 63 54 28 48 28 22 18 19 21 23 25 26 25 27 30 33 35 37 44 52 50 44 39 35 34
83 90 99 97 86 47 51 71 59 38 22 27 17 18 17 17 20 17 13 12 10 14 17 34 48 26 38 29 18 18 20 22 24 24 27 27 28 29 31 34 38 43 52 59 54 46 39 37 41
87 97 88 82 84 40 72 79 81 83 89 96 59 57 51 58 44 19 21 14 11 14 19 48 29 20 22 18 20 22 22 24 26 27 29 31 33 29 30 31 40 45 52 55 48 44 43 47 51
100 73 83 80 88 80 95 81 82 98 90 99 80 44 28 25 17 17 16 16 16 29 25 39 18 18 19 19 21 23 23 25 25 27 28 23 24 26 26 30 33 38 44 39 41 45 47 58 65
80 38 83 95 90 89 71 91 97 72 97 94 72 86 50 31 30 24 16 16 23 28 21 21 19 21 21 22 24 25 23 21 19 18 18 19 19 21 24 24 25 32 34 35 43 49 61 79 81
71 42 32 32 44 36 94 65 87 88 63 33 35 38 53 25 22 20 18 18 17 18 21 18 21 19 20 20 19 18 18 18 19 19 20 21 23 26 26 29 36 82 64 50 60 65 80 77 72
63 41 66 75 74 64 100 78 80 55 51 30 38 20 20 20 18 17 17 17 17 15 14 14 15 16 17 18 18 18 19 20 20 22 23 25 28 30 36 65 100 100 59 66 69 83 89 80 84
65 76 64 87 76 67 80 63 46 34 35 80 42 20 20 19 17 15 14 14 15 16 17 17 17 18 18 18 21 22 23 24 25 26 28 30 35 44 45 60 90 62 70 72 84 95 88 82 79
41 79 82 48 28 17 28 52 73 56 97 87 58 18 18 17 16 16 16 16 17 18 18 18 17 16 16 23 28 29 30 29 31 34 55 43 55 54 48 56 73 71 74 91 92 83 79 87 100
47 46 38 38 22 15 21 74 81 95 92 69 47 18 17 17 16 16 16 17 18 17 16 16 16 19 25 31 33 32 30 50 60 55 54 59 94 100 57 71 75 72 88 95 82 76 91 100 100
59 35 40 38 28 31 14 20 59 100 82 65 54 18 17 17 17 16 17 17 16 16 20 33 39 30 23 30 33 36 55 91 73 72 62 64 62 61 71 76 84 92 93 92 100 100 100 100 100

GFSSGP_500_rhum_048.txt.gz
RH
18 13 10 13 22 25 39 40 47 66 60 56 61 76 96 93 92 69 68 71 68 51 80 97 96 96 95 96 97 95 96 93 94 90 83 69 42 5 5 8 9 10 9 7 6 6 4 4 4
22 16 11 11 19 29 43 35 38 46 30 43 49 84 86 92 81 62 66 62 54 40 42 66 85 77 94 91 89 98 96 95 99 94 86 81 22 5 8 8 10 10 9 7 7 6 7 11 11
19 28 18 12 24 39 65 53 69 29 22 33 53 57 76 94 90 83 65 44 36 53 53 54 65 80 91 93 98 97 96 98 97 86 80 91 10 5 8 9 9 10 8 7 8 8 10 11 11
31 37 22 55 61 100 95 61 29 56 19 27 50 71 78 92 85 69 62 47 40 46 57 78 91 79 93 98 96 96 97 99 99 80 79 37 6 6 8 8 8 8 8 8 11 20 27 27 22
43 52 52 76 98 81 60 61 30 26 37 70 85 70 67 85 54 40 33 50 58 74 68 95 87 83 94 98 94 97 98 97 86 83 78 54 34 14 7 7 8 8 8 9 13 20 33 37 32
53 51 82 96 82 70 84 64 36 48 71 71 72 52 43 41 40 42 46 64 71 97 98 94 93 97 96 92 100 97 99 98 76 53 18 12 7 6 6 7 8 8 10 15 15 20 27 34 36
73 69 89 96 91 72 69 86 100 98 95 59 56 58 46 45 47 48 58 88 86 96 96 96 94 96 98 99 98 96 92 59 14 13 12 11 8 6 19 26 10 25 13 13 17 17 23 42 42
82 77 77 96 94 65 44 98 93 90 91 93 95 75 67 55 65 62 32 66 97 94 83 97 96 96 96 97 97 95 90 81 68 48 27 13 34 30 18 32 45 16 25 38 55 53 54 55 54
96 88 84 93 91 71 71 84 71 79 94 88 92 70 69 65 56 39 41 58 78 94 85 88 97 97 96 96 96 95 95 92 59 68 67 66 41 16 22 24 78 84 76 71 65 60 40 45 55
99 94 73 92 80 88 72 71 58 52 41 66 95 95 77 53 55 56 69 70 91 92 97 97 93 97 97 96 96 90 67 44 37 30 17 15 25 36 76 87 83 57 73 64 59 53 45 30 32
98 84 86 94 85 89 71 61 50 34 43 66 66 75 66 94 97 89 91 73 98 99 97 95 93 93 90 70 30 15 12 14 16 19 29 73 89 88 86 70 57 54 63 57 50 40 29 21 14
81 94 98 96 89 68 65 49 46 51 58 65 74 62 77 94 91 94 98 97 95 96 95 70 48 40 38 23 25 22 19 17 23 45 87 88 77 96 89 52 43 46 61 60 53 26 16 16 16
49 98 96 85 73 72 52 50 58 58 82 75 68 72 77 97 96 97 95 89 92 78 89 60 32 16 17 19 15 14 23 45 72 82 83 72 78 70 67 64 56 43 41 53 43 15 18 18 17
72 90 99 97 70 55 47 48 49 63 89 85 82 92 96 94 95 90 93 32 18 22 12 11 11 11 16 38 45 55 70 80 74 81 71 73 43 52 43 34 63 68 22 16 16 16 17 18 19
72 83 94 75 71 62 60 57 75 93 78 60 64 42 75 90 60 36 13 14 16 12 10 14 17 24 46 59 42 53 61 67 62 72 63 46 44 47 40 16 19 19 18 18 18 20 21 23 27
82 84 97 93 81 75 71 80 96 94 32 29 30 30 66 24 15 19 21 15 10 10 14 16 18 27 28 24 53 68 57 57 61 50 38 36 38 22 18 19 20 21 23 25 26 28 31 37 41
89 82 72 75 76 96 94 66 86 54 32 13 12 13 15 14 15 18 23 18 17 20 17 17 19 21 28 58 50 27 32 50 59 42 36 25 19 21 22 23 26 28 31 34 36 39 44 52 51
62 89 99 99 79 66 81 30 20 20 17 20 16 13 33 19 10 12 15 17 19 21 19 32 46 52 51 36 23 30 58 67 44 30 19 21 23 25 26 26 28 31 33 35 39 43 49 53 54
83 95 91 89 97 58 59 37 16 11 23 41 26 18 20 15 12 14 21 24 18 14 15 18 26 49 65 42 35 65 35 25 19 21 22 24 26 28 29 31 31 34 32 33 36 37 41 50 48
89 96 96 81 79 60 46 25 18 12 13 26 44 27 22 29 22 15 17 18 17 18 17 17 20 51 55 30 48 25 19 20 21 22 24 26 27 27 29 29 32 32 31 31 27 25 30 41 41
80 72 73 75 77 83 81 37 29 15 15 51 48 24 19 19 18 18 17 18 18 22 23 23 43 48 52 37 23 18 20 22 23 24 25 23 22 20 20 22 24 25 28 25 25 27 35 46 54
96 75 69 85 99 96 78 43 28 23 47 54 62 69 41 23 47 28 26 23 19 19 24 36 58 28 55 23 18 19 21 24 25 24 20 19 19 19 22 22 23 25 26 28 32 41 61 76 43
66 57 67 93 81 65 27 34 67 56 43 67 61 67 64 26 34 19 26 20 13 13 30 32 46 24 42 35 21 22 22 21 19 18 18 19 19 21 24 25 24 25 27 33 39 94 100 91 53
80 66 65 73 71 58 90 52 66 85 77 77 36 69 34 44 49 36 20 19 19 21 28 31 23 19 36 34 19 18 18 19 19 18 19 20 22 23 22 23 25 29 38 45 42 59 59 52 55
83 60 64 59 47 50 81 56 66 83 55 52 39 54 38 39 23 16 15 16 17 17 16 20 40 23 18 17 18 19 19 19 19 21 22 24 25 24 28 38 43 45 57 54 42 47 52 55 66
91 98 54 56 58 56 58 64 69 79 72 74 43 48 28 20 17 17 15 16 15 22 43 32 40 27 19 19 19 19 19 19 16 17 20 22 23 47 84 56 56 57 80 100 80 60 59 73 80
82 86 73 62 47 66 83 68 73 70 49 22 58 64 21 20 17 16 16 16 17 31 32 47 21 18 19 16 18 24 19 12 11 21 31 52 74 85 71 72 65 53 100 99 73 60 81 89 89
84 74 78 89 74 55 36 46 39 28 48 66 92 56 19 16 17 17 18 18 19 34 39 24 17 17 18 25 31 47 56 82 76 65 94 96 97 86 74 68 50 62 67 75 71 85 83 88 95
47 45 83 60 38 26 20 26 18 42 60 90 77 63 45 16 17 19 19 19 18 18 18 18 17 19 33 52 78 97 90 83 96 100 100 100 100 87 74 51 63 72 77 87 95 85 91 91 76
82 29 32 57 90 65 21 18 22 28 55 67 72 58 66 23 20 21 23 20 20 19 20 21 28 45 59 60 74 93 100 100 93 99 89 92 76 56 62 74 81 75 94 96 90 89 94 91 91

GFSSGP_500_rhum_051.txt.gz
RH
13 11 14 27 29 13 25 55 79 87 86 90 98 98 94 87 83 68 74 80 70 70 63 59 52 47 88 98 97 92 97 96 94 97 96 96 87 84 56 12 6 9 9 8 7 6 5 4 3
13 11 15 27 38 33 48 62 62 61 64 78 79 86 92 82 73 70 76 61 64 62 64 48 47 52 43 73 89 93 99 100 94 97 98 96 89 88 10 7 9 10 10 9 7 6 6 6 7
11 13 16 34 76 76 78 70 47 43 46 53 63 69 75 76 61 68 72 59 60 63 71 73 53 60 74 62 73 99 96 97 98 99 98 97 57 89 52 7 10 10 9 9 7 8 11 18 21
11 18 40 84 88 87 78 52 38 46 40 49 57 62 66 68 75 77 71 62 69 62 66 67 56 64 94 72 79 79 95 98 99 100 96 88 55 64 7 8 12 16 9 8 8 9 11 12 15
15 44 86 86 89 74 69 67 47 34 37 61 54 64 60 55 61 60 84 67 57 65 80 77 79 87 96 81 77 85 94 99 98 97 96 71 75 14 18 12 35 14 8 9 10 16 13 13 17
27 67 85 93 99 96 77 90 68 42 64 85 68 65 65 65 62 57 64 65 65 74 91 91 96 97 97 88 84 90 98 97 96 96 90 89 84 69 53 40 9 7 10 15 20 15 21 22 25
45 81 77 97 95 100 97 86 83 61 61 98 84 76 71 58 57 48 46 65 78 87 97 95 96 92 91 78 93 98 98 98 96 86 61 23 19 12 7 7 9 18 33 40 40 20 56 56 53
85 90 95 96 100 100 100 100 97 92 85 88 96 81 80 69 58 50 44 61 71 96 96 94 96 96 96 96 97 97 98 95 77 32 39 57 30 9 12 17 36 63 45 41 52 70 60 48 39
97 82 97 93 96 95 100 100 74 74 69 53 88 94 94 81 79 75 66 73 72 43 86 97 90 91 94 96 97 97 95 93 94 77 35 27 45 37 28 34 52 39 46 58 62 59 56 51 45
100 75 92 98 100 97 98 94 67 63 53 41 63 86 93 87 78 70 66 59 65 54 73 77 80 99 97 96 97 98 96 95 96 89 86 72 46 24 26 43 54 67 59 50 51 54 50 43 30
94 83 89 98 97 77 85 94 60 51 55 51 67 73 78 80 79 72 60 60 53 70 85 94 93 91 96 97 96 89 70 39 42 44 27 26 68 88 95 85 75 59 47 43 46 58 56 52 31
88 96 82 87 88 87 83 78 58 59 51 56 74 74 74 76 74 83 96 82 82 88 93 100 97 95 96 86 26 28 51 65 28 25 37 84 86 77 68 65 61 47 41 33 20 36 41 38 15
44 93 100 93 86 82 83 69 48 49 50 66 78 77 68 80 75 98 97 95 91 94 96 85 86 81 53 35 44 52 34 21 35 69 82 85 77 59 49 50 48 52 65 66 54 17 16 16 16
82 70 98 88 97 82 70 56 47 51 61 82 90 87 86 98 97 96 96 76 53 76 84 78 73 62 48 36 22 20 31 59 88 90 94 85 72 42 47 50 29 17 27 20 18 18 21 24 24
80 74 83 93 81 60 53 55 53 68 67 58 60 65 70 96 95 71 72 34 21 23 27 22 20 23 30 42 44 48 56 77 74 80 75 49 39 38 27 18 18 18 19 21 23 24 25 25 22
81 88 79 70 66 60 64 70 87 90 50 36 25 30 26 32 37 42 27 26 19 24 28 18 21 25 35 34 38 66 70 58 58 62 59 38 29 21 18 20 19 20 23 24 26 25 26 27 29
92 94 78 71 64 67 86 83 88 81 32 16 14 16 16 29 15 13 15 18 18 18 16 16 18 19 24 40 45 31 27 31 47 68 38 20 18 20 22 25 24 26 27 26 27 26 25 26 26
100 100 100 94 95 93 96 92 75 43 41 20 20 28 20 19 24 21 16 16 19 20 19 28 41 56 54 62 41 30 42 58 48 23 18 19 22 23 24 25 25 25 24 21 21 21 25 26 25
97 88 84 96 88 81 66 48 56 45 47 42 32 28 40 30 19 21 20 21 18 16 19 22 24 27 44 65 52 33 42 29 17 19 21 22 22 22 23 21 21 20 20 19 20 21 23 24 27
63 71 98 98 91 85 51 31 14 38 41 37 49 37 31 22 23 20 16 14 13 12 20 34 36 38 66 55 44 40 23 19 21 21 21 21 21 20 20 19 20 19 18 18 20 23 26 28 34
100 94 100 94 67 80 80 29 11 24 22 26 22 21 19 23 25 26 24 19 16 14 14 22 50 67 42 42 39 22 19 20 21 21 20 18 18 19 19 19 18 17 19 22 25 28 32 43 48
90 74 82 88 74 63 44 36 23 19 13 58 60 72 73 36 46 55 35 32 28 19 18 25 44 70 38 59 44 30 22 26 19 17 17 18 18 19 18 20 20 20 26 31 47 51 48 52 56
73 56 71 69 53 91 82 44 22 21 14 45 72 62 62 41 34 46 64 45 40 24 32 34 59 85 49 46 52 52 25 29 17 18 18 16 18 21 21 22 25 30 35 48 53 53 48 45 67
56 53 53 68 70 72 62 42 32 50 52 45 45 50 67 39 47 62 31 37 27 43 58 48 61 70 47 33 62 56 23 18 18 17 14 16 20 21 22 26 38 49 64 100 78 69 45 35 83
66 51 49 49 63 60 80 54 50 84 67 53 52 19 47 32 28 17 16 18 18 39 47 24 44 72 71 59 58 35 20 18 16 15 18 22 33 38 42 54 82 78 95 74 70 50 42 61 73
65 49 45 40 42 47 54 38 42 47 75 51 35 21 21 24 16 16 17 17 18 34 21 40 43 81 72 46 32 18 19 21 24 28 35 54 66 75 77 70 80 93 100 99 51 50 70 74 68
71 65 71 66 48 41 68 63 46 56 83 65 34 24 16 18 19 16 16 16 16 16 18 31 71 68 44 19 18 19 28 32 54 66 91 88 78 82 75 72 100 99 85 62 49 70 66 63 79
65 63 57 65 56 50 56 61 59 73 62 39 26 63 37 18 17 17 17 18 18 19 19 34 46 41 20 20 26 33 49 62 74 100 96 78 78 81 100 98 92 92 61 58 71 70 80 96 97
97 76 62 42 59 62 58 43 36 27 25 22 50 77 64 50 31 18 18 19 19 21 27 23 28 25 25 31 34 55 63 86 81 80 71 78 73 99 100 67 65 60 72 78 87 99 94 92 99
98 81 63 31 58 41 28 22 22 22 20 17 20 35 80 72 63 33 22 24 26 26 27 28 27 32 40 53 66 66 80 82 91 100 85 78 88 95 73 58 73 78 87 100 100 100 100 100 100

GFSSGP_500_rhum_057.txt.gz
RH
12 14 12 10 17 18 16 24 30 45 42 65 98 64 72 89 83 87 74 80 70 63 62 59 55 65 69 57 57 52 46 40 79 79 75 62 86 93 79 86 76 31 9 8 10 10 9 8 7
15 18 12 14 19 20 24 36 38 29 32 58 81 89 86 99 87 92 83 79 79 73 71 64 71 77 70 70 74 65 44 48 53 62 59 67 94 93 87 85 76 26 9 10 13 10 9 8 8
21 18 13 15 17 22 38 48 51 35 52 57 68 94 95 96 96 87 94 97 76 75 75 64 65 79 89 89 69 67 58 49 60 93 61 72 96 90 99 92 62 39 14 22 15 8 8 8 8
18 16 15 22 45 62 69 76 70 50 39 60 83 99 92 98 82 93 88 91 80 70 66 70 72 89 91 88 84 57 47 50 85 82 89 88 92 96 98 84 77 73 17 14 9 12 9 10 17
14 15 19 40 85 96 100 100 78 69 58 69 85 94 92 96 85 64 64 73 92 96 86 88 88 81 81 71 69 71 76 76 71 92 90 97 95 96 89 75 59 20 8 12 21 17 9 17 38
14 18 26 86 97 98 97 97 100 71 70 70 94 99 82 88 74 70 73 77 67 62 79 96 95 88 97 89 95 79 97 96 83 96 94 98 97 97 92 79 47 11 17 26 30 20 14 34 30
14 22 42 98 99 94 96 94 73 84 82 67 78 81 73 68 94 80 76 72 89 94 89 97 96 94 96 95 97 90 96 94 92 95 96 97 96 93 91 72 34 27 34 45 22 29 33 29 29
15 25 84 100 96 81 91 96 99 85 92 80 74 66 70 71 90 77 69 61 67 71 94 95 94 96 95 96 97 95 99 96 96 97 96 96 95 86 59 42 43 28 18 18 39 38 33 36 41
16 34 99 99 92 88 97 99 97 92 85 77 68 78 55 54 84 82 72 62 58 68 66 61 59 73 96 97 93 94 93 96 97 97 96 93 84 78 47 16 15 16 31 41 43 38 45 60 48
19 52 93 96 90 82 93 96 97 96 89 71 66 61 57 59 60 75 78 62 64 62 60 56 52 52 71 84 90 97 96 97 96 96 96 95 74 38 41 46 44 44 41 47 45 50 66 40 24
31 82 96 100 100 94 92 93 96 98 82 76 59 51 49 54 65 74 73 82 76 74 66 53 56 53 44 70 98 95 74 87 100 95 96 84 69 78 74 70 65 60 58 68 52 50 49 46 46
35 66 100 96 100 96 93 87 94 94 83 66 52 48 33 34 47 63 64 95 94 90 57 51 49 54 85 88 100 94 97 98 99 94 94 86 85 78 76 92 78 73 61 55 40 30 33 21 20
44 78 95 97 93 94 89 88 95 90 69 62 54 41 47 47 54 73 63 80 77 68 54 76 75 65 80 98 98 96 98 96 96 90 86 70 64 78 97 85 58 38 50 41 16 14 13 14 15
67 85 79 85 85 96 98 83 77 62 54 54 49 41 63 68 83 100 95 77 74 96 93 97 93 90 91 93 84 78 76 75 76 85 81 77 93 94 78 60 39 31 21 15 14 15 15 16 16
72 90 87 66 69 77 86 90 64 52 52 64 61 74 54 79 98 98 96 92 92 94 82 72 55 48 52 57 55 58 61 63 66 88 94 94 83 68 60 41 23 16 15 15 16 16 17 16 16
67 68 88 98 100 100 95 82 58 71 65 70 70 68 48 98 96 88 75 76 74 79 78 69 65 49 41 33 32 37 53 75 90 76 68 82 71 58 70 20 16 16 16 16 17 17 16 17 15
63 61 78 81 85 86 77 74 82 64 52 36 50 24 53 38 52 78 77 72 50 48 53 48 39 31 36 47 43 49 60 60 40 21 36 58 77 64 16 17 18 18 18 17 16 17 14 14 12
52 60 74 97 84 91 81 69 79 55 50 35 23 21 49 31 30 46 32 26 27 26 25 25 24 38 54 39 46 46 30 19 24 51 59 52 45 19 20 20 20 19 17 16 15 13 11 10 11
48 58 84 98 90 77 90 94 95 62 75 62 39 28 26 24 24 25 27 26 26 28 33 35 35 32 39 52 63 52 41 26 50 56 65 65 28 23 22 21 18 18 16 12 11 10 11 13 20
49 52 64 81 91 99 98 99 99 93 89 69 45 40 42 24 22 24 25 25 25 30 38 40 39 39 37 42 48 49 39 30 38 47 66 76 29 22 18 18 18 15 13 14 16 19 18 23 22
40 44 62 72 96 100 94 95 63 49 62 58 57 42 30 24 27 26 23 20 18 23 30 39 38 35 32 43 50 38 42 33 44 56 74 54 35 18 18 17 15 16 21 19 28 24 21 30 46
63 58 64 66 90 88 85 85 40 46 52 59 45 39 35 33 29 23 23 20 16 15 16 24 32 35 46 63 45 31 41 35 34 58 73 73 54 50 19 17 21 29 31 31 48 35 43 59 72
59 64 60 65 65 73 81 63 60 27 26 46 73 83 80 54 46 34 24 25 27 20 16 14 14 19 38 74 64 44 48 50 71 93 96 100 97 57 23 40 34 35 42 53 46 34 51 85 86
56 65 57 55 60 62 65 64 57 33 33 32 76 67 92 98 100 95 66 52 40 35 31 28 20 21 48 64 83 79 52 63 87 93 84 89 69 42 67 52 46 47 54 58 67 52 61 91 95
58 61 56 55 53 59 62 55 58 61 41 56 56 45 69 62 86 83 99 93 94 86 68 30 23 61 56 55 78 92 96 96 74 81 73 56 93 99 91 77 71 65 70 61 56 78 88 94 99
56 59 64 58 51 52 46 41 57 54 48 51 69 62 56 53 63 75 56 57 78 72 44 29 42 47 38 50 47 58 98 97 80 49 54 60 91 97 84 76 70 90 65 63 89 91 100 100 100
59 67 71 67 59 52 56 56 46 41 47 50 48 60 59 47 32 41 48 52 36 21 21 25 38 27 28 24 33 84 97 94 84 65 70 66 77 83 80 84 92 100 95 97 99 100 100 99 90
55 67 71 73 62 48 47 45 55 54 54 70 69 62 70 76 37 23 24 21 20 18 17 18 19 20 22 29 29 52 90 77 77 86 78 84 87 79 98 100 100 96 100 96 100 92 77 93 78
74 76 73 67 57 58 51 46 52 70 58 51 51 64 61 36 53 52 21 19 18 18 17 18 19 24 26 28 28 59 89 86 88 97 97 91 98 100 98 100 100 100 94 99 94 98 98 84 85
81 69 68 70 66 55 50 48 53 50 60 48 26 22 20 18 15 30 69 56 46 39 35 24 28 34 33 28 41 69 86 94 98 99 100 100 100 99 99 100 100 89 100 93 90 100 75 88 100

GFSSGP_500_rhum_060.txt.gz
RH
7 9 13 17 15 13 41 82 30 30 24 25 31 42 94 95 77 86 95 75 72 62 56 54 55 54 50 49 56 58 52 45 46 34 74 78 70 75 83 78 75 74 50 18 9 9 10 9 9
7 15 20 19 15 74 71 75 32 39 28 28 45 67 63 95 84 87 93 67 63 64 56 54 54 56 55 55 69 82 68 69 50 40 48 67 60 70 88 85 83 77 41 16 10 11 14 9 9
8 20 18 17 21 76 78 62 44 50 51 60 70 42 57 88 95 76 97 79 60 66 81 70 63 71 70 69 93 98 87 71 46 49 44 59 84 79 87 86 91 82 32 13 10 22 14 8 8
15 20 15 16 83 59 82 77 60 86 90 87 83 62 72 58 95 87 90 78 82 95 90 86 83 82 79 78 81 87 83 57 54 59 57 71 93 83 91 92 96 72 52 20 13 35 9 12 9
21 18 14 24 67 97 92 91 88 100 100 83 68 63 86 85 93 97 94 87 93 97 96 88 83 83 76 78 86 79 68 65 59 75 80 76 95 93 100 92 90 88 72 35 25 10 14 14 16
26 14 22 83 98 100 91 96 100 99 89 88 80 78 56 58 81 81 69 83 92 96 97 96 96 93 95 91 74 91 77 83 82 98 96 97 96 96 97 96 90 86 58 20 9 20 22 16 34
25 14 45 89 100 98 92 99 100 100 91 88 79 79 84 68 71 69 73 80 89 95 94 94 94 92 97 97 92 90 95 92 98 96 96 96 98 99 98 98 94 76 24 17 26 33 29 20 28
25 18 48 99 100 100 84 81 87 99 93 97 83 77 64 67 60 49 57 77 81 87 96 99 98 97 96 96 95 96 95 90 96 96 96 97 97 95 98 99 89 71 29 20 38 26 27 39 35
24 26 91 100 98 100 79 77 97 99 99 91 77 75 75 64 63 59 63 91 75 69 80 85 84 87 85 96 95 96 94 96 96 95 97 96 96 95 96 88 65 62 40 27 41 42 41 40 43
27 44 92 98 95 85 86 83 97 97 96 86 61 60 56 72 66 60 57 61 72 74 75 74 74 69 73 78 78 79 89 95 95 96 97 97 96 96 95 53 25 29 31 37 44 47 47 54 48
28 67 92 91 93 90 89 94 97 98 96 75 67 52 59 60 60 53 63 65 70 78 86 74 82 72 65 58 60 50 86 85 98 97 96 98 96 90 41 46 58 58 53 50 60 58 39 30 39
27 44 99 100 92 83 87 89 97 97 84 70 65 57 48 46 43 38 39 43 64 72 77 87 72 66 59 51 52 58 96 97 96 96 96 96 61 53 68 70 70 71 68 54 45 38 17 15 12
36 43 66 78 97 82 74 91 99 82 64 58 49 39 38 36 42 28 34 57 70 74 67 88 78 56 57 62 69 88 99 95 96 95 95 87 92 83 75 81 70 63 49 30 30 17 13 14 15
43 67 84 61 73 92 99 92 97 74 60 52 39 36 34 47 71 69 70 81 76 77 69 80 70 71 67 84 96 94 98 94 90 84 80 79 77 68 71 86 72 47 32 21 16 14 14 17 18
61 66 77 86 72 66 76 80 84 67 57 53 54 45 52 89 97 92 98 88 84 88 90 86 77 74 86 97 82 74 77 81 81 86 82 77 88 98 83 67 47 29 17 15 14 16 18 18 17
49 61 85 77 71 71 84 99 63 59 73 62 65 60 65 94 94 93 98 99 97 96 90 60 58 57 55 50 43 41 46 50 54 74 89 95 96 86 72 62 25 16 16 16 16 17 18 17 15
45 91 89 77 100 86 73 97 69 66 54 57 53 27 44 89 86 77 82 89 93 80 66 58 50 34 32 35 40 44 52 68 91 97 78 82 98 96 80 33 18 18 17 16 18 18 17 14 10
46 56 96 100 90 81 76 66 74 68 52 38 29 26 53 31 56 62 58 57 57 68 47 36 27 28 35 40 47 79 100 99 67 35 29 46 72 88 48 22 21 20 19 18 18 16 12 11 11
38 47 77 84 69 88 85 87 75 67 62 44 32 29 39 26 31 36 28 26 31 28 27 25 28 52 59 54 67 61 48 33 26 32 66 64 88 75 67 23 22 19 18 18 15 14 17 18 20
38 46 56 69 79 97 100 99 85 93 73 55 54 53 30 27 26 28 28 28 25 24 29 44 53 48 42 42 53 54 54 49 36 37 50 72 68 78 61 26 19 18 17 16 16 23 24 24 18
37 68 53 68 64 85 79 99 92 88 84 84 84 44 38 24 20 25 25 24 25 28 33 35 36 41 44 39 46 53 60 50 39 36 38 64 95 86 54 23 38 27 18 26 22 27 30 24 28
58 53 50 61 73 100 85 100 72 74 70 70 54 33 32 30 26 24 22 20 19 21 28 32 31 35 40 50 60 65 56 44 41 26 52 70 81 80 66 58 88 47 30 35 45 46 29 15 23
63 55 66 67 75 79 80 88 100 50 34 48 66 41 34 29 30 29 26 22 22 21 20 21 24 25 24 24 53 84 61 39 54 53 71 93 99 100 100 96 82 37 46 52 52 45 23 38 56
57 68 67 65 75 74 72 79 100 90 60 31 42 74 78 66 68 66 44 21 22 31 35 30 28 30 24 26 45 72 84 76 50 40 64 97 96 91 77 56 54 71 71 63 56 49 46 70 74
51 65 99 77 61 100 72 70 87 64 44 38 26 57 73 59 55 55 60 57 32 36 35 38 46 30 23 64 62 61 71 82 98 99 98 86 54 61 58 69 68 74 75 69 57 46 63 86 94
57 60 72 85 72 86 58 52 97 63 56 56 56 58 62 68 73 68 68 92 64 57 50 46 32 32 43 51 41 46 63 88 100 93 98 97 83 71 86 77 79 72 82 71 88 89 97 95 100
66 60 56 68 64 59 53 57 64 46 42 50 48 68 67 83 63 46 67 81 79 70 64 46 22 26 50 43 25 24 41 73 73 90 98 98 86 84 98 91 82 79 96 100 95 96 100 100 100
66 68 68 70 71 66 66 61 90 44 46 50 50 57 58 85 89 65 47 36 43 48 44 31 22 20 21 20 21 29 42 37 37 81 98 97 99 98 84 94 98 90 100 100 100 87 100 100 68
53 70 81 73 67 62 56 68 72 52 58 46 54 71 78 86 72 60 62 42 22 24 24 23 20 21 23 21 22 27 30 32 45 68 95 95 99 95 90 88 96 99 100 100 100 87 93 67 65
41 59 75 83 73 66 60 46 58 70 39 57 52 39 33 47 51 41 70 77 47 33 25 22 22 22 22 26 32 54 47 35 54 65 92 99 96 86 100 99 99 100 98 89 78 100 70 58 100

GFSSGP_500_rhum_063.txt.gz
RH
16 12 9 7 16 40 70 64 76 85 85 61 50 58 92 65 66 94 98 94 56 50 56 53 51 49 50 58 56 53 50 54 59 64 54 40 71 82 68 75 76 70 65 53 32 19 11 11 10
16 12 6 11 18 67 61 77 81 78 94 40 52 28 22 26 26 40 96 97 80 58 68 56 54 52 63 66 61 57 56 69 77 78 64 45 49 76 68 67 81 78 70 67 41 18 12 12 11
14 9 7 15 73 74 67 79 91 99 65 32 83 36 24 26 29 60 78 89 78 69 64 73 73 71 73 71 68 65 72 88 98 82 63 51 55 60 97 72 85 88 82 78 44 23 14 20 11
10 7 12 17 73 83 76 81 88 93 95 22 66 46 38 37 42 45 74 79 59 60 66 89 95 79 74 69 65 68 71 89 95 86 58 54 63 55 99 82 84 96 92 83 54 39 15 23 10
8 9 22 78 73 76 79 81 100 100 56 63 71 42 29 37 45 41 61 78 66 92 90 97 94 98 84 72 63 70 68 72 76 77 64 73 73 75 100 92 99 99 85 71 65 45 15 25 14
7 24 72 67 92 87 80 96 90 92 65 61 57 46 37 40 38 36 43 82 94 98 94 97 96 96 90 85 77 83 76 74 76 74 68 66 75 91 91 98 98 95 88 91 69 42 14 15 22
7 43 86 80 78 83 97 81 72 83 99 96 76 59 53 52 43 51 81 91 94 94 96 97 96 95 96 80 81 94 93 86 88 78 80 76 95 94 96 96 95 97 98 86 58 13 22 29 32
9 21 76 82 87 91 98 67 77 95 94 81 97 88 84 60 56 57 60 87 96 95 93 94 94 97 96 95 96 97 98 100 100 96 100 95 96 94 96 95 97 92 93 78 29 24 33 33 37
12 26 82 92 89 90 98 73 68 81 85 76 88 75 89 76 61 60 68 75 70 87 95 88 90 90 94 89 94 95 96 95 91 96 94 92 97 96 95 95 95 88 87 70 37 25 30 33 42
13 85 92 82 92 88 100 86 70 88 80 71 72 76 62 73 76 69 68 64 63 70 80 92 87 92 84 83 80 82 85 82 89 97 97 97 96 95 96 95 94 94 61 45 24 40 42 38 44
32 57 97 90 99 93 95 98 94 64 92 100 84 64 68 77 87 83 60 60 72 84 85 86 90 93 84 68 62 98 62 62 76 96 88 93 98 95 96 95 75 31 27 34 40 46 60 50 30
16 30 81 100 76 69 71 68 70 75 76 77 62 60 56 57 76 54 62 63 78 74 69 79 83 90 81 71 62 75 63 68 73 86 80 97 97 96 95 65 50 64 67 69 67 60 48 20 12
17 21 98 78 76 69 52 54 65 46 50 48 42 44 48 44 47 48 55 54 63 63 74 96 98 91 97 78 66 71 76 100 93 92 93 97 96 96 82 66 73 78 65 49 37 32 22 15 14
55 27 47 80 26 70 68 91 66 51 45 43 35 32 36 40 47 65 55 74 70 76 73 75 71 94 96 83 70 81 92 88 96 99 98 96 88 91 89 87 82 75 68 37 22 15 15 15 16
30 51 65 86 96 38 55 96 80 73 52 43 40 52 52 67 91 80 75 100 93 83 78 73 69 86 91 93 89 97 93 97 95 87 87 83 79 76 70 71 81 62 40 18 16 16 16 17 16
34 45 85 92 100 55 34 52 94 61 43 40 48 54 54 84 81 72 86 100 100 99 95 90 87 87 90 100 96 90 79 74 82 81 73 66 79 90 83 69 59 59 18 19 20 18 16 17 14
68 92 96 84 80 57 66 96 96 60 40 59 59 34 47 74 80 83 94 97 93 72 51 50 62 67 67 80 82 63 52 59 66 75 71 82 92 89 83 84 73 24 21 21 19 16 16 16 13
99 88 94 89 90 63 89 53 84 71 40 61 55 30 53 39 88 86 88 90 91 80 82 49 35 37 36 38 40 49 57 66 78 98 88 74 72 93 89 96 60 22 21 20 16 18 17 14 14
41 95 91 99 96 56 97 100 100 88 64 62 53 24 47 25 35 37 35 37 43 40 38 27 29 40 46 42 43 51 64 72 78 62 34 44 65 71 85 84 42 22 19 17 18 16 15 16 23
34 100 100 100 59 48 100 86 96 97 61 65 48 32 22 18 20 20 20 23 26 26 25 23 20 22 30 40 30 34 43 43 37 34 32 39 74 83 96 84 70 39 18 19 26 22 23 25 43
34 99 95 100 99 56 67 74 100 76 78 62 58 73 65 36 17 16 18 19 19 19 19 19 20 23 27 32 40 49 53 52 56 51 39 40 53 77 87 91 88 59 22 37 76 52 32 40 39
100 77 56 54 76 100 98 97 96 99 49 36 37 44 33 26 20 21 20 20 19 18 18 17 20 25 27 31 30 38 44 57 61 44 43 36 54 84 87 86 84 79 73 78 69 52 54 64 40
80 86 44 47 100 100 100 99 94 65 51 73 30 40 29 28 28 26 23 20 18 18 18 18 19 21 27 28 22 20 28 59 67 47 41 41 38 48 90 99 99 100 99 90 64 61 90 78 62
48 52 48 54 98 87 99 92 94 100 98 99 86 21 33 48 68 68 72 65 59 38 29 35 41 38 54 43 28 22 29 48 65 76 70 68 56 74 83 99 98 96 87 87 83 74 90 81 78
41 57 91 98 98 68 96 62 98 92 88 44 41 26 30 44 63 63 55 65 67 87 53 44 41 44 61 47 30 57 76 63 62 63 82 84 99 98 99 96 93 85 96 100 98 91 98 96 81
38 68 94 97 93 98 59 57 96 85 51 53 38 30 31 43 62 58 57 64 59 96 93 84 70 62 42 42 40 54 54 43 38 40 80 86 79 93 98 98 94 93 98 98 99 95 92 91 94
79 49 96 99 70 61 80 93 73 52 49 46 57 55 54 61 68 80 66 51 45 72 84 79 60 57 37 48 42 48 29 23 23 50 48 30 32 77 98 99 98 98 99 98 98 91 100 100 100
39 75 68 70 91 91 98 93 98 86 44 37 42 49 52 70 71 86 63 52 46 29 26 30 31 26 22 19 20 23 21 23 32 38 37 41 60 68 75 95 98 90 97 100 90 85 100 98 99
23 46 66 93 98 99 100 97 96 63 56 47 41 42 43 53 74 94 97 92 62 55 24 22 25 24 22 21 20 26 37 46 38 40 59 66 65 49 68 87 77 97 98 96 89 96 100 100 100
100 52 98 100 93 82 70 60 98 69 66 50 50 47 50 66 81 84 77 65 67 82 48 29 26 25 23 22 22 29 24 31 41 54 53 42 37 53 60 45 41 80 68 72 99 92 81 99 96

GFSSGP_500_rhum_069.txt.gz
RH
22 24 24 19 13 10 7 12 43 66 70 74 81 82 85 90 75 92 78 83 76 44 43 90 97 100 99 86 80 72 66 60 60 56 54 52 54 57 52 64 71 68 64 62 57 54 51 44 40
25 27 24 18 12 8 8 35 83 86 88 87 72 73 68 81 86 91 97 82 70 65 65 89 94 96 98 92 74 70 62 61 69 63 62 59 64 63 52 45 76 71 67 64 61 61 60 55 47
29 29 21 15 11 8 29 74 94 87 81 83 62 48 55 65 74 74 90 84 84 68 68 60 74 90 97 97 91 81 77 98 100 89 88 78 69 68 67 41 38 55 66 61 65 70 73 62 57
32 25 16 12 7 26 61 78 74 90 72 41 53 68 53 49 92 60 96 87 65 34 14 13 29 76 95 84 84 82 84 85 78 71 70 66 62 65 75 57 42 37 51 62 77 83 83 75 60
33 22 15 10 6 55 91 89 82 69 68 60 44 67 51 70 56 78 71 68 70 21 23 40 63 96 97 80 88 82 79 85 86 78 70 69 68 67 67 70 52 47 49 66 78 84 84 78 68
24 17 12 5 9 85 83 78 67 59 40 52 53 55 82 89 77 80 83 58 80 62 73 89 99 95 97 97 82 80 73 84 85 80 77 74 67 64 64 70 62 54 53 74 84 86 82 77 79
24 14 10 7 42 62 82 78 71 59 65 48 23 27 85 87 85 88 82 65 75 71 94 92 82 89 83 99 96 93 80 89 87 80 81 73 66 72 70 70 68 64 83 84 89 84 89 89 58
13 14 6 19 34 99 98 96 90 55 62 47 30 56 96 91 70 84 77 73 76 75 96 75 80 93 87 96 96 94 96 92 83 98 86 79 75 84 83 80 70 78 95 95 83 93 96 84 35
15 10 8 20 74 100 100 94 79 49 56 73 72 74 86 72 88 91 87 80 80 88 85 88 86 84 94 96 95 96 96 96 97 98 94 95 97 97 99 90 85 90 90 95 94 94 95 70 36
15 8 12 21 79 95 97 94 94 50 56 67 75 96 90 79 70 73 90 80 79 81 71 70 89 86 96 100 90 98 97 96 96 95 96 98 92 96 100 100 96 93 96 95 95 91 65 40 31
17 9 10 8 37 95 64 67 41 62 61 71 85 89 92 70 61 58 65 84 74 72 67 71 86 94 94 86 88 86 88 94 88 97 94 90 87 92 92 98 98 95 94 96 89 64 34 28 35
13 10 27 12 19 57 42 47 40 38 48 62 98 60 60 53 48 44 47 72 80 64 56 69 72 89 92 91 91 92 72 82 84 86 90 71 77 80 79 94 96 98 96 89 52 32 33 47 52
10 8 23 10 15 27 61 23 19 22 22 57 94 53 38 36 30 24 33 39 55 48 58 58 67 73 85 79 97 100 68 56 66 99 81 78 92 80 91 94 100 97 93 68 79 75 75 64 45
10 8 7 9 24 68 87 49 22 26 30 82 84 38 31 34 34 34 43 33 33 42 43 41 45 54 82 96 81 70 75 67 62 69 87 100 86 92 88 95 99 99 94 98 97 81 48 31 21
10 11 7 36 56 77 90 93 59 57 37 59 84 30 39 46 46 48 52 58 42 35 33 28 36 41 78 72 82 91 81 72 68 68 95 83 89 92 96 100 98 96 100 98 93 62 25 19 17
13 29 47 53 58 90 93 67 50 89 97 90 97 49 51 50 54 74 64 60 50 68 65 56 50 51 57 65 79 74 72 74 83 96 94 94 89 93 99 94 95 95 96 94 67 30 20 19 15
21 40 65 48 98 99 93 47 72 86 85 93 91 79 38 36 59 72 78 90 76 69 60 54 53 57 54 76 80 68 77 92 91 83 82 91 97 90 87 95 96 97 91 73 37 20 19 16 14
26 52 83 93 91 92 98 73 71 64 74 83 96 92 39 43 35 66 69 69 64 59 64 63 62 69 70 67 64 69 79 78 71 79 80 78 77 90 96 93 94 93 98 60 21 18 16 14 13
17 37 78 100 91 98 80 65 60 97 95 75 74 58 41 30 21 29 36 64 64 55 59 50 48 45 44 48 53 52 65 67 65 60 50 40 47 55 68 79 76 59 85 61 19 20 17 15 16
11 30 39 98 78 81 83 48 56 66 97 62 47 50 67 24 18 20 20 24 23 24 24 23 28 29 25 18 17 20 24 29 33 35 40 42 43 47 44 72 75 70 76 76 30 27 30 46 53
20 39 36 75 69 82 76 72 59 51 96 70 54 33 44 42 18 15 18 18 18 17 17 17 16 15 15 16 18 20 22 25 27 32 41 46 45 40 39 37 71 77 85 94 88 85 82 73 72
20 49 40 49 82 67 68 60 97 84 77 55 32 20 20 30 16 11 13 13 15 15 13 12 12 12 12 12 13 14 14 12 12 18 40 56 47 39 40 36 40 55 73 76 80 87 94 94 89
21 64 57 61 42 39 40 46 94 80 51 61 78 44 18 17 17 16 35 58 51 39 29 18 18 23 29 26 26 26 23 18 12 11 24 50 58 58 70 70 69 85 94 92 83 89 85 88 98
24 48 41 58 34 35 64 65 99 89 83 68 55 36 52 21 18 32 57 51 42 48 49 39 40 49 44 43 41 28 17 32 47 22 33 51 48 44 55 94 62 64 64 71 82 98 96 98 93
19 22 31 35 29 45 71 86 67 83 76 72 48 40 51 38 24 34 47 46 21 26 38 46 52 53 51 44 29 41 45 34 61 59 38 31 29 24 26 52 50 52 73 72 72 78 90 95 88
18 20 32 36 32 46 55 70 72 50 71 69 50 34 37 33 27 27 38 39 35 39 44 36 35 24 26 30 20 11 14 24 26 41 56 32 20 19 30 51 73 75 63 56 57 49 47 40 26
27 27 73 61 25 61 93 96 69 54 53 61 72 52 34 23 23 24 26 27 44 65 55 39 31 25 21 23 21 15 22 22 45 27 49 96 68 33 80 100 97 98 82 54 50 47 47 21 14
31 35 95 56 61 48 95 99 97 91 86 62 57 50 32 33 28 31 31 33 37 44 49 47 44 34 22 18 22 20 18 38 64 24 47 34 34 99 95 98 87 96 83 69 55 61 51 16 11
26 25 100 89 98 45 95 81 97 89 92 68 64 36 31 33 36 34 35 36 38 42 45 39 58 54 40 23 20 22 19 19 23 38 56 94 98 98 85 58 70 61 52 63 75 68 29 11 12
64 30 42 66 71 62 86 89 82 88 69 89 90 60 42 30 36 37 37 44 55 45 35 44 58 55 50 40 54 86 72 74 88 98 96 99 64 51 48 61 45 52 69 77 76 26 12 14 18

GFSSGP_500_rhum_072.txt.gz
RH
20 19 18 20 18 18 13 14 14 29 66 75 86 90 77 70 66 67 87 90 99 86 88 72 62 64 75 96 98 94 79 95 96 83 82 78 70 63 61 57 65 62 68 65 61 55 51 51 44
24 21 22 22 20 13 13 22 27 46 52 88 91 87 74 78 68 55 58 71 88 90 94 84 86 83 71 97 90 99 98 91 87 84 82 78 82 81 69 57 55 54 64 63 62 59 57 57 54
22 28 25 23 17 9 16 34 62 60 70 78 67 57 57 67 76 71 65 66 83 93 86 96 79 80 62 90 96 98 96 90 86 79 83 88 100 83 69 61 60 49 45 43 52 56 51 61 66
27 31 27 21 9 10 16 40 48 86 78 71 75 71 65 53 57 48 65 73 78 80 97 97 84 72 65 86 96 96 90 85 82 68 68 86 90 73 65 63 66 64 48 34 40 38 38 66 72
31 33 27 15 11 20 35 51 72 95 82 85 66 52 66 73 68 56 48 49 68 75 96 90 78 62 48 77 83 92 96 90 81 59 94 82 93 73 70 70 67 72 62 44 39 40 47 65 81
35 35 20 11 15 33 54 85 98 100 68 53 52 55 38 38 37 79 78 55 62 86 93 96 93 92 96 93 96 96 95 79 89 92 79 89 92 72 74 71 66 68 77 60 48 42 45 66 82
40 32 12 7 12 31 70 100 97 88 54 49 54 40 63 47 80 73 75 80 80 94 98 97 94 97 96 88 94 95 96 96 88 80 78 73 79 80 86 82 76 79 77 70 59 68 73 66 86
44 24 12 8 17 35 66 100 70 56 45 50 45 40 55 78 60 76 89 93 73 81 71 90 94 94 93 95 96 97 99 96 98 97 90 75 72 81 92 80 85 82 81 74 74 88 94 80 100
44 18 13 9 10 54 73 93 56 40 43 30 52 63 79 61 56 65 98 90 84 87 70 96 96 95 91 81 88 96 96 96 98 100 67 98 83 87 90 85 95 95 94 90 85 96 96 84 99
43 18 13 7 12 39 46 64 46 54 22 23 48 68 72 76 62 67 73 87 85 94 94 93 97 94 97 89 69 90 98 96 93 95 97 89 94 94 92 95 97 96 97 95 86 98 97 77 82
34 15 11 8 26 24 43 32 22 33 23 22 38 53 64 66 55 61 58 56 63 64 79 84 85 80 89 86 91 87 85 93 96 95 93 94 96 96 98 93 93 97 97 95 97 97 96 73 53
36 14 9 7 10 19 38 23 17 18 28 27 31 57 77 48 39 36 45 43 50 63 62 65 67 79 90 88 95 96 94 94 94 97 96 94 95 94 87 84 94 93 93 98 96 96 76 49 30
31 15 10 8 6 13 19 18 14 23 20 31 39 79 68 42 36 32 28 27 37 61 58 60 67 69 74 94 98 92 93 96 97 93 95 96 84 84 87 86 84 92 99 99 94 79 47 35 45
48 13 12 9 9 51 62 39 48 52 62 45 61 82 53 32 29 26 28 27 31 39 44 44 50 59 52 82 93 95 83 90 94 91 93 80 77 93 87 89 85 93 97 100 92 84 79 76 60
33 12 23 19 53 84 63 56 63 68 93 87 98 58 37 30 33 38 40 42 42 36 46 55 53 42 50 74 88 88 88 90 77 73 84 92 97 93 85 89 91 99 98 100 100 92 86 61 33
31 14 41 42 66 89 74 58 67 60 60 89 87 84 28 34 34 37 43 49 46 65 65 75 59 56 64 80 89 76 92 82 82 76 82 91 99 93 95 86 98 100 99 99 97 94 65 29 21
19 18 28 62 53 54 68 74 97 64 40 92 70 82 48 32 35 47 47 57 58 65 83 76 67 66 75 67 69 83 82 82 81 82 84 86 91 86 93 98 99 96 98 92 83 65 37 19 18
24 17 14 31 69 86 75 94 76 50 78 100 66 63 59 35 32 51 61 64 67 68 64 59 57 61 61 61 65 67 70 77 84 78 78 82 86 94 97 94 86 92 90 90 76 66 22 20 20
31 16 15 22 56 100 99 82 56 32 70 91 78 51 61 37 20 33 51 64 50 47 76 61 71 83 77 72 66 75 75 71 68 70 69 79 88 92 86 82 81 88 91 93 87 50 22 20 20
49 15 19 18 40 99 100 76 56 63 66 94 69 69 48 29 19 20 24 29 55 40 41 40 43 41 40 43 58 70 63 57 53 50 39 35 41 45 47 59 79 77 80 72 79 74 30 22 20
41 14 26 15 64 82 78 82 61 60 63 91 46 54 42 33 16 19 19 19 18 20 21 24 23 20 16 17 22 28 29 27 25 24 28 28 33 40 38 45 50 70 68 79 96 92 67 60 64
58 20 15 28 35 53 78 49 53 64 83 67 38 25 30 24 12 11 12 13 15 15 15 15 15 13 12 12 13 14 16 15 12 12 17 39 44 35 34 38 35 41 44 45 57 56 52 51 67
67 21 19 34 33 40 61 42 48 80 67 50 47 19 23 24 18 23 33 15 9 9 9 9 9 9 9 9 9 10 10 9 10 10 21 34 43 58 50 48 66 74 77 80 74 71 65 86 78
70 28 18 41 44 31 52 46 27 62 69 61 34 24 28 21 20 38 61 47 31 21 17 14 11 11 12 14 16 15 13 16 26 30 18 48 41 47 68 63 75 67 47 46 65 70 70 66 66
56 18 26 19 28 26 58 26 50 74 70 55 29 24 26 32 29 28 50 49 34 22 34 37 37 31 26 26 20 19 28 19 41 50 50 40 38 42 34 30 39 49 68 68 59 57 60 55 46
61 20 16 16 27 35 50 26 65 63 46 52 40 25 23 24 30 38 32 41 39 30 33 35 36 34 30 28 25 23 14 16 28 38 60 68 47 30 21 18 21 43 80 79 83 72 64 55 47
84 47 31 28 22 31 50 48 56 62 40 58 56 52 37 28 26 29 44 50 42 38 42 50 52 39 28 26 26 30 27 33 59 52 49 71 66 76 87 74 67 99 99 100 96 77 63 55 61
94 67 55 29 42 26 49 78 70 50 36 50 48 43 42 28 26 27 30 35 44 51 52 45 46 49 52 47 25 28 31 24 56 83 72 91 74 69 46 73 96 99 98 98 93 59 56 72 81
98 70 93 50 52 45 63 84 73 54 58 72 75 64 51 33 30 26 28 32 38 41 49 71 78 76 66 80 77 74 34 26 20 45 60 80 96 97 98 98 94 98 98 93 80 77 74 78 48
98 52 63 38 30 82 100 81 86 66 51 65 74 85 58 57 35 29 22 21 24 31 47 56 75 69 83 93 100 98 98 94 74 55 94 96 97 97 98 92 80 95 98 84 80 87 65 39 14

GFSSGP_500_rhum_075.txt.gz
RH
16 24 25 23 25 21 20 17 14 12 14 15 23 35 43 59 70 74 78 76 79 72 67 74 75 68 81 73 64 72 96 95 100 90 79 96 86 72 73 67 65 68 66 63 74 88 74 55 51
26 28 26 28 25 23 17 15 13 13 27 35 46 45 48 53 53 58 60 56 70 73 67 73 79 97 74 71 48 55 81 91 93 97 92 95 97 80 88 78 65 59 56 55 56 67 66 58 56
26 30 29 31 26 17 16 13 12 30 43 42 84 86 84 80 63 40 39 47 55 69 90 82 88 97 87 94 90 52 57 93 88 96 98 91 97 72 91 84 67 58 58 66 61 76 67 66 63
25 32 34 30 19 14 15 16 29 43 38 78 85 84 88 72 53 48 60 64 34 52 68 79 81 86 91 96 97 86 60 96 96 98 98 91 84 96 94 89 67 64 64 67 48 45 56 63 62
30 33 38 27 15 13 11 16 28 41 72 66 55 51 51 43 43 36 36 42 68 46 54 51 64 72 84 100 82 72 77 82 96 97 92 98 72 84 94 91 70 64 59 60 63 50 46 44 51
36 37 41 26 14 10 14 16 22 50 71 39 53 59 61 56 76 70 72 64 74 79 59 55 66 90 96 98 83 73 80 90 96 83 96 87 72 89 93 92 70 64 61 64 70 70 54 52 55
38 41 40 28 15 13 18 23 16 42 54 55 48 46 46 88 96 77 59 62 69 68 71 71 70 83 97 97 97 97 91 96 96 95 98 72 78 90 92 80 74 71 70 67 68 76 73 68 65
39 46 41 19 16 20 15 18 32 46 54 35 33 39 61 99 97 81 81 67 66 78 93 85 83 70 95 95 78 83 93 96 96 96 97 80 88 97 90 87 81 73 72 72 82 85 76 72 80
45 51 39 18 16 20 12 12 24 22 18 29 22 41 65 78 75 60 63 73 84 81 71 72 76 92 95 72 75 95 97 97 96 97 98 93 96 79 86 98 80 74 68 75 81 89 87 80 89
55 54 30 17 15 14 10 8 9 14 13 12 28 49 52 52 62 50 60 75 80 89 75 66 84 91 85 85 93 92 96 96 96 96 91 96 87 72 78 78 74 83 83 84 78 96 99 94 95
61 57 32 16 13 13 8 8 8 10 9 11 15 18 43 67 63 44 47 57 58 76 85 84 76 81 78 88 90 86 86 96 95 92 93 89 94 95 94 90 95 94 97 97 96 89 94 97 93
63 57 32 16 13 12 7 7 9 12 17 12 15 31 40 65 71 50 34 35 43 47 71 72 77 81 86 88 86 97 97 96 97 92 96 94 96 97 96 96 96 96 97 97 96 90 99 97 94
63 56 44 14 11 9 6 9 13 29 28 33 55 67 67 74 48 28 24 23 27 28 40 66 61 69 91 91 96 98 93 88 90 96 96 97 98 97 97 97 93 97 99 97 90 84 100 89 65
68 60 40 13 14 11 9 17 26 38 40 53 71 81 69 40 24 30 30 24 30 27 42 60 57 69 75 94 96 100 96 96 93 96 96 97 95 96 96 95 95 90 87 90 88 98 92 67 64
66 59 26 16 20 28 16 30 32 31 48 60 67 69 74 40 29 32 46 46 43 40 29 37 40 51 58 65 91 79 83 94 94 95 94 97 100 88 90 94 93 91 81 91 95 94 94 83 90
69 61 23 20 30 41 36 53 44 52 32 49 65 49 72 50 35 38 56 62 56 36 34 34 52 86 58 60 86 88 93 90 98 90 100 98 87 100 100 100 97 89 86 91 96 99 95 96 89
71 63 29 19 29 48 48 48 64 51 31 54 49 58 67 60 35 49 62 72 72 41 32 35 44 48 55 56 87 98 88 100 100 98 95 87 94 100 100 99 95 84 95 98 100 100 98 96 52
69 61 30 20 40 48 61 50 73 54 66 66 49 56 59 60 32 48 71 61 60 54 51 36 56 70 96 81 79 84 99 95 96 90 92 87 92 87 94 95 82 93 96 96 98 98 91 57 27
77 62 48 23 26 24 71 48 61 47 58 63 68 44 54 52 24 31 59 62 46 59 51 62 65 66 74 89 88 91 100 95 87 83 90 85 87 84 73 83 99 98 92 96 100 100 99 75 29
81 75 60 27 21 20 40 36 58 45 46 66 68 48 54 60 22 21 27 52 46 43 59 74 82 84 74 77 76 93 97 96 82 76 76 77 74 78 80 91 87 100 100 99 90 87 100 86 42
78 75 68 33 30 25 26 33 63 44 41 56 75 52 44 31 19 20 20 22 34 32 38 33 35 45 51 63 71 78 73 62 69 64 56 55 54 56 61 64 65 76 90 93 82 84 91 92 79
70 76 75 38 17 26 31 24 40 37 55 62 83 39 26 23 18 16 18 18 17 18 20 21 21 18 22 30 45 48 47 42 33 27 25 27 32 38 38 42 41 53 57 78 65 64 64 64 63
91 93 95 64 25 17 15 24 41 38 58 51 38 22 24 25 10 11 11 11 12 13 14 13 12 12 13 16 20 21 20 16 14 19 25 44 45 40 39 41 36 34 34 44 71 94 87 100 69
100 92 99 79 27 16 20 29 30 38 53 52 40 25 20 18 16 16 14 17 14 13 12 11 10 11 13 13 16 21 20 20 17 16 27 48 61 72 66 61 63 75 80 90 79 84 93 92 80
83 83 86 74 33 11 31 24 43 48 44 60 44 35 33 29 19 16 30 33 32 25 29 28 30 31 25 24 25 22 19 18 35 49 53 44 47 52 68 74 73 67 61 77 81 98 98 80 70
80 79 88 83 40 17 22 17 47 49 48 55 53 27 27 28 26 22 28 38 37 35 27 34 36 34 32 27 26 29 28 31 39 37 50 66 61 48 38 34 33 26 23 34 60 96 90 98 96
91 71 94 86 47 17 18 16 49 34 39 47 40 29 27 28 26 29 28 31 37 38 38 36 40 38 36 34 29 28 31 34 30 28 38 72 85 82 74 71 62 61 56 57 90 100 99 96 83
100 100 96 87 47 18 13 15 22 36 46 47 41 34 34 30 28 29 31 35 36 38 38 37 44 42 43 44 44 37 29 26 33 29 34 69 77 89 98 94 91 97 85 93 93 99 97 96 79
97 83 88 91 75 39 20 24 20 42 54 56 41 44 55 57 32 31 33 48 49 50 60 62 42 46 78 71 60 57 56 58 57 35 24 39 79 88 98 99 98 96 96 98 98 98 98 96 75
98 96 90 98 81 45 21 31 30 49 66 53 37 69 68 69 38 42 32 31 34 46 56 69 64 54 66 100 98 98 97 98 98 98 98 91 98 94 97 98 97 96 93 93 97 96 96 90 78

GFSSGP_500_rhum_078.txt.gz
RH
18 15 21 25 29 30 26 23 21 19 14 14 12 12 18 40 50 58 63 70 63 80 88 85 87 82 69 65 62 58 60 54 57 86 96 93 63 79 76 69 64 64 66 70 70 68 68 75 74
19 16 23 25 31 30 26 23 20 16 14 17 20 18 26 33 38 46 59 62 65 74 75 69 75 69 69 77 87 82 67 58 61 90 90 86 64 69 77 74 69 70 65 67 64 64 72 71 66
20 19 23 32 33 31 27 22 18 14 13 16 28 27 19 21 26 30 31 32 46 76 57 50 79 79 91 87 94 96 74 52 51 71 92 91 72 72 88 75 72 68 64 64 63 63 64 70 60
23 23 31 39 36 33 26 21 14 12 14 21 24 18 28 29 31 44 46 46 40 54 58 39 62 82 93 86 95 97 96 86 84 63 71 84 74 80 97 86 73 72 64 68 66 62 53 56 55
28 29 38 40 39 36 30 19 12 12 22 28 21 24 36 38 38 34 47 69 59 48 78 91 73 76 88 74 90 95 96 96 97 65 97 95 93 76 99 93 68 77 73 71 69 64 61 56 45
34 33 39 42 42 38 25 15 12 16 24 25 25 29 41 33 48 86 90 95 78 81 91 91 64 52 49 60 79 89 81 76 81 55 68 95 93 72 95 96 86 85 74 70 73 72 74 75 66
37 38 42 42 45 35 20 15 13 12 19 14 20 29 29 37 71 93 86 74 89 79 92 98 89 72 71 96 87 96 95 90 86 79 87 96 96 63 75 89 89 85 74 72 77 79 73 86 84
42 45 46 49 49 28 18 12 14 10 14 12 16 20 22 35 63 75 71 58 65 84 77 98 100 97 95 89 93 96 94 88 88 94 96 97 89 66 67 97 100 93 82 81 89 90 82 86 85
46 47 57 57 49 24 14 12 14 10 13 11 10 17 23 31 54 55 59 60 57 85 89 92 97 97 91 93 80 92 91 92 98 97 95 96 94 76 73 88 100 91 95 90 86 90 95 96 98
46 47 62 59 49 24 15 12 8 9 14 9 14 24 32 27 29 42 48 49 57 62 83 88 77 95 97 75 96 89 94 92 97 97 95 91 83 81 94 87 97 98 97 87 86 95 95 98 99
42 52 65 63 49 30 16 12 7 9 14 9 10 13 14 17 45 49 46 34 37 52 58 70 95 95 99 90 89 95 94 94 97 97 92 96 90 99 95 99 97 98 100 91 99 90 99 98 97
40 63 70 62 48 40 15 12 5 8 14 9 10 18 28 48 63 64 44 23 24 32 44 51 62 80 83 86 80 82 78 92 98 95 94 91 97 96 96 96 96 99 82 96 96 96 99 99 95
47 66 68 62 56 34 14 14 6 12 13 25 44 64 64 59 58 38 23 21 22 24 29 42 50 67 68 96 99 88 92 92 98 97 95 94 96 96 97 92 94 96 94 98 98 96 95 97 93
52 59 69 64 55 32 15 16 10 19 21 35 70 68 50 53 44 30 32 29 27 27 27 30 50 61 67 92 100 93 98 98 96 97 96 97 97 97 96 94 96 98 100 98 100 98 95 95 99
54 59 67 66 56 28 18 24 24 32 40 35 60 78 62 58 56 33 36 41 39 45 36 30 59 61 70 82 96 97 98 97 96 95 98 97 94 95 97 97 97 98 95 97 96 98 97 96 96
50 61 70 67 55 31 21 32 32 33 47 39 39 70 51 68 47 35 45 42 56 62 53 50 36 47 46 64 86 97 97 92 90 98 97 97 95 97 94 98 97 96 95 95 96 95 97 99 100
55 74 77 70 58 38 22 25 69 50 47 36 37 57 46 43 69 35 46 52 59 66 70 52 42 37 52 62 82 98 98 98 99 97 98 97 95 97 98 97 96 93 94 96 95 97 97 100 94
76 83 63 69 56 40 25 20 32 43 53 36 54 57 48 42 63 33 38 57 56 56 62 62 52 48 56 56 92 98 96 98 99 96 86 88 98 95 88 92 94 97 99 99 93 98 100 99 100
73 68 50 69 50 42 30 20 25 33 46 52 54 50 45 50 58 25 33 57 49 52 59 67 77 66 63 56 94 100 98 98 98 97 98 97 98 97 100 98 98 99 100 96 100 100 99 98 94
81 74 67 78 69 53 40 25 20 41 34 54 65 57 43 56 58 22 23 30 53 43 74 78 72 78 76 100 91 96 90 88 97 98 98 100 94 96 99 100 99 100 98 97 100 91 92 95 83
85 73 79 92 77 66 63 34 16 34 27 54 64 57 51 44 27 19 20 22 37 33 35 58 72 73 77 74 90 91 93 86 92 93 99 89 86 85 86 86 96 100 98 100 86 85 82 63 68
75 78 94 100 93 72 64 45 15 26 36 48 65 61 44 32 32 17 20 19 19 18 21 26 20 29 55 73 96 99 96 95 93 78 74 77 83 85 89 93 93 95 91 92 87 75 62 60 75
90 78 100 98 88 75 70 53 16 21 51 58 60 41 29 29 18 12 12 14 14 15 16 16 16 21 18 19 48 54 58 64 54 50 42 44 46 50 51 51 49 48 54 54 56 64 53 47 48
100 83 80 78 80 59 65 65 12 21 51 44 36 29 20 22 20 11 13 13 22 16 13 13 13 15 23 19 24 29 35 32 28 32 32 34 37 40 40 40 42 43 41 34 35 40 69 83 74
77 84 66 61 67 47 69 67 14 22 36 45 46 29 22 23 19 18 28 35 31 32 38 20 17 21 23 25 23 20 18 16 14 16 18 22 33 51 64 61 52 46 44 46 55 68 84 81 88
81 83 67 68 66 81 86 66 13 29 21 46 51 32 25 26 31 21 26 45 47 40 34 49 50 44 42 38 33 33 29 27 28 27 32 44 40 36 41 47 48 44 42 40 35 29 42 72 84
74 63 76 79 78 79 78 67 16 25 26 39 53 46 26 29 29 26 24 32 46 46 42 34 36 40 45 42 41 35 28 31 32 30 30 35 40 42 47 58 61 55 48 41 37 59 39 73 93
60 95 97 78 64 66 62 66 32 22 31 40 44 47 32 30 29 24 23 30 32 37 38 39 41 47 46 44 42 39 34 30 29 28 29 28 31 42 76 70 75 87 86 95 96 93 96 93 94
67 74 77 85 65 57 69 56 47 15 26 43 54 52 52 51 37 27 27 28 34 37 37 43 68 77 72 78 66 58 63 64 55 47 44 40 45 38 54 76 95 98 98 99 95 99 97 97 100
77 90 100 96 70 72 81 57 71 31 18 35 56 52 50 51 54 40 36 33 33 35 46 53 63 72 86 89 99 98 97 97 98 98 98 97 93 100 94 94 100 99 97 96 71 86 88 93 97

GFSSGP_500_rhum_084.txt.gz
RH
17 13 17 29 23 22 21 21 26 32 32 28 22 16 12 8 10 13 9 8 10 12 21 22 37 44 42 31 46 41 31 64 69 54 42 39 56 78 94 96 95 79 62 55 54 64 65 62 69
14 10 19 30 26 25 28 30 33 35 34 26 19 13 9 9 8 10 10 13 12 14 17 28 47 51 56 55 53 54 43 43 47 71 70 47 67 97 82 95 94 80 59 60 58 60 59 66 69
15 12 16 28 32 30 31 33 36 37 34 23 16 10 6 9 10 10 10 14 17 18 26 28 66 48 53 61 62 71 88 79 48 48 80 64 52 73 98 91 98 74 60 62 58 62 66 67 68
17 16 21 30 32 32 34 37 39 40 32 21 14 7 8 11 10 12 13 13 22 31 34 50 56 74 61 60 96 95 95 96 96 98 95 85 77 70 98 98 95 75 66 60 56 58 58 62 67
19 15 20 33 33 31 35 42 43 37 30 22 12 9 10 11 12 13 15 24 40 35 60 71 72 74 88 89 93 85 88 94 73 88 96 90 72 68 97 94 90 74 70 63 63 61 60 59 64
18 18 21 36 36 30 33 42 46 36 31 23 12 8 11 10 13 18 19 38 48 32 48 59 71 80 90 80 86 70 65 59 61 91 95 82 71 87 90 96 91 80 70 70 66 60 61 65 62
21 21 26 42 36 37 36 44 48 38 35 27 12 7 10 10 13 20 19 29 48 41 45 56 65 90 98 85 69 76 68 64 94 96 96 88 65 92 80 97 97 97 90 70 64 67 63 64 69
24 25 28 44 36 39 38 45 45 41 38 32 12 8 9 8 10 13 15 17 29 40 40 48 60 93 94 86 96 78 82 83 95 94 96 96 96 76 82 79 100 98 74 75 67 72 66 66 74
27 29 38 48 37 42 38 46 42 44 43 25 12 7 8 10 12 13 13 14 23 28 42 39 50 86 93 96 89 93 96 94 99 95 97 97 97 95 79 88 98 95 88 88 84 74 68 68 73
33 32 44 41 42 43 39 46 44 47 47 18 12 6 8 11 15 13 10 11 31 35 45 33 33 62 89 96 94 96 97 91 95 95 96 97 97 95 74 92 95 96 97 86 80 82 72 71 73
39 37 40 52 47 44 44 43 45 48 40 18 12 6 8 11 12 14 35 43 48 50 44 35 25 39 84 96 97 98 95 94 94 92 93 83 96 95 94 97 95 96 96 91 85 89 76 75 71
40 41 45 57 51 44 42 39 49 52 38 19 12 7 10 12 18 39 45 46 26 30 27 26 20 30 58 97 96 97 93 88 91 99 96 98 96 98 96 92 99 97 96 94 86 86 79 80 71
46 46 45 51 53 47 38 46 48 54 32 18 14 12 14 18 16 44 40 40 26 23 29 28 22 22 48 85 97 99 95 95 96 96 90 89 94 96 96 96 97 97 92 96 92 89 82 76 69
48 49 49 50 50 46 40 40 55 47 31 22 16 20 22 23 21 47 43 42 26 22 29 26 29 27 28 70 88 76 76 93 94 94 97 97 96 96 97 96 97 96 91 96 92 88 78 72 93
53 56 55 54 54 46 36 42 59 47 36 28 18 20 33 28 24 35 45 39 28 22 36 35 43 37 27 54 77 73 80 81 93 96 96 97 96 97 95 95 98 93 93 94 91 83 80 93 97
57 54 62 64 62 48 35 50 61 52 41 30 21 21 28 35 28 30 40 37 39 25 34 44 51 43 29 48 62 74 85 96 97 96 97 96 95 96 95 92 93 95 92 95 96 96 97 97 94
55 53 71 84 65 59 43 53 62 55 49 35 24 16 21 30 32 53 45 40 39 26 34 43 53 46 35 60 68 73 85 88 92 96 96 97 96 94 94 97 96 97 98 97 97 96 97 92 94
70 63 84 76 63 72 48 54 59 62 56 43 28 17 24 35 43 59 42 42 35 27 35 48 49 46 41 54 74 76 88 95 98 97 97 97 97 97 97 97 96 96 98 94 98 94 95 98 93
75 69 70 77 64 72 55 63 56 64 62 52 40 17 27 26 41 54 40 45 30 26 45 39 50 49 40 44 61 62 85 95 96 96 96 96 97 97 94 88 92 95 98 95 88 95 98 94 92
72 65 69 82 71 73 64 55 49 54 69 64 35 19 25 23 56 50 37 44 23 32 38 36 63 62 52 56 72 85 94 95 95 96 96 97 97 94 94 96 96 96 96 95 96 96 94 94 87
79 70 83 73 79 71 58 51 48 48 65 56 24 20 22 28 48 43 35 25 19 21 24 42 72 82 73 76 98 85 83 83 95 94 96 95 97 96 96 97 94 91 94 96 98 100 89 82 79
68 86 73 74 81 65 57 51 39 58 68 66 41 24 23 31 37 36 31 25 20 17 17 35 49 42 85 89 85 87 98 98 96 94 93 97 97 96 96 93 92 93 93 98 98 87 83 75 74
75 84 74 73 72 65 60 45 38 53 76 74 40 20 24 26 37 33 16 13 16 15 16 17 34 60 34 75 96 97 96 96 94 87 94 96 96 96 96 98 99 85 83 88 79 72 66 67 77
50 58 62 61 62 45 52 48 36 58 70 63 41 19 29 36 42 24 23 13 8 8 10 11 13 20 36 24 80 97 97 100 99 94 93 93 97 92 75 63 52 50 58 58 58 55 64 68 67
37 39 54 53 46 41 38 46 44 49 88 62 22 20 29 35 32 21 19 18 19 16 11 10 9 10 11 11 15 34 54 48 53 45 38 43 42 34 22 20 32 46 48 36 31 34 32 29 31
25 34 55 65 80 62 38 33 37 55 83 67 38 21 24 35 35 22 21 23 20 24 24 22 15 23 31 14 12 11 12 16 16 13 12 12 13 12 10 12 18 20 22 24 26 28 32 34 37
14 19 26 38 46 48 50 38 36 48 79 75 32 26 30 37 44 39 23 22 20 20 28 30 29 29 33 27 24 23 21 18 16 14 13 14 16 15 16 19 22 24 27 30 31 32 34 36 37
18 16 16 20 24 35 30 32 38 46 78 84 32 24 30 36 51 32 29 21 21 21 25 30 34 37 34 32 30 28 24 22 22 19 20 20 20 21 23 23 26 30 33 36 38 44 52 63 73
9 14 15 14 15 19 24 58 40 47 63 90 49 27 37 34 48 57 58 24 22 22 24 30 31 31 35 42 37 40 40 40 34 32 31 33 35 30 29 29 31 36 37 37 40 54 75 96 93
9 9 12 13 16 15 17 31 58 72 63 88 82 26 50 58 57 67 60 29 29 26 27 33 38 40 41 43 55 59 67 70 81 90 92 94 100 89 52 39 48 80 81 76 68 66 60 81 76

GFSSGP_500_rhum_087.txt.gz
RH
17 19 17 12 14 18 28 50 26 31 31 31 32 27 21 17 11 12 10 6 5 5 5 5 6 8 12 18 24 27 17 18 19 20 38 49 66 64 49 44 83 92 94 95 92 80 57 62 58
18 20 18 14 14 37 42 49 31 36 36 33 31 25 20 14 9 6 5 5 5 6 6 8 11 16 22 30 50 74 70 42 34 31 57 64 55 47 35 45 81 98 97 93 95 88 89 63 62
18 20 19 14 13 31 47 46 31 38 39 36 30 25 21 13 6 4 5 5 6 8 11 17 18 28 43 49 54 66 73 88 71 57 33 69 66 40 83 82 88 98 95 94 95 80 63 60 66
19 21 20 14 14 49 27 30 32 38 30 34 30 26 24 12 5 5 5 7 8 12 32 35 44 48 36 42 68 64 75 100 98 98 84 42 52 46 76 94 96 96 91 93 93 83 69 63 65
19 22 21 13 18 30 17 32 36 38 36 34 32 24 24 11 5 5 6 9 10 18 43 33 28 38 48 56 57 66 91 97 96 95 96 77 90 92 51 57 99 86 89 94 86 72 67 64 65
21 24 22 17 56 54 18 30 37 37 40 38 36 31 22 8 5 6 6 8 13 20 39 37 32 36 46 55 92 88 85 97 92 96 96 96 96 96 93 76 99 96 83 92 77 70 68 60 65
24 26 24 20 32 34 30 29 38 40 43 41 38 34 22 8 6 6 6 7 10 14 18 26 33 39 45 79 96 80 80 97 97 93 97 79 92 97 64 87 98 92 85 80 72 71 67 63 69
26 28 27 23 32 34 40 32 35 40 47 43 44 33 17 6 5 6 7 7 8 11 14 22 31 35 41 87 96 84 65 92 93 84 94 98 95 96 88 79 96 95 80 74 74 68 63 67 63
29 33 31 29 41 34 39 39 37 34 43 45 48 32 14 8 6 6 7 8 9 9 12 22 33 40 29 94 99 59 73 95 96 99 92 96 96 96 80 93 97 97 94 77 81 72 68 69 66
34 38 36 37 35 35 46 43 46 36 47 53 39 24 15 7 6 6 7 8 16 35 40 47 44 32 27 74 92 84 85 93 96 97 95 96 97 96 87 85 94 98 95 92 84 72 74 81 70
42 40 43 38 36 36 46 47 41 38 53 54 49 28 15 7 7 7 10 32 27 44 31 27 40 29 20 44 94 95 95 88 95 92 96 97 98 97 97 93 83 89 91 94 78 78 82 73 72
40 46 47 44 41 37 49 42 37 41 61 52 46 20 13 10 10 9 12 41 30 40 37 20 20 19 17 29 62 95 95 90 96 93 96 97 96 97 97 96 85 92 97 95 91 89 93 77 73
42 52 44 49 43 42 51 40 30 45 60 45 38 24 14 13 15 14 14 42 41 34 36 23 23 23 25 23 48 92 93 96 96 95 96 93 96 97 97 96 83 83 92 96 96 95 86 84 82
56 54 41 47 47 50 56 44 26 65 43 48 40 29 21 12 17 18 20 23 43 30 37 20 19 21 29 25 31 70 100 98 97 92 92 97 97 96 96 96 94 96 94 97 98 95 95 93 83
55 53 51 48 55 58 60 43 38 65 50 50 46 38 24 15 17 23 23 22 30 35 35 23 31 27 27 36 26 48 82 78 83 89 81 91 95 95 95 97 93 96 96 96 96 96 95 96 85
58 60 51 55 67 66 70 43 46 57 58 55 50 44 30 17 15 21 24 32 43 36 37 30 25 32 37 36 28 46 67 79 74 82 88 68 82 87 97 97 97 97 96 97 96 95 95 97 97
53 50 53 56 77 84 66 56 55 51 55 58 56 53 40 27 16 23 25 36 42 37 38 27 28 37 44 38 31 48 60 69 71 71 87 98 94 92 96 96 97 96 97 96 96 96 96 96 96
70 55 53 68 89 96 63 54 56 58 53 52 62 58 52 31 16 22 29 41 43 42 36 27 24 36 38 39 33 49 69 70 78 87 94 89 90 96 97 97 96 96 96 95 96 98 97 96 94
99 77 85 76 100 96 58 59 53 55 54 59 62 63 61 19 17 18 28 41 42 43 28 28 34 26 32 41 35 54 71 66 73 88 94 97 97 96 98 98 97 96 97 97 98 96 96 94 96
95 86 75 77 78 87 64 66 52 52 52 54 65 66 54 16 14 19 33 40 44 28 24 27 38 45 49 45 37 47 75 88 77 94 96 98 96 96 97 95 92 92 97 95 98 96 96 96 96
95 95 99 92 95 100 63 63 57 53 53 58 64 54 54 19 15 22 33 34 31 20 17 22 44 72 68 61 41 63 86 98 93 96 96 95 96 97 94 88 92 96 96 96 94 95 96 98 95
94 99 98 95 89 88 94 62 53 52 51 61 62 56 58 18 16 32 35 24 30 20 17 21 32 43 70 90 63 86 96 98 94 96 96 96 96 96 96 95 96 96 95 95 98 97 99 98 97
90 96 95 98 93 97 80 75 42 54 57 66 57 49 57 18 21 30 35 27 13 15 16 14 19 29 45 32 79 79 90 97 96 96 94 95 96 96 95 96 96 95 94 96 99 100 96 91 79
99 96 100 98 95 77 72 71 66 46 70 60 64 58 52 16 24 28 28 23 16 9 8 8 11 31 18 23 68 85 97 97 93 95 95 93 90 94 96 96 95 84 78 92 76 74 61 65 69
97 90 97 98 91 68 76 64 80 54 71 76 62 58 27 14 23 29 26 18 18 22 18 10 9 8 8 13 20 86 97 97 85 89 88 91 85 92 75 63 56 50 42 50 50 48 56 68 70
99 98 90 81 100 100 98 98 99 42 62 69 63 60 46 16 23 31 28 18 21 18 19 21 17 13 27 16 12 17 39 40 40 39 38 28 30 34 37 37 28 24 24 33 28 31 42 46 43
28 82 65 86 98 99 98 100 97 50 52 64 65 62 58 19 20 36 40 22 23 19 18 19 22 24 28 32 23 17 13 13 12 13 13 12 13 13 12 14 17 26 22 24 28 33 35 40 37
73 47 25 37 42 87 100 88 80 75 42 49 63 57 62 21 19 38 44 28 21 20 19 22 23 25 32 29 24 23 22 20 19 16 14 15 16 16 16 18 20 58 37 25 42 51 48 36 38
85 95 52 31 22 38 100 93 98 100 54 85 72 51 68 35 18 30 44 35 25 22 22 20 23 24 25 31 31 30 29 32 30 26 24 23 24 25 25 24 28 55 24 34 55 52 42 41 53
41 42 22 20 34 95 99 77 100 93 52 55 66 61 64 58 22 25 33 48 52 31 24 22 22 23 27 30 31 38 38 43 54 58 60 63 68 76 85 80 36 36 32 34 39 45 50 57 56

GFSSGP_500_rhum_093.txt.gz
RH
12 9 15 22 21 20 20 22 36 25 31 31 26 39 33 31 28 26 25 23 22 19 8 3 3 3 4 4 6 6 6 6 9 14 16 18 17 30 35 42 67 58 62 58 68 86 83 66 60
23 20 20 22 23 20 24 18 46 59 44 25 32 36 31 33 19 27 27 26 23 8 4 3 3 5 9 19 19 16 21 22 14 11 12 12 22 28 24 33 56 72 57 66 77 88 80 51 56
26 27 26 24 24 22 23 19 36 38 13 25 29 23 30 18 19 26 27 27 19 4 3 4 4 7 16 21 25 30 27 39 48 53 55 50 44 20 26 30 42 75 71 74 87 79 57 54 75
28 26 26 25 25 23 28 29 21 16 22 34 25 28 18 16 18 22 29 28 14 4 4 5 6 10 19 22 27 26 34 36 31 35 74 97 93 96 30 37 37 56 81 99 91 91 82 84 88
32 29 28 27 26 24 29 71 62 27 28 34 17 32 22 19 15 21 34 30 10 4 4 5 8 13 20 24 22 26 27 32 42 64 89 94 96 96 97 75 57 61 68 79 81 98 91 95 95
31 30 30 29 28 25 24 35 65 32 18 39 24 26 28 18 18 33 36 27 8 4 4 5 6 7 8 13 16 25 32 38 44 48 70 89 92 96 96 97 96 72 50 71 88 99 93 95 87
39 31 32 31 29 26 27 66 65 39 16 42 26 26 26 16 28 33 36 26 6 4 5 6 7 8 9 11 12 19 33 34 41 71 84 67 83 97 96 96 97 82 91 82 95 99 94 96 96
42 34 31 32 31 28 51 69 70 51 16 36 27 30 21 14 26 41 39 20 5 4 5 6 8 14 28 23 28 33 34 35 52 87 73 77 83 97 97 97 94 93 90 82 97 98 96 96 88
41 32 33 36 34 35 43 81 75 35 24 37 40 32 28 21 26 43 30 12 6 4 5 7 18 21 28 20 35 38 36 34 89 89 79 91 67 96 96 97 96 96 94 73 95 97 95 94 95
28 30 38 41 38 35 44 63 44 31 29 30 42 43 23 16 24 33 32 18 9 6 6 6 14 16 22 22 20 30 26 33 91 72 83 98 96 96 98 94 96 96 97 89 63 97 94 93 84
37 22 42 41 42 39 40 41 41 38 35 36 38 49 27 28 30 33 32 26 14 8 7 6 18 18 20 18 22 23 21 36 91 78 95 96 97 96 95 94 95 93 93 54 54 72 95 91 88
23 29 37 47 49 46 39 43 41 45 45 39 40 57 32 36 29 38 36 32 22 10 8 8 15 24 19 21 17 23 25 30 94 94 94 96 96 89 97 96 97 96 95 72 72 83 90 90 79
23 35 38 49 57 53 44 43 40 43 48 48 52 58 52 45 33 40 38 39 31 15 8 10 12 28 20 24 19 22 25 28 77 97 97 96 97 96 96 97 95 97 88 65 84 86 86 90 86
38 31 29 30 43 58 56 45 46 42 51 47 53 59 49 56 48 41 47 41 36 20 7 12 11 13 21 30 22 27 31 26 51 92 96 94 94 96 96 96 97 96 85 78 84 95 89 90 91
29 18 16 18 40 61 72 56 48 53 51 46 51 56 46 50 48 41 42 42 41 20 8 12 13 19 25 29 26 22 34 30 30 68 96 96 95 95 98 97 94 98 86 79 92 91 95 94 89
23 18 9 20 44 64 89 37 62 66 56 55 52 56 48 42 42 38 42 41 42 16 10 12 17 21 24 25 25 20 33 39 31 58 88 95 96 96 94 97 94 84 91 99 95 96 98 91 92
17 8 9 17 46 68 99 46 66 73 64 60 56 58 50 43 41 37 37 43 39 10 10 11 16 22 30 28 26 21 22 41 34 36 86 85 89 93 96 94 94 86 93 96 96 94 94 83 92
21 28 19 19 57 98 99 57 74 96 75 69 59 58 57 47 41 35 41 45 30 11 11 18 25 30 32 26 22 19 18 37 34 34 71 80 97 87 93 89 93 87 98 96 96 96 94 95 96
17 16 14 14 44 65 77 63 75 72 74 68 63 55 59 56 54 35 38 47 17 14 22 24 23 26 25 25 26 19 19 30 30 38 64 77 78 81 80 83 84 96 96 97 96 96 96 96 96
21 20 16 29 55 93 76 48 68 70 79 73 60 61 59 51 42 29 42 42 14 20 22 25 24 19 27 34 34 39 36 34 32 47 66 79 80 86 99 94 84 97 97 96 97 96 97 97 94
13 21 35 47 69 76 95 52 74 75 72 55 61 76 83 56 51 29 36 32 16 22 20 20 19 20 23 31 43 56 43 38 46 67 61 68 78 82 93 95 99 96 97 94 99 99 99 97 93
14 56 70 83 80 63 90 48 70 84 68 63 75 80 80 63 59 25 41 29 23 24 21 16 16 18 19 38 42 44 63 46 50 51 80 86 95 81 87 91 89 94 90 88 99 100 98 92 96
32 71 81 78 71 69 67 85 40 91 84 67 69 73 68 65 47 37 39 33 25 24 22 16 14 11 10 21 24 21 39 56 54 77 94 96 81 86 92 91 90 90 98 98 95 98 98 97 96
56 86 92 84 79 60 64 88 45 73 87 80 84 88 77 63 44 38 47 31 27 24 18 16 15 12 9 8 14 26 43 55 70 80 96 94 95 99 92 97 99 100 98 97 97 97 96 94 96
65 98 92 83 76 56 91 83 46 80 99 95 98 74 74 68 40 32 31 19 22 21 16 15 15 17 14 10 14 23 70 73 86 95 97 96 96 99 89 91 95 97 95 96 96 96 94 96 99
79 100 94 96 84 90 98 80 85 92 89 96 97 94 87 65 45 30 42 20 24 22 16 16 14 14 16 13 18 15 22 81 94 96 96 98 94 96 96 99 97 98 96 96 91 92 96 97 96
81 83 93 100 98 90 90 100 97 94 98 97 98 96 85 63 62 39 44 35 23 30 20 18 15 14 14 20 18 18 14 22 56 74 89 95 93 95 97 90 96 96 95 81 70 77 92 92 92
88 99 100 94 89 93 83 99 98 100 91 94 98 98 96 82 62 36 37 41 21 34 33 20 20 16 14 15 23 22 19 17 12 11 13 26 57 74 79 71 63 49 39 27 19 36 50 58 75
99 96 100 100 88 83 89 94 98 95 98 100 99 99 100 84 60 45 32 44 21 27 38 23 21 22 15 17 19 25 25 25 24 19 16 12 12 14 16 16 12 12 14 17 17 22 26 38 61
90 99 98 90 88 100 98 94 100 96 98 97 93 67 100 78 76 51 34 51 26 24 46 28 22 24 19 19 17 20 27 29 26 30 39 31 22 19 16 16 17 19 21 22 31 53 52 45 58

GFSSGP_500_rhum_096.txt.gz
RH
18 17 17 14 17 21 23 23 22 19 17 17 16 24 31 30 30 24 21 24 24 25 26 22 9 4 3 3 4 6 8 8 6 5 6 8 7 8 10 13 17 19 42 36 52 74 70 78 77
19 20 20 22 21 22 24 24 23 21 16 10 22 27 33 39 28 21 22 21 27 28 28 21 5 3 4 5 9 11 15 17 14 14 14 11 8 7 6 8 21 21 44 56 54 57 66 73 83
18 22 24 23 26 24 24 24 23 22 18 15 26 31 25 20 23 28 14 21 28 31 29 10 4 4 5 6 12 20 21 23 27 29 33 38 49 53 37 38 8 30 42 76 65 67 71 84 81
23 22 22 24 26 25 24 24 24 23 22 20 27 19 18 19 21 19 16 19 32 32 20 6 4 4 5 9 16 20 18 15 18 25 49 96 100 95 95 87 81 23 29 65 71 70 84 85 76
18 18 25 29 30 28 26 25 24 24 23 21 20 23 21 21 23 17 14 21 28 29 18 5 4 4 6 10 16 15 14 16 22 32 71 74 96 97 97 97 96 94 30 64 64 78 86 52 42
14 12 19 28 30 29 28 27 27 29 28 16 21 20 29 31 26 19 13 21 31 32 13 4 4 5 6 8 8 10 13 16 25 28 50 64 71 96 95 96 97 94 84 31 58 94 94 73 65
12 9 14 25 31 32 30 31 28 26 25 21 18 24 27 39 33 27 19 22 31 30 9 4 4 5 7 9 12 15 23 19 15 20 24 30 58 81 74 97 97 97 95 73 49 90 80 62 88
14 7 9 19 31 34 32 30 27 25 28 26 25 24 28 30 34 24 25 34 41 20 10 6 5 5 7 10 21 24 19 28 29 24 25 35 65 74 70 84 96 96 96 86 49 47 64 59 56
15 8 10 26 39 38 35 31 28 26 23 24 26 25 26 29 32 29 40 43 35 29 16 9 6 6 11 17 18 21 18 28 23 25 29 61 88 81 68 68 93 96 97 87 72 76 71 65 83
17 12 14 28 33 40 38 34 32 29 28 27 32 32 31 38 36 29 37 41 37 32 23 15 10 7 10 21 21 19 17 23 20 21 50 100 78 70 84 91 98 97 99 95 92 94 85 97 98
22 12 29 29 33 36 43 38 39 36 33 31 36 37 32 40 35 30 35 36 43 40 30 25 14 8 9 21 25 21 19 21 24 24 66 92 76 84 90 96 97 96 98 90 89 72 74 76 100
20 16 20 35 34 40 38 45 41 41 37 37 42 38 30 34 37 37 34 38 46 45 34 27 15 8 11 18 30 24 19 18 21 26 93 96 93 97 100 97 98 98 96 95 91 94 71 59 98
22 26 21 24 34 37 44 28 44 48 45 45 56 50 38 34 39 43 38 41 47 50 45 36 15 8 10 12 20 20 24 20 20 30 82 96 95 97 97 95 96 97 91 92 90 53 59 72 98
30 24 26 24 28 33 30 25 40 41 54 51 51 51 52 40 44 45 37 39 45 50 50 37 14 6 10 11 17 29 27 21 24 30 57 96 96 96 94 94 96 96 94 94 84 62 64 70 93
19 17 14 18 22 28 41 19 22 52 66 59 53 49 55 50 52 46 46 40 43 51 50 28 8 8 10 15 20 24 26 20 22 34 40 96 97 92 89 95 96 97 98 94 93 71 80 77 85
15 13 10 18 30 35 46 10 28 47 56 60 56 53 47 53 58 51 46 46 46 54 46 22 8 9 13 17 15 22 26 22 22 40 43 89 97 96 97 97 96 96 94 96 96 90 84 84 87
12 10 10 14 47 56 37 11 20 43 43 39 58 55 46 50 64 57 50 41 46 52 39 15 10 12 18 21 24 24 25 26 22 35 36 46 94 97 96 96 97 96 97 97 93 97 87 77 96
12 12 11 11 38 53 20 5 6 17 26 28 62 57 46 43 53 56 48 39 58 41 31 12 22 30 30 30 24 22 22 21 21 26 37 44 89 97 96 96 96 93 92 86 93 99 94 93 100
10 7 5 6 13 23 20 5 5 10 32 53 65 72 58 43 45 53 43 45 63 44 22 17 29 31 27 22 22 25 27 20 16 21 31 37 75 94 96 90 86 90 79 91 100 100 95 94 96
8 6 6 7 14 20 24 5 5 11 22 42 63 59 60 51 52 60 48 47 57 46 19 22 25 29 20 22 22 21 29 20 17 25 29 37 68 75 92 89 76 98 89 92 92 93 96 97 94
7 5 4 4 22 16 13 3 3 7 17 43 62 61 73 57 78 56 46 44 58 43 20 24 22 21 19 19 19 32 41 44 40 38 33 45 64 82 80 90 74 91 96 97 97 96 97 97 96
7 17 13 10 14 9 26 4 4 7 15 42 47 60 77 77 66 59 44 44 61 40 23 26 22 16 16 14 15 18 33 31 51 41 43 62 62 76 75 96 97 97 96 97 96 96 97 98 96
8 27 19 16 14 15 8 20 3 14 24 48 49 54 89 92 82 68 49 44 64 53 24 26 22 14 12 9 9 8 25 31 41 44 53 59 81 73 82 98 98 97 97 97 98 96 97 96 100
8 17 36 27 28 16 18 61 3 26 44 49 58 98 91 94 92 70 54 41 60 54 25 25 18 17 13 11 9 8 16 47 42 48 53 86 74 74 97 100 100 97 96 97 94 98 98 96 97
35 47 76 53 34 17 33 55 20 46 61 54 53 73 78 100 86 68 53 59 51 34 25 21 16 18 16 19 14 12 19 59 56 70 90 95 98 89 96 84 80 82 97 90 99 99 99 97 97
62 71 71 70 66 49 64 40 35 84 65 67 72 78 92 100 66 65 47 51 23 25 29 18 17 16 14 18 16 14 16 25 90 95 94 88 84 87 82 96 99 98 97 95 97 96 97 97 98
44 60 65 75 76 64 51 48 61 72 100 83 86 94 98 97 76 65 53 71 30 38 31 20 19 16 15 17 22 20 16 13 25 93 93 91 88 93 98 98 98 94 96 97 97 97 96 97 97
49 73 92 88 70 70 43 58 62 95 97 100 96 98 85 72 98 81 59 70 65 33 32 29 22 17 16 17 19 24 19 16 13 12 30 63 82 91 93 96 97 97 97 97 96 97 96 96 98
86 78 95 71 81 78 66 64 76 97 99 98 99 93 90 98 98 88 80 74 74 35 32 41 29 20 20 17 18 21 24 22 20 20 16 12 13 41 72 88 88 96 96 91 76 77 73 83 91
72 90 99 98 86 77 75 64 98 99 98 98 98 94 95 96 88 100 78 62 63 34 30 46 37 22 22 17 19 19 22 25 26 30 34 27 16 14 16 17 18 20 24 24 24 33 39 37 50

GFSSGP_500_rhum_099.txt.gz
RH
16 15 14 18 16 15 17 18 18 23 23 21 16 17 21 35 37 32 27 23 22 20 21 23 25 28 22 6 3 3 4 5 5 6 6 6 4 4 5 6 10 12 14 16 22 23 42 78 74
14 14 18 20 19 20 21 20 23 24 24 22 19 12 12 30 37 24 20 21 25 20 21 27 29 26 8 3 3 4 5 9 13 14 16 19 19 18 17 7 5 7 8 16 24 30 38 64 76
14 15 17 23 22 26 23 20 22 23 23 22 21 14 12 20 25 23 22 27 22 15 19 26 28 14 4 3 4 5 8 15 16 16 21 25 29 62 39 44 40 22 16 10 20 62 60 59 72
12 12 12 14 24 26 24 20 22 23 21 22 22 21 17 20 24 27 28 26 18 17 23 30 26 8 4 4 5 6 11 17 18 16 16 22 34 46 99 87 94 96 86 63 16 44 80 73 80
8 6 6 10 23 29 28 25 25 25 24 24 23 22 21 17 21 23 25 25 21 18 28 31 19 5 4 4 5 6 8 10 10 13 33 49 58 69 78 89 93 93 98 98 68 44 70 81 90
8 7 5 9 22 24 28 30 29 23 24 19 19 21 19 18 21 25 27 27 22 20 32 27 13 5 4 4 6 6 7 7 14 19 30 38 45 56 85 75 90 95 100 97 95 69 37 72 86
9 8 6 9 16 29 32 30 30 27 24 21 20 20 19 18 22 30 32 30 24 23 34 27 16 9 6 5 6 7 9 11 18 24 27 26 35 40 46 51 76 72 80 95 96 74 35 92 72
15 8 7 13 16 34 32 28 25 19 22 23 19 20 21 22 22 30 35 34 26 29 36 30 25 14 9 6 6 7 13 20 21 18 25 31 30 37 47 43 58 76 89 94 97 79 39 93 84
21 11 9 21 21 40 34 26 23 20 25 26 26 26 25 28 24 26 33 39 35 36 37 32 29 25 16 10 7 8 15 18 19 20 25 22 25 27 31 46 75 70 91 97 96 95 60 84 93
18 12 12 27 23 34 27 21 20 21 23 27 29 32 31 29 25 25 33 42 37 41 41 35 31 30 25 13 8 7 13 19 17 19 23 25 22 25 83 84 80 64 86 96 95 97 50 52 89
21 12 20 29 31 21 29 16 19 16 18 30 34 36 35 31 31 30 36 39 36 40 48 42 35 32 34 16 8 8 9 22 22 16 18 22 26 64 92 76 69 73 94 95 92 94 71 63 79
21 19 24 32 34 28 30 32 14 13 20 30 34 38 38 35 34 38 42 41 36 43 50 47 43 37 38 14 8 9 9 20 22 19 17 21 31 96 96 85 89 97 94 96 97 83 96 97 97
23 21 21 22 34 30 26 24 20 12 19 31 34 45 44 42 41 34 45 46 43 48 52 52 47 45 36 10 7 9 10 14 18 22 21 25 38 97 98 86 98 96 97 96 88 80 97 95 88
43 30 22 21 24 28 25 20 23 22 35 37 42 46 49 42 48 41 36 47 46 48 58 56 50 49 24 8 8 10 12 23 29 23 21 26 45 97 96 97 97 97 97 94 96 90 97 97 92
30 31 24 18 19 27 40 17 14 28 50 52 60 60 44 43 45 39 38 45 50 56 54 57 47 49 14 8 10 9 17 22 23 22 19 27 38 96 97 96 96 96 97 97 95 92 94 70 77
22 20 20 20 24 30 40 14 26 39 46 40 32 28 31 50 50 45 43 52 56 67 58 51 45 42 10 8 9 12 15 16 22 23 21 25 39 92 96 94 93 95 96 96 91 85 90 66 73
23 21 20 18 21 28 24 10 15 30 35 24 19 23 38 47 55 50 47 55 64 66 56 48 39 29 10 14 22 27 29 28 26 23 25 23 38 78 97 95 97 98 97 96 92 93 97 96 99
30 23 19 15 23 27 15 10 9 13 18 14 13 20 26 31 60 60 55 53 63 64 52 41 40 17 16 22 28 27 22 23 24 22 20 22 34 49 96 96 96 96 96 96 95 98 97 96 95
30 27 19 16 13 13 10 8 8 8 6 8 11 14 18 37 52 62 66 57 58 70 52 42 43 16 21 25 28 21 21 22 25 28 19 19 28 50 93 97 97 97 97 97 97 97 98 95 92
35 37 16 11 13 13 11 8 8 8 8 6 10 10 9 23 34 48 62 63 62 73 58 46 37 18 22 25 22 20 20 22 36 36 22 17 26 47 83 96 97 97 94 92 92 90 92 97 98
23 46 14 12 19 12 9 9 8 7 6 5 5 7 12 29 27 28 47 63 63 72 72 49 28 22 22 18 19 18 15 16 28 37 34 26 31 54 82 95 97 97 96 98 95 94 93 100 96
19 28 17 10 9 8 15 10 10 7 6 7 11 12 7 19 32 33 62 66 63 70 74 55 25 27 25 18 15 13 11 9 19 30 48 36 32 41 74 89 94 94 97 100 98 94 95 97 97
10 26 21 18 13 10 10 11 10 7 6 14 10 6 4 25 30 37 68 82 70 64 72 58 27 27 25 16 14 11 11 8 11 25 43 38 36 56 61 70 81 84 98 97 97 96 94 96 97
9 13 18 17 16 11 12 12 8 7 7 4 6 6 4 21 28 41 76 82 78 59 67 58 32 28 22 16 14 15 15 12 16 60 42 40 46 51 68 71 79 83 97 94 97 97 97 96 96
16 18 22 24 14 7 12 17 10 7 7 5 5 10 18 37 39 77 70 86 85 62 58 61 32 28 18 16 15 16 16 14 17 60 49 54 52 63 87 95 79 79 98 96 97 96 96 97 98
12 21 17 23 23 14 22 8 6 10 8 12 11 16 40 41 51 92 84 100 94 56 52 55 29 22 17 16 15 14 18 15 16 71 66 63 75 82 94 94 88 97 98 97 97 97 94 96 95
20 16 36 57 34 27 15 10 11 14 18 38 41 47 66 54 62 91 93 97 92 56 31 25 29 19 18 16 15 14 20 17 16 47 93 99 100 89 86 92 94 97 96 94 95 97 97 96 97
13 48 77 63 40 55 25 32 24 30 47 48 56 83 90 88 100 89 99 95 98 49 31 25 30 21 19 17 16 16 18 21 16 13 46 92 90 91 94 96 97 96 89 100 98 98 95 95 97
28 28 62 66 59 84 50 31 34 49 50 53 81 98 99 98 98 98 96 98 92 82 54 34 33 24 22 18 18 18 19 24 20 20 18 12 31 47 70 84 91 96 97 98 98 97 96 94 97
37 53 87 85 77 87 94 55 72 62 66 100 97 98 98 98 97 98 96 94 81 96 82 64 41 38 26 21 21 19 19 22 25 23 23 24 20 11 13 40 60 61 92 98 97 96 97 97 97

GFSSGP_500_rhum_102.txt.gz
RH
16 14 14 14 13 12 15 12 13 17 20 19 20 22 20 18 14 15 12 15 16 18 18 14 11 11 16 16 12 4 2 2 3 4 7 8 10 10 9 7 5 7 20 18 18 18 18 27 58
18 16 14 12 13 12 18 12 14 18 21 20 19 22 22 17 14 14 16 20 22 21 19 16 14 16 18 16 6 3 2 3 5 8 11 13 15 17 19 26 23 15 7 7 10 16 21 31 47
19 16 14 14 14 18 16 12 15 20 21 19 20 23 24 21 18 16 16 19 21 23 22 17 16 19 20 12 4 2 3 4 7 11 13 14 14 16 22 67 76 48 46 11 8 20 33 33 59
17 14 12 11 16 18 14 12 15 18 18 20 22 22 25 25 25 19 16 20 25 24 21 16 18 24 19 7 4 3 4 4 6 10 12 11 13 24 33 68 80 95 94 95 50 15 33 52 59
16 14 10 8 15 22 14 8 12 15 13 23 20 21 22 25 25 20 18 22 26 25 21 18 23 26 16 8 5 5 4 5 6 7 8 11 19 28 37 58 94 83 93 98 100 90 44 66 69
18 16 9 9 17 18 12 10 8 10 9 24 13 22 22 23 24 20 16 21 26 24 20 22 25 29 20 12 8 6 5 6 7 8 11 19 23 23 28 31 34 73 71 88 98 94 88 80 90
17 16 10 11 18 15 14 10 8 7 8 13 15 17 22 23 26 25 23 25 28 30 25 27 32 31 26 15 11 8 7 7 9 15 29 29 33 31 39 38 32 26 49 69 94 96 97 94 93
17 14 9 12 18 19 16 10 8 7 7 11 16 15 18 26 28 29 29 26 30 33 31 31 31 33 30 26 21 15 9 9 14 23 26 22 17 27 39 38 31 44 58 71 81 98 98 96 94
17 10 8 15 22 26 29 20 11 11 9 11 14 14 19 29 30 30 29 29 33 34 36 36 34 32 33 30 30 24 12 10 13 17 21 16 15 24 26 30 35 44 39 69 83 92 98 95 72
19 14 11 22 28 31 29 19 14 11 10 12 13 18 16 26 31 36 34 31 32 39 38 38 38 30 32 33 34 28 14 8 9 16 22 19 19 22 28 37 33 37 76 77 84 96 95 95 67
26 21 22 26 35 31 27 26 20 14 13 17 15 14 16 24 34 37 37 33 35 42 44 37 36 34 26 30 38 32 12 7 8 10 19 24 19 18 20 33 49 78 87 98 97 92 98 96 63
34 25 24 28 33 29 27 29 20 16 17 23 16 22 19 27 40 42 40 37 31 38 46 42 36 38 32 32 40 32 8 7 9 10 12 13 20 23 25 32 52 88 72 94 90 98 97 97 65
41 36 27 26 27 26 29 27 27 18 26 27 21 24 29 36 49 48 39 33 35 39 45 53 42 40 34 36 44 32 8 8 10 12 19 28 25 23 30 68 97 83 85 95 94 97 97 96 80
41 40 40 37 34 30 24 25 24 24 37 24 25 33 43 48 45 48 35 38 38 36 46 56 50 42 38 35 43 25 8 9 10 15 23 27 26 23 38 86 98 87 92 93 96 97 96 96 94
44 40 37 38 44 39 34 24 24 38 42 35 40 45 46 40 32 32 42 46 46 43 49 62 54 50 43 36 37 15 8 10 12 14 18 25 26 24 40 90 97 95 97 97 97 97 96 96 95
45 40 35 31 32 32 47 30 31 33 38 30 44 34 29 31 29 27 44 44 49 51 60 63 63 54 49 34 34 12 13 21 26 24 23 26 25 26 41 93 97 97 96 97 97 96 96 96 96
44 42 39 31 27 26 30 22 30 39 34 30 25 22 24 24 24 34 42 34 43 60 56 58 61 61 50 36 27 16 20 23 26 24 25 26 24 23 30 72 97 97 96 97 97 96 96 97 87
47 43 36 30 29 28 25 18 20 24 20 18 22 24 26 27 34 39 33 34 34 63 64 60 62 56 45 40 20 18 22 24 22 25 25 26 26 20 24 37 95 97 98 95 97 96 97 95 76
42 36 32 29 27 29 25 24 20 18 16 16 16 14 17 26 35 39 40 38 38 68 71 68 62 54 42 39 17 18 20 20 22 22 30 30 29 21 19 31 90 96 98 96 97 96 96 95 88
36 34 34 32 32 34 34 34 20 16 13 12 11 12 10 14 17 22 17 21 25 63 73 78 69 51 41 37 17 17 16 18 18 18 20 30 31 20 18 30 91 94 96 96 97 96 97 96 96
36 34 32 29 33 35 41 31 21 18 15 11 9 10 14 10 6 7 11 14 16 43 72 81 66 54 42 34 18 18 16 16 14 12 11 30 41 22 19 32 85 97 95 97 97 97 97 98 96
37 34 31 26 29 33 36 28 24 16 13 12 13 10 5 5 4 4 6 10 13 45 79 81 66 56 40 30 18 19 15 12 12 8 8 22 42 40 46 67 92 96 97 97 97 96 96 96 97
27 27 28 28 28 33 37 34 26 15 12 17 16 12 9 6 5 5 4 7 10 30 74 91 74 48 42 30 17 17 14 13 15 13 15 32 42 44 33 50 74 96 97 96 98 98 98 98 96
21 21 23 23 23 24 25 30 23 25 18 14 11 11 7 5 3 3 3 4 7 19 73 97 76 46 44 32 18 15 15 16 17 14 15 44 46 44 35 80 55 69 91 96 100 96 98 96 95
11 12 16 17 15 14 15 15 13 14 15 15 17 14 11 7 5 4 3 5 8 30 88 90 70 48 43 24 18 15 14 15 17 15 18 59 44 46 41 54 80 63 66 89 95 96 98 96 97
16 14 12 13 12 12 16 14 13 12 11 11 11 11 9 6 4 3 3 8 16 47 86 88 83 53 36 22 16 15 14 14 17 16 34 78 48 49 52 59 56 76 74 69 97 97 96 97 94
13 14 16 18 16 12 9 6 6 7 7 8 10 7 4 4 3 3 5 18 40 84 88 91 87 46 35 20 16 16 15 15 16 16 24 95 82 72 74 82 90 86 73 79 96 91 98 97 96
10 15 17 14 13 13 9 8 8 9 11 11 8 10 15 10 6 30 34 39 68 95 95 87 71 48 24 18 17 16 17 17 15 18 16 44 87 92 95 95 96 98 80 100 95 97 97 97 98
14 12 13 18 18 20 12 8 10 10 12 18 13 25 41 25 45 79 60 58 79 97 74 77 48 26 23 19 19 18 18 18 15 19 21 18 16 46 69 87 97 97 90 90 96 98 95 93 86
11 13 20 15 9 17 27 7 16 23 27 38 32 39 62 76 62 96 70 78 89 96 93 60 38 29 31 21 21 20 20 20 17 17 22 25 25 14 24 60 80 86 84 88 88 92 94 95 96

GFSSGP_500_rhum_108.txt.gz
RH
8 6 6 11 15 15 15 16 13 13 12 9 10 13 16 18 18 20 15 17 18 14 9 8 7 8 8 8 8 9 10 8 4 2 2 4 5 5 7 8 11 16 14 9 5 9 16 18 19
14 12 12 15 16 16 18 17 14 14 12 10 10 13 15 20 19 20 15 16 18 19 14 11 10 10 11 10 8 10 10 6 3 4 4 6 6 6 8 10 20 20 44 47 29 19 20 28 26
18 18 18 17 16 17 21 17 15 13 14 12 10 13 14 19 21 21 18 19 16 17 15 12 13 13 13 12 10 10 11 6 6 6 6 6 5 7 8 16 24 30 43 89 64 40 28 38 30
20 18 18 17 17 20 20 17 17 14 14 13 10 15 16 19 24 19 21 21 19 18 16 15 14 16 16 14 12 12 14 9 8 8 8 7 6 7 8 11 19 51 76 92 96 90 47 23 38
22 17 17 16 18 22 21 16 14 13 14 14 13 18 19 22 26 17 21 23 18 18 19 16 16 18 19 17 14 14 16 14 11 9 9 9 7 17 21 17 24 43 54 58 84 97 95 59 25
21 20 16 16 20 21 26 18 12 8 8 12 15 19 21 25 23 18 24 27 21 20 20 18 18 17 20 20 16 17 17 18 17 16 13 13 19 28 54 71 36 35 34 53 68 86 93 94 87
20 19 17 18 20 22 24 23 16 9 9 11 15 18 20 23 21 18 24 29 30 21 22 21 19 19 21 24 19 19 19 20 22 23 20 18 34 32 32 33 50 42 45 52 70 80 87 79 95
24 21 16 16 19 24 21 26 21 14 11 12 14 17 18 18 19 20 24 31 34 25 26 25 23 20 24 27 24 23 22 20 21 24 25 30 16 26 34 28 20 28 57 50 63 73 79 92 76
32 23 18 18 21 25 24 26 22 17 13 12 12 15 16 15 17 21 26 32 36 32 28 27 26 24 23 28 28 27 24 22 22 26 26 22 29 16 30 44 25 29 36 38 37 45 46 60 82
33 28 28 27 28 32 26 26 17 16 12 11 12 12 14 15 15 21 26 33 38 36 33 30 31 28 27 28 32 30 29 26 23 24 25 11 14 27 21 27 21 23 29 22 29 55 79 82 88
38 36 38 33 33 34 28 21 20 16 14 14 15 14 15 18 18 22 28 33 39 38 38 34 34 30 31 29 36 36 33 28 26 24 25 11 16 24 24 25 21 18 17 21 28 50 70 89 97
49 49 48 38 35 31 29 28 21 17 19 23 18 16 20 21 23 26 28 34 36 40 42 38 38 35 35 34 37 40 37 33 30 28 25 10 8 10 17 22 26 25 31 33 39 46 56 93 97
60 58 53 48 47 41 34 29 26 22 19 30 25 23 23 23 28 30 33 34 38 39 43 37 41 39 40 37 39 39 42 38 33 29 22 8 8 9 21 17 27 27 30 42 46 85 87 72 96
69 68 61 58 58 54 46 39 33 29 28 36 32 32 30 30 29 31 35 39 36 37 46 32 42 44 43 41 39 41 47 43 38 30 18 10 10 10 29 25 19 31 25 30 50 87 98 84 93
69 69 66 58 54 62 57 46 42 36 36 36 37 32 31 29 33 33 37 41 32 35 45 32 44 44 47 44 38 40 45 50 41 34 18 16 22 22 25 29 27 21 24 29 81 95 88 90 98
71 68 68 62 56 53 53 38 45 40 36 36 40 37 34 33 35 36 35 34 32 37 39 33 38 32 44 49 44 43 47 52 45 36 18 20 22 22 22 23 28 27 27 30 94 96 97 95 99
72 67 68 68 62 59 54 48 50 44 46 45 43 44 42 37 33 32 33 31 29 32 38 30 36 31 32 50 52 49 51 53 51 38 19 21 21 21 21 22 27 26 28 38 97 96 98 97 96
86 82 80 66 69 66 57 50 49 48 44 43 43 45 44 44 40 38 28 25 27 26 24 24 29 35 25 34 55 54 54 56 57 44 19 21 20 19 19 23 26 28 26 30 97 93 96 97 96
99 94 84 89 79 73 61 54 52 48 44 42 41 41 40 42 52 44 37 32 29 28 29 26 30 33 24 28 57 58 59 55 61 48 20 19 17 16 16 15 15 30 27 38 95 96 96 97 96
96 97 90 98 90 94 80 60 57 52 46 44 40 35 30 26 27 27 23 22 21 23 23 22 25 32 24 26 59 55 65 60 63 51 22 18 16 14 13 12 15 33 24 92 74 89 96 96 97
95 84 99 98 99 95 91 68 62 58 49 45 39 31 27 27 26 23 22 20 19 19 17 14 14 20 21 24 38 47 59 68 66 55 24 19 15 13 12 10 11 31 29 31 32 90 96 97 97
96 100 100 97 95 91 93 71 65 56 50 44 37 30 31 35 35 33 23 18 15 13 12 10 11 11 14 18 35 51 59 69 70 61 25 20 14 12 14 14 13 36 32 96 37 97 96 96 96
93 99 100 97 87 96 89 79 67 56 45 40 36 34 34 36 35 34 27 20 16 10 8 8 8 9 13 17 43 49 61 73 76 61 26 19 13 12 14 15 14 38 34 78 75 96 94 97 96
100 98 98 99 99 86 84 80 65 50 42 38 38 37 36 35 33 30 23 15 11 10 9 7 6 6 10 18 47 63 90 78 75 66 29 17 12 12 14 14 15 37 36 88 92 96 89 96 96
99 100 100 98 89 75 82 84 65 48 41 39 36 35 33 33 35 31 24 16 12 12 13 10 6 6 7 16 54 80 93 81 70 71 30 15 12 12 15 26 48 46 37 89 69 70 94 94 95
100 100 100 100 100 92 83 73 61 40 37 35 33 32 30 27 27 28 28 25 20 24 26 14 7 6 7 13 58 94 98 76 69 68 28 14 13 13 20 67 51 40 60 77 70 70 87 97 96
100 91 100 95 90 85 77 89 82 33 25 24 23 23 19 17 17 17 16 17 17 16 14 10 8 7 6 13 61 94 91 76 68 61 24 15 14 16 46 71 45 42 43 62 85 71 77 86 96
90 63 79 87 83 75 65 52 28 26 17 15 14 14 13 14 14 14 14 14 14 14 13 12 12 9 5 9 49 88 84 75 70 58 19 17 14 19 30 85 53 43 40 43 46 75 59 100 93
73 76 66 63 55 42 39 69 24 17 16 15 15 16 16 16 17 18 17 16 15 14 10 6 5 4 5 11 48 81 78 81 72 47 17 18 15 19 18 26 44 78 73 72 69 56 59 82 93
99 99 92 89 84 67 32 52 23 16 15 15 13 12 12 12 11 11 10 9 9 6 4 3 2 3 6 15 55 96 91 85 72 36 17 20 16 20 24 23 14 66 86 87 97 94 99 97 100

GFSSGP_500_rhum_111.txt.gz
RH
14 12 9 6 9 8 12 19 18 15 14 10 9 11 13 20 26 45 11 11 14 12 11 10 10 9 8 8 8 8 8 9 9 6 4 3 4 5 5 5 6 10 13 18 15 7 5 10 15
16 16 13 9 11 13 23 31 22 18 12 12 10 10 13 16 11 15 13 12 14 10 9 10 10 11 11 11 10 10 10 9 9 6 4 5 6 6 5 6 7 17 23 30 42 40 28 15 20
19 19 18 17 16 16 30 38 34 19 15 14 12 12 13 14 10 14 12 12 12 11 9 12 12 12 13 14 14 12 11 11 9 7 7 7 6 6 6 8 8 24 33 50 62 78 60 36 25
21 21 20 17 19 20 22 40 23 19 17 15 14 14 15 12 12 14 12 13 13 10 8 9 12 14 14 14 15 13 12 12 13 12 10 10 9 7 6 14 9 13 25 49 77 97 93 62 36
23 22 20 17 18 22 31 23 25 23 17 14 14 19 16 15 13 13 11 14 17 13 9 9 12 13 14 15 16 15 14 12 13 15 15 13 12 12 18 30 21 19 28 96 55 68 84 88 45
24 25 22 20 19 23 30 22 25 23 18 12 12 18 16 11 17 11 12 17 20 15 10 8 11 13 14 15 16 19 16 14 13 14 15 18 20 17 22 40 59 75 47 36 31 45 59 94 95
27 28 24 24 26 31 41 20 26 26 21 17 15 14 22 12 13 14 13 20 24 20 12 9 10 14 16 16 16 20 19 17 18 17 20 30 36 48 38 27 37 36 54 37 73 55 70 83 84
30 31 24 24 25 23 44 20 24 22 22 25 13 17 24 8 16 13 16 22 25 24 13 10 12 16 17 21 21 23 24 21 20 19 19 23 34 41 51 60 48 29 22 27 52 50 80 78 96
39 29 21 26 28 28 36 20 23 37 28 19 17 20 10 10 18 15 17 20 25 26 17 14 14 18 21 23 26 27 27 26 25 24 22 22 34 21 19 24 39 65 26 32 65 50 51 66 78
38 37 28 36 42 41 33 26 28 23 27 25 18 16 13 12 13 16 18 20 24 26 21 16 13 20 23 25 31 29 29 33 31 27 24 20 24 22 22 35 27 22 22 26 46 38 27 48 67
42 31 45 40 38 40 39 37 28 25 22 27 21 19 12 12 13 15 18 22 26 28 29 19 14 23 25 28 32 34 30 36 34 30 27 23 25 39 44 44 50 54 42 23 27 23 27 41 60
45 41 42 47 43 35 38 39 35 29 25 29 22 18 11 18 17 17 19 23 25 28 31 25 19 22 25 27 33 34 34 37 40 35 31 27 27 19 20 24 30 31 45 19 31 45 48 36 50
48 50 49 46 52 46 45 38 34 30 27 25 27 19 16 22 23 24 23 27 30 32 31 26 21 27 25 30 38 37 36 36 44 42 36 29 24 10 12 15 34 34 16 28 45 54 49 58 78
69 64 56 54 51 56 51 41 32 31 29 26 30 25 23 25 25 28 28 30 34 37 35 30 24 30 23 25 38 40 32 39 45 49 44 33 28 12 19 41 41 48 43 32 46 47 50 46 75
70 66 63 54 59 58 66 54 44 41 41 35 35 31 29 27 27 27 30 35 39 38 39 30 30 28 22 28 36 40 30 38 43 50 49 37 31 15 15 20 45 51 53 33 36 44 53 81 100
78 78 64 54 62 66 73 66 61 61 51 45 41 40 36 30 28 28 28 31 34 35 34 31 31 30 31 32 34 41 27 34 46 53 53 42 35 17 16 18 20 29 37 38 33 32 37 88 100
72 58 66 72 81 72 69 62 70 87 72 53 46 42 36 30 30 32 36 38 36 32 30 32 32 31 34 29 28 31 26 29 52 52 56 51 43 20 18 20 20 17 22 21 27 33 48 99 98
32 82 98 89 99 93 69 61 71 83 80 53 49 44 40 34 36 39 43 44 42 36 29 29 31 29 26 23 27 27 30 24 53 52 56 54 50 24 18 17 17 17 16 18 34 34 81 98 84
86 100 97 95 99 91 74 68 69 71 84 71 52 48 46 47 47 50 49 38 40 44 37 35 34 29 26 26 29 31 33 21 45 54 55 56 55 34 17 15 16 13 13 16 34 33 69 93 96
89 100 80 94 99 93 84 71 72 72 77 78 58 46 48 50 52 49 41 33 35 43 46 44 37 29 22 28 28 31 33 28 23 55 57 63 62 42 19 16 14 13 11 10 28 24 97 96 96
74 88 71 100 99 82 86 81 81 75 78 77 65 49 50 49 47 42 34 29 24 28 30 31 29 23 17 19 17 24 30 33 21 55 58 65 66 47 21 17 13 12 13 12 29 41 94 86 96
61 84 100 99 96 77 99 87 100 96 87 83 67 55 54 51 46 40 32 25 23 24 24 22 22 18 13 14 13 17 20 34 31 48 49 67 72 50 22 16 13 12 14 14 22 34 40 84 96
54 100 96 96 96 98 100 90 86 100 89 96 85 64 61 55 47 40 31 27 34 35 34 28 20 17 12 9 10 12 11 26 22 33 47 73 76 49 24 15 13 10 12 14 16 38 93 77 95
100 96 100 100 98 94 75 91 98 100 95 97 95 80 66 57 45 36 30 30 34 34 32 31 22 17 11 8 8 8 12 20 15 28 46 72 78 62 24 14 11 10 11 13 14 34 57 88 89
92 100 100 99 94 63 96 98 82 100 88 98 96 81 56 44 39 36 34 34 34 31 29 26 16 12 10 9 7 7 10 15 12 24 41 68 78 61 21 13 11 12 13 38 37 39 64 94 93
99 100 98 95 96 86 100 92 96 97 99 100 98 97 88 72 38 36 35 33 32 30 29 24 16 12 11 12 10 6 7 12 11 20 40 64 78 52 18 14 12 14 55 50 45 57 82 75 90
98 98 100 88 89 99 98 100 95 100 100 97 86 65 54 42 39 35 33 32 30 30 29 28 25 15 17 21 17 6 5 8 10 16 38 54 83 45 16 15 14 45 58 42 49 79 82 72 95
100 100 98 100 99 100 100 100 100 95 95 71 49 49 53 44 40 32 30 28 26 22 19 17 16 18 18 15 12 8 6 5 6 13 34 54 80 36 16 15 17 60 60 45 41 70 74 96 86
100 100 100 100 100 100 100 100 96 86 98 93 65 59 53 52 28 21 22 21 20 16 14 14 14 14 14 14 13 13 9 6 7 18 38 62 76 27 17 15 18 21 50 73 47 41 46 52 75
61 58 92 73 100 100 100 100 100 100 82 53 62 43 17 15 16 17 17 17 16 16 17 17 17 16 15 13 10 7 8 6 9 22 40 73 74 22 18 14 21 22 23 80 87 80 77 63 51

GFSSGP_500_rhum_114.txt.gz
RH
9 14 14 14 12 11 9 8 14 33 24 16 13 13 12 36 51 29 9 10 8 7 9 8 8 8 8 8 8 8 7 7 8 8 8 6 4 4 5 6 6 4 6 9 14 21 14 7 9
14 15 15 15 14 12 10 16 35 36 25 13 16 14 14 18 9 8 8 8 10 9 8 7 8 8 7 8 9 9 9 9 9 9 8 6 6 6 6 6 6 6 6 17 20 22 38 33 14
19 17 17 16 14 14 14 35 39 39 31 22 16 15 16 17 9 6 11 8 11 9 7 5 6 7 7 8 10 11 12 12 10 10 9 9 9 9 9 8 7 6 6 24 36 48 70 75 54
24 22 19 17 17 17 20 31 42 42 36 20 21 14 16 11 10 7 12 10 11 9 5 4 4 6 7 9 11 11 12 13 12 10 10 11 11 11 11 11 16 21 12 19 35 48 97 95 92
28 27 24 20 19 21 22 32 46 46 26 20 22 20 14 10 12 7 12 10 10 9 5 4 5 6 7 8 10 11 12 14 13 12 12 12 15 19 21 16 18 23 36 37 47 88 67 40 74
26 28 24 23 23 24 25 30 48 31 31 25 20 20 18 6 10 6 11 10 13 11 6 4 5 6 7 9 10 10 12 13 15 15 15 15 22 42 52 38 36 35 40 61 56 39 31 40 56
22 25 24 27 27 27 45 52 53 37 27 29 22 23 24 12 5 8 10 9 15 15 10 5 5 6 7 10 11 9 12 14 14 17 18 18 24 26 36 57 56 69 56 53 59 64 42 75 65
28 24 20 23 29 29 36 61 57 46 27 23 27 19 26 23 5 10 9 10 18 17 12 7 7 7 7 8 14 12 12 14 16 18 20 22 21 22 29 28 36 46 62 63 26 22 46 58 96
43 34 18 20 25 30 33 48 64 48 24 32 31 26 21 20 6 15 9 11 16 18 16 9 9 10 9 9 12 15 17 19 20 22 24 25 24 20 21 24 24 25 26 51 47 40 64 51 67
49 35 25 34 32 31 38 40 82 53 22 33 38 25 14 20 17 17 8 10 17 18 19 15 11 11 13 12 12 14 17 21 25 27 30 28 27 24 24 34 38 43 41 25 33 27 45 53 31
57 24 44 39 40 43 37 40 65 50 48 29 39 24 17 15 21 15 13 11 15 21 18 21 19 15 17 14 12 15 19 21 26 29 33 32 31 27 25 24 21 30 47 51 49 35 27 26 21
62 37 52 51 54 44 44 42 43 44 33 54 36 31 19 15 14 19 20 14 15 22 21 21 24 22 16 17 16 16 19 20 29 31 35 36 36 32 23 15 18 20 32 29 41 37 25 35 35
47 52 58 58 63 58 49 40 41 40 42 36 38 37 20 14 16 26 24 22 20 18 23 25 27 27 22 20 18 14 29 19 25 34 37 39 40 38 26 18 18 28 29 38 38 34 42 51 57
48 64 60 67 53 56 60 48 42 33 46 42 34 30 27 24 20 26 24 23 24 26 21 19 31 31 27 25 20 20 21 27 13 30 38 40 43 42 31 19 13 17 31 56 62 49 43 47 52
21 51 61 51 37 54 68 56 35 42 47 48 42 33 32 28 24 27 30 28 28 31 38 22 24 31 30 28 26 20 21 27 20 15 35 43 45 44 37 24 15 14 23 51 65 59 63 42 50
21 39 34 17 62 65 88 35 48 56 57 53 49 40 34 30 30 29 30 33 34 37 37 33 23 26 32 28 29 26 26 18 21 17 20 44 46 51 43 33 18 17 18 27 29 36 44 38 37
16 14 11 34 88 84 97 36 67 70 68 67 69 54 44 44 39 35 42 39 38 39 40 37 26 24 38 36 31 26 34 26 22 12 14 36 45 52 50 41 23 18 19 16 14 18 25 32 37
6 8 16 19 60 100 100 49 67 78 85 74 87 68 55 51 49 43 39 40 39 37 44 39 40 38 32 44 33 23 29 33 24 17 12 18 45 55 56 51 35 19 18 16 13 13 14 27 37
13 15 20 22 46 99 98 72 86 98 82 75 77 92 82 61 58 49 42 38 36 35 38 42 47 40 32 31 37 33 24 32 28 23 16 15 29 53 63 59 46 23 18 16 14 12 11 20 32
10 7 17 45 65 100 93 91 79 90 57 68 85 81 82 67 55 52 50 44 41 39 39 45 46 42 37 36 38 32 27 32 30 25 18 21 27 33 58 65 55 28 20 16 13 12 12 23 32
6 10 12 20 95 93 89 92 84 76 66 72 79 79 84 85 73 64 60 47 39 39 43 43 36 29 34 31 24 22 21 27 24 28 21 18 25 15 54 69 64 31 20 15 13 12 13 19 51
7 7 18 87 100 91 93 87 86 72 76 77 76 73 74 67 71 97 72 49 38 37 43 36 29 22 23 22 21 17 20 18 21 20 16 9 17 13 34 71 62 31 20 15 13 12 12 16 43
37 84 95 100 100 72 94 81 57 88 94 86 90 98 98 82 83 91 87 54 44 44 43 36 27 24 29 32 27 21 16 13 12 13 11 8 13 14 21 72 60 33 19 14 12 12 12 13 26
93 100 100 96 74 94 64 99 55 77 86 97 98 92 99 95 90 91 94 77 55 51 42 36 26 29 35 34 32 28 16 10 8 8 10 10 11 11 14 76 65 32 17 13 11 11 14 17 19
100 100 100 90 66 22 68 97 63 95 96 96 98 98 93 84 89 98 96 92 71 59 46 38 28 31 35 32 30 23 16 10 8 7 8 8 10 12 14 78 64 25 15 14 12 13 54 50 28
87 67 36 49 42 42 95 76 58 99 95 100 100 96 89 69 82 100 91 74 63 66 55 38 30 33 34 29 24 16 12 10 9 6 5 6 9 12 15 74 64 23 15 15 13 55 50 44 37
98 79 99 100 93 89 85 87 96 98 99 100 99 93 99 100 98 90 72 64 72 56 44 34 34 34 32 29 22 15 12 12 19 18 5 5 7 12 13 68 68 20 16 16 26 57 43 41 58
99 98 98 100 100 100 98 100 100 98 97 99 100 100 100 96 85 81 80 71 58 55 41 34 33 32 30 29 27 23 15 18 22 20 8 4 7 5 16 64 68 18 17 17 35 60 40 60 85
100 100 100 100 100 100 100 100 95 100 98 98 100 100 94 76 65 63 53 42 48 51 35 32 30 27 24 20 17 15 18 16 14 12 9 7 6 6 15 60 72 18 17 18 16 41 55 44 66
100 100 100 100 100 100 99 97 88 96 100 100 87 80 77 95 91 72 72 66 61 53 23 21 21 17 16 15 13 13 13 14 14 14 14 12 8 7 16 57 69 18 19 20 20 30 76 70 48

GFSSGP_500_rhum_117.txt.gz
RH
4 3 2 4 11 12 12 10 16 29 15 30 34 28 24 15 14 9 13 10 8 9 9 8 6 7 7 8 8 8 8 8 8 8 7 7 7 6 6 6 7 7 7 6 6 8 10 10 6
6 5 6 10 13 13 13 14 17 28 22 20 31 26 23 16 11 6 6 6 9 10 10 8 6 6 6 6 8 8 8 8 9 10 10 9 8 8 8 8 9 9 8 6 8 15 24 28 30
18 11 12 14 13 13 15 25 31 35 41 39 38 37 26 17 10 8 10 10 10 10 11 8 7 5 6 5 6 6 8 9 9 10 10 10 10 10 10 10 10 10 11 13 10 10 20 40 79
21 18 17 13 14 16 18 32 43 41 44 43 39 38 29 21 11 8 14 12 11 12 12 8 6 5 5 4 5 7 7 9 10 11 11 11 11 13 16 18 15 14 17 26 42 61 66 61 80
21 19 18 15 14 16 20 26 34 38 45 47 40 39 32 22 15 8 12 9 12 10 12 8 4 4 5 5 6 6 6 7 10 12 14 14 14 14 20 39 45 28 32 36 45 52 49 62 73
20 21 15 15 16 20 22 27 30 44 51 50 30 34 28 20 14 12 10 11 12 11 11 7 5 4 5 6 6 7 7 7 8 11 14 17 17 21 27 25 40 54 55 66 63 53 57 57 30
32 27 18 15 14 15 22 31 28 43 52 53 42 30 31 22 16 10 7 10 10 11 12 8 5 4 4 6 6 6 7 7 8 10 14 19 21 21 20 22 30 35 36 56 64 65 44 36 32
35 36 19 16 16 14 20 29 32 26 48 59 55 41 33 25 19 12 9 7 8 11 13 9 6 5 5 5 6 6 6 6 8 8 12 18 23 24 23 20 21 23 33 42 38 64 51 31 33
42 22 10 16 24 23 24 28 34 37 34 40 44 58 25 34 22 12 10 14 11 12 13 10 7 6 7 8 7 6 6 6 7 9 10 16 23 27 26 23 23 32 37 43 34 37 47 34 54
38 22 11 27 36 34 34 30 42 40 42 44 38 34 55 23 15 12 11 17 11 13 18 14 10 9 8 8 9 9 8 8 8 9 12 17 24 30 32 28 22 20 20 32 42 44 45 40 35
38 10 34 33 38 43 37 39 35 35 33 50 44 33 31 40 21 18 12 12 19 13 16 20 17 13 13 12 11 13 12 9 11 10 12 18 25 30 33 33 24 15 17 22 29 35 46 40 22
24 16 32 33 49 44 35 41 41 43 27 61 45 33 38 36 26 27 15 9 15 20 19 21 21 20 19 17 14 17 17 13 12 12 12 17 24 29 32 38 27 17 15 24 26 31 35 24 31
13 18 28 33 51 41 49 37 46 40 41 45 41 28 30 41 35 20 14 18 16 15 18 20 23 26 24 19 23 22 21 16 15 15 13 17 21 24 28 38 31 20 13 14 35 38 48 52 46
16 15 16 30 19 32 61 45 59 34 60 45 36 33 32 30 30 27 28 28 23 17 17 23 27 28 26 25 25 26 26 21 17 18 15 14 17 23 30 41 38 25 16 11 30 53 54 48 44
13 14 15 12 8 19 68 66 30 42 59 51 48 44 47 36 32 32 31 35 28 24 20 18 22 30 36 28 25 24 31 26 21 22 20 17 14 18 32 43 47 33 20 16 15 28 36 46 52
9 12 11 8 10 21 92 41 15 57 67 56 53 49 51 45 42 39 34 33 32 31 26 22 17 23 30 38 32 27 31 27 25 27 21 18 15 14 20 41 50 44 28 18 17 15 15 23 27
6 6 6 7 13 20 69 20 26 61 67 69 59 57 65 62 50 42 37 31 35 37 40 33 25 23 27 32 43 32 29 32 31 36 26 17 15 10 11 29 46 52 41 23 18 16 14 13 14
4 5 6 7 9 20 45 27 37 49 82 66 67 59 57 60 57 56 53 50 46 49 50 65 37 30 28 36 39 38 32 25 32 38 33 22 21 15 12 15 36 49 54 34 21 18 16 13 12
2 4 6 7 9 15 26 42 51 78 100 81 72 69 67 61 68 73 59 61 56 53 49 43 37 32 34 43 44 40 32 32 27 28 36 28 30 27 22 13 21 44 60 47 26 20 17 13 13
5 4 5 6 9 38 68 91 48 86 77 67 86 79 74 72 70 68 82 76 75 66 54 45 40 36 37 41 41 40 38 30 35 33 23 32 33 34 31 18 12 30 63 61 33 20 16 13 12
14 11 6 6 12 87 97 85 62 42 78 68 63 69 80 88 92 80 81 92 84 65 53 47 42 38 37 35 36 33 38 37 36 33 22 22 21 25 25 21 16 22 50 67 37 22 16 14 11
28 20 20 16 39 100 94 86 86 85 95 68 55 66 63 86 99 100 94 78 81 75 64 57 52 47 42 35 35 25 23 29 25 24 20 15 18 18 17 20 20 20 44 68 39 24 17 13 10
56 50 41 49 99 93 100 100 64 64 91 55 48 59 76 77 96 100 100 76 69 75 75 55 49 49 47 42 38 27 20 23 22 20 18 14 11 12 11 17 24 24 50 68 46 24 16 12 11
48 65 95 95 99 99 88 86 61 90 72 79 81 90 96 99 96 99 96 79 60 53 51 48 52 46 46 44 40 28 26 35 34 27 19 15 9 8 8 12 29 40 61 70 49 20 14 15 12
100 100 94 100 100 82 92 90 16 35 57 86 95 100 98 97 96 94 92 73 46 47 44 55 69 65 66 52 40 28 28 34 32 29 22 13 9 8 8 8 22 37 56 70 47 17 15 15 35
100 92 96 99 78 52 48 26 14 49 67 80 97 100 93 88 98 99 88 80 74 70 66 59 79 88 91 52 38 30 28 34 31 25 18 13 9 7 6 7 15 28 45 68 44 16 16 20 58
55 97 100 99 93 62 44 26 59 72 99 94 75 74 99 100 100 95 86 90 91 90 79 89 85 92 87 62 40 32 31 34 27 20 14 11 11 14 6 6 16 17 37 66 42 17 17 24 60
68 67 68 66 68 82 74 82 92 100 75 99 86 86 100 92 81 64 61 63 79 100 97 90 92 90 81 75 45 34 34 33 28 19 13 12 20 23 9 6 8 11 35 64 42 17 18 18 50
94 82 61 100 99 100 94 97 98 94 92 99 96 93 98 99 83 84 99 100 98 95 89 74 67 62 47 40 37 37 33 31 29 25 19 17 22 16 8 8 6 8 34 67 44 18 20 19 24
79 100 100 100 100 100 100 100 100 100 97 100 100 100 100 100 100 99 98 96 90 83 92 79 71 71 84 83 68 35 29 23 20 18 18 21 18 13 9 8 7 10 26 67 47 18 18 24 24

GFSSGP_500_rhum_120.txt.gz
RH
9 7 6 6 6 5 8 11 9 16 12 14 15 40 39 35 31 17 13 9 11 12 12 11 9 6 4 5 6 6 7 8 8 8 8 8 9 8 8 8 8 8 9 8 8 7 6 8 11
15 15 14 9 8 6 13 14 12 16 14 29 23 35 37 32 32 20 13 11 9 10 12 10 8 7 5 5 6 6 8 8 7 7 8 8 9 9 8 8 9 10 10 10 10 14 16 10 20
16 15 14 12 12 7 16 18 16 16 14 14 34 35 33 33 30 27 19 14 10 9 9 8 8 7 5 5 6 6 5 5 5 7 8 9 9 9 9 12 14 17 16 14 15 22 34 37 28
20 18 16 13 12 13 12 25 22 20 18 16 18 47 43 37 33 31 21 18 12 9 10 10 9 6 7 6 6 5 4 5 5 7 8 11 12 12 12 12 18 36 42 38 35 38 44 53 49
22 21 17 12 13 15 17 27 29 25 24 24 19 26 37 30 33 35 28 21 15 11 9 10 9 6 8 7 6 6 5 6 6 7 8 12 15 16 17 21 22 22 32 51 54 54 55 46 49
18 21 12 7 14 18 19 26 26 26 26 26 26 20 17 23 28 31 23 21 17 12 11 10 10 7 7 8 6 6 5 7 7 7 8 12 15 18 20 20 19 20 24 33 37 62 66 64 49
19 18 11 10 11 16 23 28 26 30 25 24 28 23 19 18 16 22 21 18 17 11 12 10 12 8 7 8 6 5 5 6 7 8 7 8 13 17 21 23 22 18 20 23 35 43 47 66 50
21 16 10 10 10 13 29 29 26 26 30 30 27 24 21 20 20 21 18 16 17 16 16 12 12 9 8 8 8 7 6 6 7 8 8 10 11 15 22 25 24 22 23 33 36 42 36 43 46
18 11 7 9 14 20 42 32 32 29 26 32 49 42 28 23 23 19 14 14 16 20 17 13 12 9 9 9 9 9 9 8 7 8 10 9 11 14 19 26 28 25 19 18 21 35 40 36 34
16 11 10 14 23 22 32 40 42 32 28 27 27 39 29 19 16 21 23 16 18 20 17 15 16 12 12 10 8 9 10 10 10 9 10 11 10 13 17 23 27 28 22 15 19 26 40 48 48
17 10 13 13 20 25 26 34 51 38 29 30 28 28 33 21 16 16 21 23 21 19 13 14 16 15 16 13 10 11 11 12 13 12 12 14 13 13 15 20 26 31 26 16 15 23 30 36 46
17 15 13 12 14 15 16 30 41 49 32 41 45 30 24 17 23 19 20 21 20 16 14 15 19 15 16 16 15 16 15 15 17 14 15 17 14 12 13 22 26 35 31 18 12 17 33 37 36
18 18 17 14 11 10 17 15 30 40 48 46 44 43 35 25 18 16 20 27 25 23 25 23 26 18 17 20 19 20 21 20 20 19 16 18 16 14 12 17 25 37 38 23 14 11 38 53 58
16 17 15 15 10 10 12 10 47 10 62 59 55 49 44 36 25 22 18 23 26 31 30 28 28 26 19 21 23 24 24 24 23 25 20 18 19 18 14 13 23 35 45 34 17 12 31 47 55
10 11 11 11 12 12 14 14 10 13 54 62 68 61 58 48 42 35 35 32 32 39 35 28 30 26 25 28 26 22 27 28 29 31 26 22 22 21 16 11 16 30 46 48 25 16 15 21 22
8 7 8 8 10 11 14 12 9 16 44 64 70 71 71 62 52 45 44 42 39 33 33 32 29 31 31 28 28 24 29 33 34 37 33 29 28 24 18 16 12 20 38 48 47 21 16 16 16
5 5 4 5 6 7 9 10 8 14 37 57 73 65 71 72 60 51 49 51 50 40 36 32 27 28 34 34 33 36 41 31 38 41 41 35 28 23 22 20 16 14 24 35 48 44 20 17 17
2 3 3 3 3 4 6 6 8 10 25 26 67 77 78 84 73 67 61 58 50 52 41 35 30 31 33 40 36 28 39 38 38 41 39 39 29 23 23 25 22 16 13 19 30 53 35 19 17
4 3 4 3 3 3 4 6 6 11 24 23 33 67 91 92 86 85 74 73 64 60 51 38 39 44 47 51 42 43 43 48 44 40 34 40 36 35 26 26 29 26 19 18 23 47 55 26 18
17 14 8 5 4 3 6 12 6 10 16 23 27 39 64 89 92 95 89 82 74 72 72 62 52 53 53 47 39 46 60 67 66 49 37 40 45 36 26 24 28 25 26 22 21 28 53 41 18
82 56 21 15 10 9 27 15 8 12 15 18 22 32 48 77 96 95 93 91 84 85 90 95 79 70 65 53 42 41 70 81 63 52 47 48 40 28 20 21 19 21 26 23 22 22 45 53 22
70 96 44 34 24 79 85 82 19 11 16 21 29 24 41 68 96 98 99 98 99 95 83 87 92 72 70 56 55 58 52 50 48 40 32 44 40 31 23 22 17 15 24 27 20 36 47 61 31
58 100 63 41 47 100 100 69 55 53 27 21 24 27 36 56 99 100 97 89 79 74 67 64 64 67 68 57 48 53 53 52 42 34 28 33 23 26 26 20 16 12 21 28 21 37 53 64 37
95 94 96 69 100 100 95 98 48 99 67 64 30 66 87 100 100 99 75 75 72 66 58 52 64 69 72 70 63 60 53 46 44 29 25 25 28 27 23 18 14 13 16 24 19 43 55 68 34
79 93 100 99 100 84 98 100 58 71 69 93 100 100 99 100 100 96 80 74 72 78 72 69 80 87 84 84 94 78 61 49 46 31 27 35 33 32 37 19 10 10 14 27 18 42 48 64 29
77 73 41 28 57 70 83 79 38 67 99 95 90 100 98 95 84 84 80 71 89 84 85 82 92 99 99 95 95 92 77 63 59 38 30 36 34 29 28 17 10 9 13 19 20 44 51 62 22
63 57 80 96 97 91 58 60 70 54 49 79 91 79 90 86 98 79 79 78 83 86 87 81 87 98 99 96 94 91 87 79 75 45 31 34 34 29 21 12 9 7 9 12 21 37 56 62 19
71 70 87 100 100 97 90 74 64 54 43 34 30 35 55 58 52 57 57 70 90 98 87 88 96 98 95 98 94 94 91 87 82 46 33 33 34 27 16 11 15 15 8 12 18 32 52 61 19
62 65 75 96 93 85 93 79 44 47 50 53 52 68 61 66 62 74 75 75 80 97 99 96 93 88 95 100 94 89 95 88 79 73 35 34 34 26 14 13 20 21 7 10 14 29 55 63 21
98 99 59 73 100 100 100 88 96 73 60 54 76 73 86 100 100 100 93 92 92 80 79 99 94 91 82 84 85 82 86 87 64 57 36 34 32 29 22 16 20 17 8 8 10 29 54 65 23

GFSSGP_500_rhum_123.txt.gz
RH
13 13 12 10 9 9 6 4 9 10 11 10 9 11 20 14 22 21 24 27 23 13 10 11 9 7 8 6 5 4 5 6 7 7 6 6 6 7 8 9 9 9 9 9 9 10 10 13 14
13 12 12 12 11 11 8 7 12 12 12 12 12 12 16 30 33 23 28 32 28 18 13 11 9 7 8 7 5 4 5 6 6 5 4 4 6 8 8 9 11 14 16 20 20 18 20 24 29
20 20 16 15 13 14 13 12 14 16 15 15 14 14 16 27 30 23 29 33 32 21 15 12 9 7 8 8 5 5 5 6 5 4 4 4 5 7 9 11 12 16 28 40 43 44 38 35 50
21 13 10 9 10 17 20 16 16 18 19 19 17 15 15 15 18 16 30 34 36 24 18 14 9 8 8 9 7 6 6 6 5 5 4 4 5 7 11 13 17 18 18 23 32 53 57 55 49
17 14 9 5 7 20 21 25 19 20 21 21 20 18 17 18 18 18 20 30 32 28 22 16 11 9 8 9 8 7 6 6 5 6 5 4 5 7 10 12 16 17 18 18 25 30 38 70 66
16 16 10 8 10 22 26 29 24 22 20 20 17 18 18 19 19 19 24 30 30 27 21 17 12 10 9 9 8 8 6 6 6 5 6 6 6 6 8 12 18 21 20 18 20 22 38 38 42
17 16 13 12 11 14 27 31 26 26 23 20 18 16 20 26 24 23 23 26 24 22 20 16 12 13 10 9 9 9 8 6 6 5 6 6 7 7 8 13 18 23 22 20 26 30 35 40 34
17 16 14 13 12 11 30 37 30 28 24 24 22 18 22 31 31 29 24 20 18 19 21 20 15 12 11 9 9 11 11 9 6 6 6 7 7 8 8 12 21 23 25 22 16 16 20 29 35
21 14 10 10 10 11 32 32 38 32 25 24 26 21 21 28 27 26 23 21 22 20 18 25 21 10 10 10 10 11 11 10 10 9 9 9 8 8 8 10 18 23 26 25 18 15 19 21 31
20 18 15 15 14 12 17 30 45 36 30 26 25 26 23 23 20 24 26 26 24 26 19 20 21 13 10 10 11 11 11 11 11 12 12 12 10 11 9 9 12 19 24 29 23 14 15 19 24
23 15 18 16 15 13 13 19 50 46 26 32 29 26 23 23 25 23 29 24 25 27 26 18 26 24 15 12 13 14 12 12 12 12 14 15 14 12 11 11 11 15 22 32 27 17 12 17 23
22 21 21 19 19 18 16 15 30 46 26 42 38 31 25 24 27 28 27 24 22 28 30 23 20 27 27 18 16 16 15 15 14 14 15 17 18 16 13 13 11 12 16 32 33 22 13 11 26
18 17 16 16 16 16 17 16 15 22 25 49 48 40 33 29 28 29 31 33 27 24 27 24 31 33 28 24 20 18 16 18 20 19 17 21 23 20 18 17 14 12 13 27 38 30 16 12 26
18 16 14 12 12 14 14 15 16 11 30 39 58 51 42 37 35 38 36 38 35 31 27 32 31 33 28 27 26 22 22 23 26 23 20 24 28 26 23 23 21 11 13 18 36 41 23 14 14
13 13 12 12 11 11 12 10 10 11 18 33 43 62 48 35 37 36 44 43 41 36 37 43 37 32 32 31 30 27 28 29 27 28 25 29 31 31 32 28 25 17 12 15 24 42 41 20 14
11 10 10 10 8 8 8 6 5 8 11 14 32 68 66 48 36 38 46 48 49 44 45 60 48 41 37 38 38 35 34 35 34 37 36 34 34 34 40 36 31 24 15 14 18 32 47 43 20
7 6 6 6 5 6 6 6 5 6 7 7 14 34 76 66 50 40 41 50 50 49 56 60 58 48 46 49 44 40 42 39 38 42 42 42 39 37 40 39 34 28 26 20 13 20 26 48 44
4 3 3 3 2 3 3 4 4 5 5 6 10 15 58 82 64 56 55 55 58 52 60 58 71 59 52 44 45 43 42 44 49 48 48 49 43 40 38 39 35 31 31 33 24 16 17 31 51
2 2 2 2 3 2 2 3 3 3 4 5 7 11 20 76 80 79 74 69 67 66 62 60 59 59 47 44 41 44 49 48 58 57 47 42 47 48 44 41 37 34 31 33 30 28 22 24 47
2 2 4 25 20 26 5 3 3 3 3 4 5 8 11 46 100 98 89 86 83 80 70 65 66 67 53 44 49 54 79 65 58 59 50 51 56 59 50 39 37 33 32 33 29 29 27 24 23
16 22 35 45 36 49 46 21 3 4 3 4 4 7 10 25 93 100 99 97 98 100 81 69 66 69 71 66 53 55 86 82 60 77 94 95 93 71 54 42 39 30 35 39 29 35 29 35 31
32 60 60 51 54 45 82 44 19 19 8 6 5 6 11 27 65 100 98 95 90 85 76 76 72 67 72 68 71 53 70 74 75 96 94 93 88 74 61 58 47 34 29 30 26 27 29 31 40
45 65 55 58 74 87 69 47 18 87 54 8 7 8 18 25 69 100 99 99 84 80 81 77 77 75 75 84 94 87 69 97 98 94 96 77 63 57 53 57 52 33 33 28 26 23 20 22 32
63 78 52 83 77 52 36 54 55 92 59 28 44 33 18 25 60 75 100 98 91 68 84 77 86 88 90 96 89 94 97 96 96 98 96 88 63 48 38 42 36 30 30 24 24 25 16 18 23
92 51 65 77 51 51 100 88 37 78 84 62 48 42 34 36 43 58 96 90 91 78 81 91 95 96 92 84 85 97 95 96 95 77 72 81 71 46 46 50 47 34 32 28 17 13 13 19 20
77 74 93 95 99 98 82 75 79 97 100 100 96 84 58 47 52 51 39 44 68 59 72 68 68 67 64 66 66 70 80 81 91 97 96 72 70 63 37 45 61 60 34 27 13 10 13 17 22
52 93 92 98 100 100 82 100 80 100 98 100 95 73 86 70 87 84 92 98 94 91 92 93 85 86 85 84 78 81 82 88 89 88 90 77 85 70 36 34 37 37 32 23 12 9 8 14 18
79 89 85 100 100 100 97 88 89 91 99 100 100 99 89 100 94 96 87 51 54 82 94 91 94 97 96 96 88 92 91 88 76 80 76 69 83 86 45 31 33 34 26 16 10 8 7 12 15
80 57 70 100 100 96 99 76 100 68 72 70 73 66 68 87 100 100 99 99 98 91 98 100 100 99 99 97 98 93 88 95 75 66 61 74 75 85 64 33 32 34 22 13 11 19 12 11 16
94 75 55 71 98 100 100 100 91 71 43 43 41 31 36 29 31 46 72 73 100 99 99 98 98 98 100 100 98 98 95 89 80 72 79 79 71 85 82 45 34 34 21 13 16 23 15 11 13

GFSSGP_500_rhum_126.txt.gz
RH
13 13 13 12 12 12 13 11 8 5 4 8 11 11 11 10 10 13 14 16 24 36 26 19 13 8 6 6 4 3 3 3 4 5 6 5 4 5 6 6 7 10 12 13 17 26 26 27 24
14 13 12 10 10 11 16 14 10 9 7 9 12 12 12 12 13 15 14 15 26 33 28 21 16 11 7 6 5 4 3 3 4 4 5 4 3 4 4 5 8 10 13 18 24 34 44 41 38
19 18 17 15 12 18 20 18 14 10 10 12 13 14 14 14 14 14 17 18 28 33 28 23 17 12 8 6 6 4 4 3 4 4 4 4 4 4 4 4 6 10 12 16 17 24 42 57 57
21 20 19 14 10 17 23 22 18 15 12 14 14 15 16 14 16 17 18 21 33 30 27 31 22 16 11 7 7 6 4 4 5 5 5 5 4 4 4 5 5 10 11 13 16 18 22 29 74
13 13 12 8 11 19 23 26 23 20 18 18 15 16 15 18 22 21 21 23 26 26 28 33 29 20 12 8 7 8 6 6 5 6 6 5 5 5 4 4 4 6 8 14 15 16 18 30 39
14 14 10 9 11 16 23 28 25 25 23 25 20 17 19 25 28 27 25 24 26 26 33 35 31 20 15 10 7 8 8 7 6 6 6 6 6 5 5 5 5 5 5 11 14 16 23 28 36
20 18 12 10 10 14 22 32 25 24 23 25 21 18 21 27 33 35 33 32 32 31 35 32 28 22 17 12 8 8 9 9 8 6 6 6 6 6 6 6 6 6 7 10 14 16 13 16 20
22 18 15 15 16 17 25 34 27 26 25 26 22 18 21 24 26 26 36 39 34 28 32 27 26 24 19 13 9 9 8 10 10 9 7 7 8 9 7 6 6 7 8 10 13 15 15 14 19
26 21 17 19 22 19 23 30 34 32 24 28 26 20 19 19 23 28 25 28 29 25 25 29 27 26 21 16 11 10 9 10 11 11 10 10 10 10 10 8 8 8 8 10 13 14 18 13 13
26 21 19 21 20 18 18 20 22 19 17 24 30 27 23 22 22 25 28 32 26 21 23 30 28 26 24 18 16 14 11 12 13 13 13 12 12 11 12 10 9 10 9 8 10 15 21 15 10
31 26 27 25 24 22 19 19 21 19 13 17 35 33 27 27 25 25 27 32 35 30 25 30 34 31 29 21 18 21 19 18 18 16 16 15 15 14 15 13 12 11 11 9 9 16 21 19 12
30 29 27 25 23 23 22 22 22 21 14 23 32 39 28 28 28 27 27 30 34 32 29 31 35 32 30 28 29 24 22 18 19 19 20 19 18 18 20 17 15 16 11 11 8 16 22 23 16
37 33 28 26 23 21 19 18 16 17 20 23 30 42 36 28 30 31 31 30 33 36 31 31 33 38 34 37 38 31 26 21 19 22 24 22 20 22 25 22 19 22 16 13 10 13 22 26 24
37 36 34 27 23 23 21 18 18 14 15 18 21 43 43 35 33 35 34 34 35 39 37 35 38 41 48 43 42 34 28 28 25 25 27 23 23 27 31 31 26 27 23 15 12 10 14 23 29
31 32 28 23 21 18 19 21 17 16 15 13 16 20 42 42 35 33 36 37 44 49 49 46 43 41 47 46 35 32 33 29 30 30 29 28 29 32 35 38 36 34 31 24 14 12 10 15 21
25 21 22 19 15 12 11 14 12 11 12 13 9 13 21 43 32 28 39 42 49 57 55 49 46 44 51 50 43 37 36 35 36 35 34 36 35 36 38 40 42 38 38 34 25 17 11 8 10
16 16 14 13 11 8 6 7 8 8 8 8 7 7 11 20 45 18 27 42 51 56 60 54 48 51 61 55 56 49 47 41 41 41 40 42 41 42 40 39 44 42 39 36 32 29 23 14 9
12 10 8 6 6 4 3 3 4 3 3 4 4 5 6 10 23 30 29 47 55 56 58 62 52 56 74 60 64 58 52 47 43 46 45 45 47 46 43 44 43 47 45 41 37 28 28 27 19
8 5 4 2 2 3 2 2 2 3 3 2 2 2 3 6 9 47 50 50 63 63 63 67 60 62 73 62 68 68 68 58 55 51 49 51 52 46 46 51 48 51 55 51 41 30 31 30 25
3 2 2 2 4 8 4 3 4 4 2 2 2 2 2 4 6 13 66 59 55 65 66 73 64 69 71 74 80 64 73 69 62 56 57 62 46 51 57 62 54 50 49 45 47 37 36 31 31
2 6 11 22 16 20 28 21 13 19 23 17 16 3 2 2 5 8 59 88 92 81 71 76 82 75 73 81 80 64 60 58 60 61 65 69 60 69 62 54 69 65 52 44 54 51 45 39 28
3 16 29 21 21 19 14 33 7 15 19 16 17 23 8 2 4 7 57 100 100 100 90 82 94 88 76 70 71 68 60 58 62 70 79 88 85 82 74 96 93 85 70 52 54 45 40 38 31
18 26 27 19 25 45 42 45 35 26 46 31 22 25 20 4 4 10 34 100 97 100 99 81 86 87 81 71 70 74 72 73 69 74 78 91 94 98 96 97 98 87 64 61 61 44 37 38 33
27 29 29 25 46 64 97 90 91 98 100 100 89 57 18 10 7 10 28 97 98 72 61 67 74 91 80 69 73 70 74 79 82 96 95 87 97 88 96 93 77 76 54 45 53 44 30 27 28
25 31 20 29 56 88 98 82 54 86 100 90 84 100 94 12 9 14 29 71 83 94 86 89 96 92 94 97 88 79 76 82 94 95 96 90 96 96 96 86 82 82 50 55 57 56 38 30 25
31 35 24 34 81 81 100 99 74 100 100 100 92 99 100 47 17 17 29 59 72 88 83 94 100 100 100 96 96 90 92 93 100 97 97 94 96 95 92 85 89 83 50 58 86 81 64 35 19
37 45 57 52 90 100 95 75 100 98 100 100 77 100 100 95 27 29 50 77 63 69 82 78 81 94 99 98 98 97 97 97 97 94 93 87 83 89 95 87 72 68 68 48 44 56 53 39 21
36 66 60 73 93 100 100 100 89 91 100 98 100 66 80 81 60 38 34 44 67 65 77 90 90 88 100 99 97 92 93 95 88 77 74 77 82 87 93 94 89 83 72 54 41 35 36 30 20
65 80 88 66 87 100 95 99 99 100 100 88 96 100 88 84 74 65 61 52 60 63 62 77 79 83 82 88 90 92 93 84 82 74 66 59 66 72 70 98 98 85 84 68 37 32 35 28 16
55 61 80 100 100 100 100 100 100 100 100 99 74 72 98 99 100 98 92 81 81 73 86 98 87 87 93 100 100 78 86 86 83 74 73 72 51 48 61 68 67 67 80 80 40 32 34 26 14

GFSSGP_500_rhum_132.txt.gz
RH
14 15 14 14 14 14 15 18 16 14 13 12 11 11 9 6 8 11 16 19 15 15 18 20 17 16 18 17 13 7 5 3 3 4 4 5 4 5 5 5 4 4 6 5 4 7 10 15 24
16 16 17 15 17 19 22 23 19 16 16 15 13 12 8 7 10 14 17 19 15 15 18 19 18 18 21 22 21 15 6 5 3 4 4 4 4 4 3 4 4 5 6 6 5 8 10 15 21
10 10 13 16 17 19 28 28 26 21 20 18 16 12 9 9 11 14 18 21 16 17 18 18 20 21 22 27 27 19 12 7 4 4 4 4 5 4 4 4 4 4 5 5 6 7 12 14 15
12 10 8 9 11 14 19 24 24 24 21 20 17 14 11 10 12 17 20 23 21 23 22 21 22 24 24 28 30 26 16 10 7 5 5 5 5 4 4 5 4 4 4 5 5 7 11 14 19
13 12 11 9 12 16 16 16 16 24 19 17 18 17 15 14 14 17 20 22 20 23 26 26 25 26 23 26 30 31 23 13 8 7 6 5 5 4 4 6 6 5 4 4 4 6 9 12 14
12 13 10 10 12 16 18 16 15 15 14 13 14 18 19 17 17 17 18 21 22 24 27 30 28 29 28 25 27 27 23 16 9 8 8 7 5 4 5 7 7 7 5 5 5 5 7 10 14
17 17 16 14 15 19 25 22 18 15 15 14 11 15 18 18 19 20 20 24 26 28 32 33 27 29 32 31 25 25 21 19 12 9 9 10 7 5 5 7 8 8 7 5 5 5 5 7 12
26 24 23 24 24 23 26 25 23 22 20 18 14 14 17 16 20 22 23 25 28 33 34 33 28 29 34 36 30 25 22 19 15 10 11 10 10 8 8 8 8 9 8 6 5 5 5 6 10
36 34 32 30 29 28 28 30 29 25 22 21 20 19 20 20 20 24 27 32 35 35 35 33 34 33 35 37 34 28 26 22 19 12 12 12 11 10 10 10 10 10 10 9 6 5 5 7 10
43 41 40 37 34 32 31 32 32 27 25 23 24 22 19 21 23 25 26 27 30 33 30 35 37 32 33 38 34 31 28 23 20 17 15 16 14 12 10 10 10 10 11 11 8 6 6 7 10
47 46 43 42 40 37 35 33 32 31 31 29 26 23 20 18 23 22 26 28 29 32 36 37 39 35 31 35 38 32 34 31 23 20 17 17 16 15 13 12 12 11 12 13 11 8 6 7 11
48 48 45 42 42 42 40 37 38 37 33 31 29 28 24 20 19 21 23 26 31 32 35 38 38 35 29 30 35 35 33 38 31 25 23 19 20 19 17 16 14 14 14 15 14 11 6 6 9
47 49 49 45 42 37 35 39 39 41 44 39 32 27 26 25 22 21 24 31 26 31 35 37 40 35 30 30 34 37 34 43 39 30 27 24 21 22 23 21 17 15 17 19 18 15 9 6 6
54 52 51 45 40 38 31 28 28 27 28 30 31 31 29 23 22 23 24 26 31 33 35 35 39 42 33 32 34 37 40 40 44 39 31 28 24 22 23 24 20 19 22 25 23 19 14 8 6
50 46 49 41 44 40 31 26 24 22 21 21 22 21 22 25 24 22 20 23 25 33 43 39 42 43 38 33 35 38 44 45 45 42 37 30 30 26 26 26 24 25 26 30 29 26 21 14 9
53 50 54 41 49 44 34 22 27 26 25 26 24 21 20 19 17 17 20 18 21 27 43 49 44 46 52 41 38 40 46 54 52 47 40 34 33 32 29 30 31 30 32 37 36 32 29 22 17
47 56 49 51 48 44 38 23 32 30 27 25 24 22 21 17 16 12 15 15 16 17 31 52 55 52 62 55 44 45 47 51 55 50 42 34 36 37 33 33 34 34 37 42 44 41 37 29 24
53 51 52 48 43 41 38 32 30 22 18 20 20 20 19 18 16 7 6 10 11 14 16 31 62 59 64 75 48 48 48 52 54 52 48 38 32 37 36 33 34 39 39 44 49 49 44 41 39
60 60 54 40 30 30 26 25 22 14 6 6 10 10 10 10 11 12 9 8 4 7 12 15 36 64 72 66 54 47 48 57 58 56 58 46 41 36 35 38 38 43 43 46 51 51 52 55 45
59 46 40 29 18 16 8 10 3 2 2 3 5 5 5 6 7 6 7 7 8 6 5 10 13 55 73 77 66 56 61 65 68 65 66 55 45 42 40 43 46 47 46 41 50 54 58 55 56
30 22 14 14 3 2 2 2 4 10 7 6 26 39 21 16 6 5 7 4 5 6 4 4 8 18 66 82 76 84 69 61 64 64 67 59 52 52 50 48 50 49 48 42 47 47 55 63 65
12 6 3 2 2 4 6 6 9 14 18 24 39 52 38 40 20 21 19 9 5 4 4 4 4 10 48 86 80 83 60 63 65 79 77 70 66 65 67 70 71 63 53 49 44 42 43 54 71
4 3 3 3 4 4 19 25 19 28 24 26 39 44 34 52 31 52 58 34 26 4 2 4 7 8 46 92 88 90 84 69 77 87 82 82 77 73 76 74 80 70 55 57 76 86 82 57 67
3 3 4 8 15 15 19 24 33 25 21 26 29 48 59 65 75 55 36 32 22 8 5 4 8 12 40 71 96 91 92 72 78 88 86 92 88 79 72 74 86 65 71 95 88 97 94 96 94
4 4 10 18 18 32 21 24 29 54 64 53 31 49 47 94 80 73 28 37 27 26 19 14 7 11 28 81 100 97 93 80 72 91 89 92 89 93 95 98 83 83 96 96 98 94 98 96 96
5 10 23 23 20 17 27 31 48 59 72 54 49 76 92 81 99 29 25 50 51 29 22 10 8 26 90 100 98 97 87 95 90 95 93 99 93 100 100 94 91 89 88 88 84 84 82 97 96
17 31 35 26 26 20 26 28 39 67 78 74 96 86 98 68 50 40 35 42 31 25 22 12 32 100 100 97 96 83 67 100 80 96 97 95 97 95 95 95 94 87 81 78 81 95 90 95 97
21 51 61 63 32 28 68 30 79 78 61 77 80 98 100 100 100 98 98 76 53 42 19 24 100 99 98 72 64 96 65 77 94 95 88 87 90 94 98 92 90 86 95 95 97 87 70 79 91
17 19 60 64 39 55 73 81 86 77 59 64 68 97 100 100 94 92 98 100 82 94 50 40 99 95 99 99 97 80 88 91 96 86 76 83 90 85 94 94 87 91 97 98 92 82 77 75 88
14 16 40 48 47 66 100 100 87 90 88 85 74 100 100 100 100 60 96 98 98 90 86 50 90 98 95 80 90 96 97 94 82 88 56 58 64 88 82 95 96 94 91 92 82 75 66 59 68

GFSSGP_500_rhum_135.txt.gz
RH
13 13 14 14 16 16 18 26 16 14 13 12 12 12 11 11 7 69 16 14 16 16 14 13 14 15 16 18 18 17 13 5 4 3 4 5 5 6 6 6 4 7 7 7 6 4 5 8 11
18 18 18 14 16 22 31 31 24 18 14 14 12 13 13 11 8 8 10 18 19 18 15 15 15 16 17 19 22 22 18 11 5 3 4 4 4 4 5 4 5 4 6 6 6 6 5 7 9
13 12 12 11 12 20 40 32 18 20 18 20 18 17 15 13 10 8 11 14 18 18 19 18 17 19 19 19 22 26 26 17 8 5 3 4 4 4 4 5 5 5 4 5 5 6 6 6 9
13 13 12 13 14 19 17 13 14 16 17 19 18 19 16 14 11 10 12 14 16 20 18 19 20 22 20 18 21 20 28 25 15 7 4 4 4 5 4 5 5 5 5 4 5 5 5 6 8
14 14 14 13 18 20 20 18 13 12 13 14 19 19 16 13 14 12 13 16 18 19 18 19 20 22 20 19 22 22 21 23 18 11 6 4 4 5 5 5 6 6 6 5 4 4 5 6 6
14 14 13 16 24 19 24 21 16 16 15 13 16 17 16 8 15 15 15 16 19 21 19 21 23 22 21 23 23 23 22 20 18 14 8 6 4 5 5 6 7 7 7 6 5 5 5 5 5
18 16 14 19 25 25 22 22 20 19 18 23 10 15 19 13 14 17 18 18 19 19 18 19 21 22 26 26 26 23 25 24 19 16 11 8 6 5 5 5 8 8 8 7 6 5 5 5 6
24 23 23 26 29 32 30 27 27 25 23 21 20 20 16 14 14 19 19 20 21 22 23 23 24 24 24 28 29 27 24 25 23 17 15 9 9 7 6 6 9 9 9 8 8 7 5 5 5
37 33 36 38 37 37 31 32 31 28 28 26 22 20 22 19 19 20 21 22 22 24 24 26 27 30 29 26 29 30 29 24 24 23 17 13 10 10 9 8 10 9 9 9 9 9 6 5 5
45 41 43 41 39 39 38 37 37 34 32 30 28 26 24 23 21 22 23 24 25 26 28 30 32 34 30 27 28 31 33 26 26 24 18 15 12 13 12 11 11 12 11 11 10 10 8 5 5
53 49 49 46 44 45 41 40 39 37 35 36 33 31 27 24 25 25 26 26 28 28 28 30 31 30 30 29 27 31 36 32 28 27 25 17 14 22 19 24 26 12 12 12 12 12 11 7 5
58 57 53 55 49 46 47 43 42 44 45 44 38 34 32 30 29 25 24 28 31 32 31 31 31 31 32 31 29 31 36 34 31 29 28 25 20 26 31 30 37 20 16 16 15 15 13 10 8
43 51 50 47 50 48 44 43 40 40 40 40 47 45 43 40 34 29 27 26 33 33 35 34 34 34 36 38 33 33 34 35 33 31 30 29 23 24 32 28 30 26 19 19 20 20 18 14 10
46 48 49 47 40 41 39 39 41 38 33 34 34 33 33 35 38 36 27 27 26 28 35 42 41 38 42 41 37 35 36 35 36 34 33 34 28 22 34 25 28 28 25 19 21 25 24 19 13
46 42 46 49 34 41 32 34 41 31 29 31 29 28 26 24 24 27 29 28 23 25 26 28 35 44 43 46 44 37 39 35 33 38 32 34 34 34 25 29 21 22 22 21 25 30 30 26 20
34 34 36 29 30 42 34 33 43 38 36 34 33 34 33 31 28 24 22 20 24 21 21 24 26 36 50 44 45 40 40 40 36 39 37 33 34 33 27 28 35 31 21 24 30 34 35 33 30
28 27 33 34 28 26 31 28 40 41 38 35 32 28 25 27 26 23 21 20 19 17 19 19 20 22 34 56 50 50 44 40 39 45 43 36 35 36 36 31 28 32 29 28 33 38 40 38 37
40 40 40 40 42 31 29 31 42 43 41 36 32 26 21 20 20 20 17 15 17 18 13 15 16 17 22 60 62 60 51 41 44 45 48 44 37 35 37 34 29 30 32 31 36 39 42 43 42
29 49 58 62 58 47 44 36 40 25 9 28 26 19 17 14 12 12 12 11 9 10 11 10 12 14 16 27 67 68 56 52 47 47 48 48 46 40 37 37 32 34 35 36 34 36 39 47 45
57 64 74 71 63 57 44 40 17 16 12 14 8 4 6 8 6 7 7 8 8 6 8 8 7 9 12 14 47 73 77 74 60 53 49 54 54 52 43 40 38 39 36 35 39 38 40 44 48
61 59 70 58 41 27 28 26 4 24 5 5 9 6 5 5 5 5 4 4 4 5 6 5 6 5 7 10 30 80 80 81 72 52 52 59 57 55 51 48 44 42 43 44 45 47 40 42 44
61 60 56 25 9 5 4 9 6 6 8 25 21 18 14 10 24 31 27 13 15 12 10 20 8 5 4 5 13 64 82 81 75 50 56 62 58 56 60 56 52 53 54 55 50 55 51 42 46
40 26 14 5 3 3 6 4 50 8 18 22 39 32 23 23 24 38 34 30 22 19 24 34 32 8 4 5 7 38 79 88 87 83 65 63 63 58 64 66 64 62 55 57 55 56 48 55 68
21 6 4 4 3 6 90 97 67 13 19 31 34 23 27 17 40 43 26 25 36 49 45 33 37 40 6 6 5 25 63 94 92 91 70 71 67 70 66 74 76 72 77 74 65 93 92 80 92
5 3 10 40 73 98 100 99 82 24 33 34 38 34 27 23 31 46 38 41 31 25 23 19 29 38 24 6 5 28 62 98 98 94 80 61 71 74 73 74 75 82 91 90 92 94 99 92 95
3 3 4 15 93 70 24 86 98 64 32 44 58 43 24 27 39 44 66 76 27 26 32 28 33 77 39 7 5 86 48 91 100 93 64 65 86 90 79 80 78 95 90 94 87 78 87 85 77
6 18 9 12 22 25 77 98 71 69 56 76 74 62 50 35 45 41 74 100 39 39 40 49 89 100 64 12 16 97 47 74 97 74 86 86 95 100 92 84 80 89 95 96 94 86 84 72 73
4 4 7 33 58 64 94 83 68 49 66 79 64 49 52 56 63 72 92 98 100 71 56 43 54 68 62 15 38 87 60 83 96 95 96 89 98 97 99 86 88 98 99 90 91 90 81 75 74
4 4 6 16 39 53 66 77 57 68 57 74 68 64 54 82 77 90 98 100 100 99 100 80 70 64 66 27 67 72 88 96 96 96 96 89 96 97 96 98 97 98 93 89 86 80 77 69 69
5 5 6 14 41 100 64 68 100 63 62 72 70 71 69 74 94 99 100 100 100 100 100 78 64 89 56 63 98 98 90 96 97 97 94 97 95 90 83 88 85 85 80 85 74 90 87 67 63

GFSSGP_500_rhum_141.txt.gz
RH
13 13 13 12 13 13 22 31 21 16 15 16 20 20 18 14 14 14 13 15 17 25 42 24 18 18 16 17 16 16 14 14 13 9 4 3 4 6 7 6 6 6 6 6 7 8 8 8 4
20 20 19 18 18 18 26 23 30 31 27 24 24 21 24 20 16 13 12 22 11 30 40 20 22 20 18 20 17 16 16 14 14 13 6 3 4 6 7 6 5 6 5 6 6 6 7 8 6
11 15 17 17 16 15 31 23 39 38 36 34 18 15 18 16 22 19 15 12 12 13 28 20 22 21 20 20 21 16 18 16 16 16 12 5 3 5 5 5 5 6 6 6 6 6 6 7 7
11 12 11 10 11 17 23 17 27 27 24 20 15 17 10 15 21 22 19 16 14 11 19 20 20 20 20 20 19 15 16 16 16 18 15 10 5 3 4 5 4 5 5 5 6 7 6 6 7
16 15 14 14 17 22 28 50 36 19 13 13 12 14 14 10 8 18 21 18 15 13 17 16 18 18 17 17 17 16 18 18 14 14 16 12 8 5 4 4 4 4 5 5 5 6 7 6 6
21 18 17 17 21 20 28 63 74 69 37 13 17 21 15 10 10 11 21 17 16 14 13 15 18 21 20 19 18 18 19 20 18 16 15 14 12 8 6 4 4 4 5 6 5 5 6 7 7
26 20 22 22 22 24 45 78 56 57 23 14 16 22 18 15 14 11 14 19 16 16 16 16 16 17 18 19 19 19 20 20 20 19 16 16 14 11 8 6 4 4 4 6 6 6 6 6 8
39 34 33 34 34 45 66 88 33 14 14 19 28 27 28 23 20 19 15 22 20 19 19 18 18 20 21 22 21 20 20 22 22 21 19 16 18 16 11 8 6 5 4 4 6 7 6 6 6
46 44 43 46 44 38 38 66 24 24 40 41 40 34 32 29 25 24 25 22 22 22 25 23 22 22 23 22 22 22 22 22 22 23 22 20 18 19 17 10 8 6 6 5 6 7 7 7 6
54 51 52 51 44 39 43 47 47 46 44 47 42 39 37 37 35 32 33 30 25 25 24 26 26 25 24 24 24 24 24 23 24 25 25 23 21 19 20 15 10 8 7 6 7 8 8 8 7
63 60 58 60 59 51 55 58 57 55 56 54 49 49 48 44 40 38 38 36 32 28 26 26 27 28 27 26 26 29 27 26 24 27 26 28 25 22 21 21 14 12 9 8 8 9 10 10 9
60 64 63 68 70 64 67 63 63 69 66 56 53 50 50 51 50 46 42 39 37 35 34 31 26 29 48 42 30 29 29 29 27 28 29 29 30 29 24 24 20 21 28 14 14 16 11 12 11
63 54 60 64 64 56 49 48 52 56 51 51 50 47 48 51 44 40 39 38 38 38 36 34 32 30 29 55 76 39 33 36 33 31 32 31 32 32 31 28 24 22 28 30 30 32 20 14 13
57 53 51 52 49 43 40 42 41 37 36 37 44 46 40 24 30 36 35 35 36 41 46 47 42 35 32 30 50 95 51 48 43 37 36 35 34 34 34 32 31 29 29 36 33 25 23 16 15
42 42 45 40 32 28 26 28 30 26 26 30 33 33 30 30 30 31 32 32 31 34 34 35 38 41 39 38 32 46 97 72 72 75 46 43 38 35 35 36 30 37 38 32 33 26 23 21 18
24 28 28 27 25 21 20 19 21 25 30 13 10 13 22 29 35 37 36 35 34 32 32 30 29 28 29 28 34 32 64 95 62 97 85 56 51 41 34 38 33 36 43 42 33 25 17 17 16
27 29 26 25 29 22 10 8 12 33 17 7 7 14 36 48 48 44 38 35 34 33 32 33 34 31 27 24 22 26 30 43 93 51 96 95 81 48 37 37 40 34 39 50 46 34 29 32 19
34 25 28 33 31 22 14 15 34 8 6 5 7 12 21 37 42 40 39 38 36 33 31 30 30 30 28 29 28 24 21 23 36 88 49 98 90 54 44 40 42 38 35 48 42 43 38 43 30
18 26 29 34 33 25 20 45 27 16 9 14 23 28 33 32 28 25 23 22 20 18 23 28 27 24 22 18 21 27 26 18 18 21 91 63 96 74 55 56 42 42 36 39 50 51 40 32 35
15 15 27 24 28 28 35 49 36 25 17 22 24 23 21 19 18 17 15 12 10 8 8 8 8 9 10 12 10 10 20 24 15 15 25 90 88 96 79 63 46 44 41 40 44 49 53 39 32
19 23 24 25 36 35 36 45 40 23 20 23 23 20 15 12 9 10 8 7 7 6 4 4 4 4 4 4 5 6 7 11 16 15 15 34 83 79 95 69 54 49 47 43 44 43 45 42 40
23 39 28 37 35 36 38 34 31 26 24 21 18 19 18 21 21 12 6 6 8 7 7 6 5 5 6 5 6 6 4 6 9 8 12 17 49 84 95 84 59 52 53 49 45 44 46 46 47
52 51 47 41 39 31 37 34 28 25 20 20 27 25 37 48 31 27 21 25 17 16 17 14 15 17 24 27 28 33 30 14 5 8 6 10 22 66 94 95 60 48 55 54 49 46 47 54 59
51 56 46 47 50 35 35 32 25 22 25 33 45 72 80 55 35 25 31 22 30 34 29 22 20 20 28 33 32 29 28 23 21 5 6 7 11 69 81 95 54 34 51 55 52 50 54 58 62
43 51 57 59 50 42 34 28 17 9 22 46 68 58 46 43 33 30 33 41 48 66 53 41 38 41 30 32 38 41 32 28 43 28 6 6 6 25 73 98 81 67 46 64 60 52 55 60 61
42 55 60 55 46 28 21 14 6 9 15 29 40 86 65 47 44 47 46 51 50 42 46 47 41 36 28 30 44 68 57 48 56 52 15 7 6 26 40 75 94 96 57 68 66 61 62 64 68
61 66 54 45 18 12 9 9 8 12 22 39 72 63 51 61 44 38 57 50 44 31 30 31 27 39 28 29 57 82 61 43 36 28 29 15 6 31 29 74 99 92 83 65 71 73 70 70 74
71 61 41 21 12 6 4 4 4 6 8 16 48 67 70 75 45 31 36 64 54 41 36 36 36 35 34 37 50 64 53 76 46 38 31 19 7 19 17 98 93 80 84 77 75 82 84 71 73
61 62 28 9 6 6 5 4 6 20 24 94 87 61 73 54 37 30 29 55 56 45 53 53 39 46 39 64 78 90 76 100 40 47 40 24 12 12 23 51 97 96 89 68 69 85 89 72 81
59 32 8 5 5 5 3 3 6 5 7 12 41 54 61 47 35 33 34 52 65 68 65 68 59 57 67 75 91 100 96 99 40 59 40 32 12 12 58 83 98 96 95 39 56 67 53 66 89

GFSSGP_500_rhum_144.txt.gz
RH
11 12 11 12 13 16 16 16 18 18 19 22 20 21 22 21 22 18 17 17 21 32 38 40 45 39 20 18 19 19 17 16 14 14 13 7 3 4 6 7 6 6 6 6 6 6 7 8 9
17 18 19 20 19 21 20 22 21 19 20 23 27 24 25 25 23 23 20 15 15 23 26 38 51 38 23 21 21 19 18 16 14 13 13 13 4 4 6 7 6 6 6 6 6 6 6 7 8
12 13 13 16 21 25 22 22 20 16 15 14 16 26 21 16 17 18 22 21 13 14 13 17 30 30 26 19 20 19 18 17 16 14 13 13 10 4 5 5 5 5 6 6 6 7 7 7 7
11 10 10 11 15 19 27 17 14 12 13 15 14 12 11 11 12 11 15 23 20 14 14 13 30 29 25 20 20 20 20 18 18 16 14 14 14 9 4 4 5 5 5 6 6 6 7 8 8
15 14 14 16 21 22 19 13 19 20 16 17 15 16 24 20 14 12 17 20 22 20 14 14 14 19 19 19 20 20 19 18 19 18 15 13 14 13 9 4 4 4 4 5 6 5 5 5 7
27 23 21 23 23 25 21 18 16 15 13 12 9 10 17 14 11 13 13 21 21 20 16 14 13 14 15 15 16 18 17 17 19 21 18 15 13 14 13 9 5 4 4 5 6 6 6 5 5
36 37 30 30 35 31 26 23 21 16 15 18 14 14 16 16 12 14 14 18 24 22 18 16 16 15 15 16 18 19 19 19 20 22 21 19 16 15 15 12 10 6 5 5 6 6 6 6 5
45 46 43 41 42 38 35 30 25 20 19 18 24 42 40 22 18 21 22 20 23 28 22 19 18 18 18 17 18 20 21 22 21 23 24 24 21 18 15 15 12 10 6 5 4 5 6 6 6
53 55 52 47 46 39 33 30 28 26 26 29 46 43 33 31 30 30 30 23 19 26 27 25 24 21 20 20 20 20 23 25 23 23 26 26 26 23 20 16 16 13 10 7 6 5 7 7 7
61 63 59 55 52 53 51 49 47 49 52 52 54 46 46 44 37 33 32 32 28 21 27 28 25 26 26 25 24 24 23 25 25 25 25 28 28 27 26 22 19 18 12 9 8 7 8 8 8
64 69 69 69 62 62 70 74 71 78 76 59 56 53 52 46 46 42 43 44 41 35 30 29 32 31 28 27 30 31 32 28 28 30 33 31 30 28 28 28 24 21 19 14 10 9 9 9 9
64 73 71 72 70 72 71 74 79 93 77 70 68 54 52 53 52 49 46 46 48 49 48 41 36 36 35 32 28 37 50 46 32 32 35 35 37 30 30 31 30 25 24 21 25 16 11 11 11
49 55 61 74 79 76 73 77 75 68 68 60 40 37 39 42 40 41 39 38 46 51 49 46 43 41 42 37 34 33 31 59 68 41 36 36 40 37 32 31 32 29 26 25 27 32 31 32 28
53 50 52 55 56 51 50 59 54 46 41 39 37 36 35 34 30 28 31 34 38 43 47 44 40 38 34 42 44 37 34 32 64 92 76 38 46 47 40 33 32 32 29 28 29 30 34 29 26
44 47 43 43 49 46 34 29 24 21 19 18 16 16 15 17 18 18 24 25 24 26 35 41 40 38 36 34 32 40 44 34 35 92 96 75 57 61 63 46 34 34 32 29 31 37 38 38 28
21 26 28 33 31 30 28 27 22 18 16 10 9 10 12 10 12 17 19 19 19 20 24 30 36 38 36 33 31 31 32 36 40 42 82 98 96 87 77 65 44 35 35 32 30 36 42 37 27
5 10 26 33 30 28 24 22 24 19 13 11 10 12 11 17 30 31 27 23 22 25 30 32 31 33 38 37 36 34 31 29 29 28 33 79 96 88 93 81 60 46 37 36 30 30 38 43 35
6 10 13 28 30 20 23 23 21 14 11 11 12 13 18 30 29 23 20 17 15 13 13 16 20 24 31 34 34 34 33 33 31 26 23 30 78 90 95 97 81 77 40 38 32 29 41 43 43
12 11 12 21 31 30 28 22 14 13 14 15 15 13 20 25 24 21 19 19 19 17 14 12 11 13 15 16 22 30 30 28 31 32 29 21 20 63 92 96 98 92 52 40 37 33 35 44 38
11 15 20 26 31 42 38 19 14 17 20 19 16 18 24 24 22 20 18 15 12 8 7 6 6 5 6 7 7 10 15 22 26 27 29 27 22 25 41 80 96 95 54 42 39 35 36 38 40
14 16 26 23 44 50 41 20 18 19 24 24 23 26 23 23 21 18 12 5 5 6 5 5 4 5 4 3 4 4 5 7 10 20 23 25 23 21 17 27 58 96 93 48 44 38 40 38 38
25 37 31 38 38 54 44 33 24 30 31 28 28 26 24 22 15 7 5 6 8 15 19 17 11 6 5 7 5 4 4 3 4 5 13 17 16 20 23 29 46 97 86 77 50 40 38 45 39
41 42 34 32 37 42 49 39 31 31 28 30 28 25 20 10 6 6 7 8 18 27 25 16 17 20 21 19 11 14 14 11 7 5 4 8 11 11 19 19 32 44 96 96 61 45 40 45 42
30 25 31 50 57 36 48 39 28 33 38 32 23 14 8 7 6 7 14 32 41 35 25 19 28 36 32 30 25 24 21 20 26 23 24 6 6 8 10 14 17 37 70 97 86 62 50 52 51
31 33 30 32 34 35 54 42 33 37 28 21 12 8 7 6 13 17 64 40 30 35 28 35 45 54 58 48 38 32 35 35 37 30 28 24 7 5 7 8 13 20 49 94 96 85 69 76 58
46 45 28 30 42 61 55 44 38 32 18 9 7 7 5 5 20 50 40 37 31 32 31 39 49 73 66 42 33 25 27 32 28 30 42 37 20 10 5 6 8 13 30 90 96 95 94 95 69
73 60 55 41 61 63 49 43 32 18 11 7 5 4 9 18 26 29 41 45 40 30 26 43 55 65 46 33 28 37 29 34 27 27 38 60 42 22 18 8 6 8 13 68 91 97 98 98 80
65 69 58 57 60 54 44 23 9 7 6 5 4 4 6 48 71 54 48 40 32 28 21 45 54 46 47 48 52 50 43 41 42 58 51 60 62 43 25 24 11 6 7 26 96 96 97 100 93
92 68 64 60 54 42 20 13 8 6 6 5 4 5 7 15 33 38 42 33 36 26 29 43 60 67 54 42 36 33 50 42 41 94 81 79 57 46 31 29 23 12 6 23 54 95 96 96 100
84 70 66 63 36 12 6 12 9 7 4 4 5 12 17 58 70 60 51 41 36 46 37 84 69 75 62 50 41 50 46 71 66 80 82 70 76 52 50 29 29 20 7 10 42 65 98 97 87